<?xml version="1.0" encoding="UTF-8" standalone="no" ?>
<gpx xmlns="http://www.topografix.com/GPX/1/1" xmlns:xsi="http://www.w3.org/2001/XMLSchema-instance" xsi:schemaLocation="http://www.topografix.com/GPX/1/1 http://www.topografix.com/GPX/1/1/gpx.xsd" version="1.1" creator="VisuGPX - https://www.visugpx.com">
  <metadata>
    <name>Dixmont</name>
    <desc><![CDATA[Marche très agréable]]></desc>
  </metadata>
  <trk>
    <name><![CDATA[dixmont le 13 avril 2014]]></name>
    <trkseg>
      <trkpt lat="48.07425" lon="3.437">
        <ele>131</ele>
        <time>2014-04-13T07:10:45Z</time>
      </trkpt>
      <trkpt lat="48.07427" lon="3.43699">
        <ele>131</ele>
        <time>2014-04-13T07:10:48Z</time>
      </trkpt>
      <trkpt lat="48.0743" lon="3.43699">
        <ele>136</ele>
        <time>2014-04-13T07:10:51Z</time>
      </trkpt>
      <trkpt lat="48.07432" lon="3.437">
        <ele>131</ele>
        <time>2014-04-13T07:10:54Z</time>
      </trkpt>
      <trkpt lat="48.07436" lon="3.43703">
        <ele>134</ele>
        <time>2014-04-13T07:10:57Z</time>
      </trkpt>
      <trkpt lat="48.07438" lon="3.43704">
        <ele>132</ele>
        <time>2014-04-13T07:10:59Z</time>
      </trkpt>
      <trkpt lat="48.07452" lon="3.43712">
        <ele>115</ele>
        <time>2014-04-13T07:11:11Z</time>
      </trkpt>
      <trkpt lat="48.07464" lon="3.43716">
        <ele>115</ele>
        <time>2014-04-13T07:11:19Z</time>
      </trkpt>
      <trkpt lat="48.07469" lon="3.43714">
        <ele>126</ele>
        <time>2014-04-13T07:11:24Z</time>
      </trkpt>
      <trkpt lat="48.07473" lon="3.43709">
        <ele>139</ele>
        <time>2014-04-13T07:11:29Z</time>
      </trkpt>
      <trkpt lat="48.07478" lon="3.43705">
        <ele>142</ele>
        <time>2014-04-13T07:11:33Z</time>
      </trkpt>
      <trkpt lat="48.07481" lon="3.43704">
        <ele>141</ele>
        <time>2014-04-13T07:11:35Z</time>
      </trkpt>
      <trkpt lat="48.07484" lon="3.43705">
        <ele>146</ele>
        <time>2014-04-13T07:11:37Z</time>
      </trkpt>
      <trkpt lat="48.07493" lon="3.43707">
        <ele>148</ele>
        <time>2014-04-13T07:11:45Z</time>
      </trkpt>
      <trkpt lat="48.07499" lon="3.43709">
        <ele>148</ele>
        <time>2014-04-13T07:11:50Z</time>
      </trkpt>
      <trkpt lat="48.07502" lon="3.43706">
        <ele>147</ele>
        <time>2014-04-13T07:11:53Z</time>
      </trkpt>
      <trkpt lat="48.07503" lon="3.43698">
        <ele>142</ele>
        <time>2014-04-13T07:11:58Z</time>
      </trkpt>
      <trkpt lat="48.07502" lon="3.43694">
        <ele>144</ele>
        <time>2014-04-13T07:12:01Z</time>
      </trkpt>
      <trkpt lat="48.07501" lon="3.43686">
        <ele>141</ele>
        <time>2014-04-13T07:12:05Z</time>
      </trkpt>
      <trkpt lat="48.07501" lon="3.43682">
        <ele>141</ele>
        <time>2014-04-13T07:12:07Z</time>
      </trkpt>
      <trkpt lat="48.07502" lon="3.43678">
        <ele>141</ele>
        <time>2014-04-13T07:12:09Z</time>
      </trkpt>
      <trkpt lat="48.07502" lon="3.43669">
        <ele>145</ele>
        <time>2014-04-13T07:12:13Z</time>
      </trkpt>
      <trkpt lat="48.07503" lon="3.43666">
        <ele>145</ele>
        <time>2014-04-13T07:12:15Z</time>
      </trkpt>
      <trkpt lat="48.07503" lon="3.43657">
        <ele>143</ele>
        <time>2014-04-13T07:12:19Z</time>
      </trkpt>
      <trkpt lat="48.07503" lon="3.43652">
        <ele>140</ele>
        <time>2014-04-13T07:12:21Z</time>
      </trkpt>
      <trkpt lat="48.07503" lon="3.43648">
        <ele>141</ele>
        <time>2014-04-13T07:12:23Z</time>
      </trkpt>
      <trkpt lat="48.07503" lon="3.43645">
        <ele>138</ele>
        <time>2014-04-13T07:12:25Z</time>
      </trkpt>
      <trkpt lat="48.07504" lon="3.4364">
        <ele>143</ele>
        <time>2014-04-13T07:12:27Z</time>
      </trkpt>
      <trkpt lat="48.07505" lon="3.43636">
        <ele>144</ele>
        <time>2014-04-13T07:12:29Z</time>
      </trkpt>
      <trkpt lat="48.07506" lon="3.43632">
        <ele>143</ele>
        <time>2014-04-13T07:12:31Z</time>
      </trkpt>
      <trkpt lat="48.07507" lon="3.43623">
        <ele>142</ele>
        <time>2014-04-13T07:12:36Z</time>
      </trkpt>
      <trkpt lat="48.07508" lon="3.43618">
        <ele>142</ele>
        <time>2014-04-13T07:12:38Z</time>
      </trkpt>
      <trkpt lat="48.07509" lon="3.43614">
        <ele>142</ele>
        <time>2014-04-13T07:12:40Z</time>
      </trkpt>
      <trkpt lat="48.07509" lon="3.43611">
        <ele>141</ele>
        <time>2014-04-13T07:12:42Z</time>
      </trkpt>
      <trkpt lat="48.0751" lon="3.43608">
        <ele>143</ele>
        <time>2014-04-13T07:12:44Z</time>
      </trkpt>
      <trkpt lat="48.07511" lon="3.43601">
        <ele>143</ele>
        <time>2014-04-13T07:12:48Z</time>
      </trkpt>
      <trkpt lat="48.07513" lon="3.43595">
        <ele>142</ele>
        <time>2014-04-13T07:12:51Z</time>
      </trkpt>
      <trkpt lat="48.07514" lon="3.4359">
        <ele>143</ele>
        <time>2014-04-13T07:12:54Z</time>
      </trkpt>
      <trkpt lat="48.07515" lon="3.43587">
        <ele>143</ele>
        <time>2014-04-13T07:12:56Z</time>
      </trkpt>
      <trkpt lat="48.07526" lon="3.43552">
        <ele>137</ele>
        <time>2014-04-13T07:13:17Z</time>
      </trkpt>
      <trkpt lat="48.07529" lon="3.43539">
        <ele>134</ele>
        <time>2014-04-13T07:13:27Z</time>
      </trkpt>
      <trkpt lat="48.07532" lon="3.43529">
        <ele>138</ele>
        <time>2014-04-13T07:13:34Z</time>
      </trkpt>
      <trkpt lat="48.07534" lon="3.43519">
        <ele>138</ele>
        <time>2014-04-13T07:13:41Z</time>
      </trkpt>
      <trkpt lat="48.07535" lon="3.4351">
        <ele>136</ele>
        <time>2014-04-13T07:13:47Z</time>
      </trkpt>
      <trkpt lat="48.07537" lon="3.43497">
        <ele>139</ele>
        <time>2014-04-13T07:13:52Z</time>
      </trkpt>
      <trkpt lat="48.07539" lon="3.43488">
        <ele>143</ele>
        <time>2014-04-13T07:13:57Z</time>
      </trkpt>
      <trkpt lat="48.07539" lon="3.4348">
        <ele>144</ele>
        <time>2014-04-13T07:14:00Z</time>
      </trkpt>
      <trkpt lat="48.07539" lon="3.4347">
        <ele>142</ele>
        <time>2014-04-13T07:14:04Z</time>
      </trkpt>
      <trkpt lat="48.07539" lon="3.43448">
        <ele>150</ele>
        <time>2014-04-13T07:14:17Z</time>
      </trkpt>
      <trkpt lat="48.0754" lon="3.4344">
        <ele>155</ele>
        <time>2014-04-13T07:14:23Z</time>
      </trkpt>
      <trkpt lat="48.07541" lon="3.43432">
        <ele>157</ele>
        <time>2014-04-13T07:14:27Z</time>
      </trkpt>
      <trkpt lat="48.07548" lon="3.43412">
        <ele>163</ele>
        <time>2014-04-13T07:14:38Z</time>
      </trkpt>
      <trkpt lat="48.0755" lon="3.43408">
        <ele>161</ele>
        <time>2014-04-13T07:14:41Z</time>
      </trkpt>
      <trkpt lat="48.07552" lon="3.434">
        <ele>165</ele>
        <time>2014-04-13T07:14:45Z</time>
      </trkpt>
      <trkpt lat="48.07552" lon="3.43399">
        <ele>162</ele>
        <time>2014-04-13T07:14:47Z</time>
      </trkpt>
      <trkpt lat="48.07554" lon="3.43391">
        <ele>160</ele>
        <time>2014-04-13T07:14:51Z</time>
      </trkpt>
      <trkpt lat="48.07556" lon="3.43375">
        <ele>165</ele>
        <time>2014-04-13T07:14:59Z</time>
      </trkpt>
      <trkpt lat="48.07558" lon="3.4337">
        <ele>169</ele>
        <time>2014-04-13T07:15:03Z</time>
      </trkpt>
      <trkpt lat="48.07559" lon="3.43365">
        <ele>172</ele>
        <time>2014-04-13T07:15:04Z</time>
      </trkpt>
      <trkpt lat="48.07561" lon="3.43357">
        <ele>168</ele>
        <time>2014-04-13T07:15:09Z</time>
      </trkpt>
      <trkpt lat="48.07561" lon="3.43348">
        <ele>171</ele>
        <time>2014-04-13T07:15:15Z</time>
      </trkpt>
      <trkpt lat="48.07561" lon="3.43346">
        <ele>171</ele>
        <time>2014-04-13T07:15:16Z</time>
      </trkpt>
      <trkpt lat="48.07563" lon="3.43334">
        <ele>164</ele>
        <time>2014-04-13T07:15:25Z</time>
      </trkpt>
      <trkpt lat="48.07563" lon="3.43322">
        <ele>158</ele>
        <time>2014-04-13T07:15:31Z</time>
      </trkpt>
      <trkpt lat="48.07564" lon="3.4332">
        <ele>158</ele>
        <time>2014-04-13T07:15:32Z</time>
      </trkpt>
      <trkpt lat="48.07564" lon="3.43315">
        <ele>159</ele>
        <time>2014-04-13T07:15:36Z</time>
      </trkpt>
      <trkpt lat="48.07565" lon="3.43311">
        <ele>156</ele>
        <time>2014-04-13T07:15:39Z</time>
      </trkpt>
      <trkpt lat="48.07567" lon="3.43302">
        <ele>159</ele>
        <time>2014-04-13T07:15:43Z</time>
      </trkpt>
      <trkpt lat="48.07567" lon="3.43294">
        <ele>165</ele>
        <time>2014-04-13T07:15:47Z</time>
      </trkpt>
      <trkpt lat="48.07569" lon="3.43245">
        <ele>172</ele>
        <time>2014-04-13T07:16:15Z</time>
      </trkpt>
      <trkpt lat="48.07571" lon="3.43229">
        <ele>168</ele>
        <time>2014-04-13T07:16:24Z</time>
      </trkpt>
      <trkpt lat="48.07571" lon="3.43227">
        <ele>168</ele>
        <time>2014-04-13T07:16:25Z</time>
      </trkpt>
      <trkpt lat="48.07575" lon="3.43207">
        <ele>163</ele>
        <time>2014-04-13T07:16:39Z</time>
      </trkpt>
      <trkpt lat="48.07578" lon="3.43197">
        <ele>158</ele>
        <time>2014-04-13T07:16:45Z</time>
      </trkpt>
      <trkpt lat="48.07582" lon="3.43189">
        <ele>158</ele>
        <time>2014-04-13T07:16:51Z</time>
      </trkpt>
      <trkpt lat="48.07587" lon="3.43184">
        <ele>162</ele>
        <time>2014-04-13T07:16:55Z</time>
      </trkpt>
      <trkpt lat="48.07592" lon="3.43181">
        <ele>155</ele>
        <time>2014-04-13T07:16:59Z</time>
      </trkpt>
      <trkpt lat="48.07595" lon="3.43189">
        <ele>173</ele>
        <time>2014-04-13T07:17:13Z</time>
      </trkpt>
      <trkpt lat="48.07596" lon="3.432">
        <ele>180</ele>
        <time>2014-04-13T07:17:18Z</time>
      </trkpt>
      <trkpt lat="48.07597" lon="3.43214">
        <ele>188</ele>
        <time>2014-04-13T07:17:32Z</time>
      </trkpt>
      <trkpt lat="48.07595" lon="3.43221">
        <ele>199</ele>
        <time>2014-04-13T07:17:42Z</time>
      </trkpt>
      <trkpt lat="48.07591" lon="3.43233">
        <ele>193</ele>
        <time>2014-04-13T07:17:47Z</time>
      </trkpt>
      <trkpt lat="48.07593" lon="3.43243">
        <ele>188</ele>
        <time>2014-04-13T07:17:52Z</time>
      </trkpt>
      <trkpt lat="48.07596" lon="3.4325">
        <ele>188</ele>
        <time>2014-04-13T07:17:55Z</time>
      </trkpt>
      <trkpt lat="48.07598" lon="3.43258">
        <ele>193</ele>
        <time>2014-04-13T07:17:57Z</time>
      </trkpt>
      <trkpt lat="48.07603" lon="3.4327">
        <ele>189</ele>
        <time>2014-04-13T07:18:00Z</time>
      </trkpt>
      <trkpt lat="48.07604" lon="3.43278">
        <ele>193</ele>
        <time>2014-04-13T07:18:02Z</time>
      </trkpt>
      <trkpt lat="48.07606" lon="3.43289">
        <ele>189</ele>
        <time>2014-04-13T07:18:05Z</time>
      </trkpt>
      <trkpt lat="48.07609" lon="3.43296">
        <ele>182</ele>
        <time>2014-04-13T07:18:09Z</time>
      </trkpt>
      <trkpt lat="48.07621" lon="3.4332">
        <ele>191</ele>
        <time>2014-04-13T07:18:25Z</time>
      </trkpt>
      <trkpt lat="48.07625" lon="3.43331">
        <ele>184</ele>
        <time>2014-04-13T07:18:31Z</time>
      </trkpt>
      <trkpt lat="48.07626" lon="3.43341">
        <ele>182</ele>
        <time>2014-04-13T07:18:36Z</time>
      </trkpt>
      <trkpt lat="48.07628" lon="3.43352">
        <ele>186</ele>
        <time>2014-04-13T07:18:42Z</time>
      </trkpt>
      <trkpt lat="48.07632" lon="3.43355">
        <ele>184</ele>
        <time>2014-04-13T07:18:45Z</time>
      </trkpt>
      <trkpt lat="48.07636" lon="3.43364">
        <ele>187</ele>
        <time>2014-04-13T07:18:49Z</time>
      </trkpt>
      <trkpt lat="48.07636" lon="3.43372">
        <ele>182</ele>
        <time>2014-04-13T07:18:54Z</time>
      </trkpt>
      <trkpt lat="48.0764" lon="3.4338">
        <ele>189</ele>
        <time>2014-04-13T07:18:58Z</time>
      </trkpt>
      <trkpt lat="48.07643" lon="3.43393">
        <ele>191</ele>
        <time>2014-04-13T07:19:05Z</time>
      </trkpt>
      <trkpt lat="48.07647" lon="3.43413">
        <ele>194</ele>
        <time>2014-04-13T07:19:17Z</time>
      </trkpt>
      <trkpt lat="48.07644" lon="3.4342">
        <ele>190</ele>
        <time>2014-04-13T07:19:20Z</time>
      </trkpt>
      <trkpt lat="48.07639" lon="3.43427">
        <ele>194</ele>
        <time>2014-04-13T07:19:24Z</time>
      </trkpt>
      <trkpt lat="48.07636" lon="3.43433">
        <ele>201</ele>
        <time>2014-04-13T07:19:27Z</time>
      </trkpt>
      <trkpt lat="48.07634" lon="3.43441">
        <ele>200</ele>
        <time>2014-04-13T07:19:31Z</time>
      </trkpt>
      <trkpt lat="48.07633" lon="3.43451">
        <ele>204</ele>
        <time>2014-04-13T07:19:36Z</time>
      </trkpt>
      <trkpt lat="48.07634" lon="3.43458">
        <ele>206</ele>
        <time>2014-04-13T07:19:39Z</time>
      </trkpt>
      <trkpt lat="48.07636" lon="3.43469">
        <ele>208</ele>
        <time>2014-04-13T07:19:45Z</time>
      </trkpt>
      <trkpt lat="48.07637" lon="3.43477">
        <ele>207</ele>
        <time>2014-04-13T07:19:49Z</time>
      </trkpt>
      <trkpt lat="48.07637" lon="3.4349">
        <ele>207</ele>
        <time>2014-04-13T07:19:56Z</time>
      </trkpt>
      <trkpt lat="48.07637" lon="3.43497">
        <ele>200</ele>
        <time>2014-04-13T07:20:01Z</time>
      </trkpt>
      <trkpt lat="48.07635" lon="3.43505">
        <ele>203</ele>
        <time>2014-04-13T07:20:07Z</time>
      </trkpt>
      <trkpt lat="48.07635" lon="3.43513">
        <ele>199</ele>
        <time>2014-04-13T07:20:11Z</time>
      </trkpt>
      <trkpt lat="48.07638" lon="3.43527">
        <ele>196</ele>
        <time>2014-04-13T07:20:24Z</time>
      </trkpt>
      <trkpt lat="48.07642" lon="3.43534">
        <ele>189</ele>
        <time>2014-04-13T07:20:26Z</time>
      </trkpt>
      <trkpt lat="48.07642" lon="3.43542">
        <ele>187</ele>
        <time>2014-04-13T07:20:30Z</time>
      </trkpt>
      <trkpt lat="48.0764" lon="3.43556">
        <ele>184</ele>
        <time>2014-04-13T07:20:38Z</time>
      </trkpt>
      <trkpt lat="48.0764" lon="3.43568">
        <ele>184</ele>
        <time>2014-04-13T07:20:45Z</time>
      </trkpt>
      <trkpt lat="48.07643" lon="3.43582">
        <ele>190</ele>
        <time>2014-04-13T07:20:55Z</time>
      </trkpt>
      <trkpt lat="48.07645" lon="3.43592">
        <ele>195</ele>
        <time>2014-04-13T07:21:02Z</time>
      </trkpt>
      <trkpt lat="48.07647" lon="3.43612">
        <ele>193</ele>
        <time>2014-04-13T07:21:14Z</time>
      </trkpt>
      <trkpt lat="48.07646" lon="3.43619">
        <ele>195</ele>
        <time>2014-04-13T07:21:18Z</time>
      </trkpt>
      <trkpt lat="48.07649" lon="3.43629">
        <ele>199</ele>
        <time>2014-04-13T07:21:23Z</time>
      </trkpt>
      <trkpt lat="48.0765" lon="3.43637">
        <ele>195</ele>
        <time>2014-04-13T07:21:29Z</time>
      </trkpt>
      <trkpt lat="48.07651" lon="3.43647">
        <ele>200</ele>
        <time>2014-04-13T07:21:32Z</time>
      </trkpt>
      <trkpt lat="48.07655" lon="3.43656">
        <ele>201</ele>
        <time>2014-04-13T07:21:39Z</time>
      </trkpt>
      <trkpt lat="48.07654" lon="3.43664">
        <ele>196</ele>
        <time>2014-04-13T07:21:44Z</time>
      </trkpt>
      <trkpt lat="48.07659" lon="3.43667">
        <ele>202</ele>
        <time>2014-04-13T07:21:47Z</time>
      </trkpt>
      <trkpt lat="48.07663" lon="3.43673">
        <ele>200</ele>
        <time>2014-04-13T07:21:51Z</time>
      </trkpt>
      <trkpt lat="48.07663" lon="3.43682">
        <ele>201</ele>
        <time>2014-04-13T07:21:57Z</time>
      </trkpt>
      <trkpt lat="48.07661" lon="3.4369">
        <ele>202</ele>
        <time>2014-04-13T07:22:00Z</time>
      </trkpt>
      <trkpt lat="48.07657" lon="3.43697">
        <ele>205</ele>
        <time>2014-04-13T07:22:03Z</time>
      </trkpt>
      <trkpt lat="48.07658" lon="3.43707">
        <ele>202</ele>
        <time>2014-04-13T07:22:09Z</time>
      </trkpt>
      <trkpt lat="48.07662" lon="3.43716">
        <ele>201</ele>
        <time>2014-04-13T07:22:14Z</time>
      </trkpt>
      <trkpt lat="48.07662" lon="3.43727">
        <ele>202</ele>
        <time>2014-04-13T07:22:21Z</time>
      </trkpt>
      <trkpt lat="48.07659" lon="3.43734">
        <ele>198</ele>
        <time>2014-04-13T07:22:25Z</time>
      </trkpt>
      <trkpt lat="48.07661" lon="3.43741">
        <ele>201</ele>
        <time>2014-04-13T07:22:29Z</time>
      </trkpt>
      <trkpt lat="48.07663" lon="3.43749">
        <ele>202</ele>
        <time>2014-04-13T07:22:34Z</time>
      </trkpt>
      <trkpt lat="48.07666" lon="3.43755">
        <ele>198</ele>
        <time>2014-04-13T07:22:38Z</time>
      </trkpt>
      <trkpt lat="48.07666" lon="3.43764">
        <ele>197</ele>
        <time>2014-04-13T07:22:47Z</time>
      </trkpt>
      <trkpt lat="48.07669" lon="3.43774">
        <ele>205</ele>
        <time>2014-04-13T07:22:52Z</time>
      </trkpt>
      <trkpt lat="48.07678" lon="3.43799">
        <ele>196</ele>
        <time>2014-04-13T07:23:06Z</time>
      </trkpt>
      <trkpt lat="48.07684" lon="3.43809">
        <ele>205</ele>
        <time>2014-04-13T07:23:15Z</time>
      </trkpt>
      <trkpt lat="48.07685" lon="3.43817">
        <ele>206</ele>
        <time>2014-04-13T07:23:19Z</time>
      </trkpt>
      <trkpt lat="48.07688" lon="3.43826">
        <ele>209</ele>
        <time>2014-04-13T07:23:25Z</time>
      </trkpt>
      <trkpt lat="48.07688" lon="3.43837">
        <ele>202</ele>
        <time>2014-04-13T07:23:37Z</time>
      </trkpt>
      <trkpt lat="48.07691" lon="3.43844">
        <ele>203</ele>
        <time>2014-04-13T07:23:40Z</time>
      </trkpt>
      <trkpt lat="48.07689" lon="3.43851">
        <ele>202</ele>
        <time>2014-04-13T07:23:47Z</time>
      </trkpt>
      <trkpt lat="48.07692" lon="3.43858">
        <ele>205</ele>
        <time>2014-04-13T07:23:51Z</time>
      </trkpt>
      <trkpt lat="48.07702" lon="3.43876">
        <ele>207</ele>
        <time>2014-04-13T07:24:03Z</time>
      </trkpt>
      <trkpt lat="48.07704" lon="3.43883">
        <ele>206</ele>
        <time>2014-04-13T07:24:09Z</time>
      </trkpt>
      <trkpt lat="48.07706" lon="3.43891">
        <ele>211</ele>
        <time>2014-04-13T07:24:16Z</time>
      </trkpt>
      <trkpt lat="48.0771" lon="3.43899">
        <ele>208</ele>
        <time>2014-04-13T07:24:20Z</time>
      </trkpt>
      <trkpt lat="48.07713" lon="3.43911">
        <ele>216</ele>
        <time>2014-04-13T07:24:28Z</time>
      </trkpt>
      <trkpt lat="48.07718" lon="3.4392">
        <ele>220</ele>
        <time>2014-04-13T07:24:35Z</time>
      </trkpt>
      <trkpt lat="48.07722" lon="3.43927">
        <ele>213</ele>
        <time>2014-04-13T07:24:46Z</time>
      </trkpt>
      <trkpt lat="48.07731" lon="3.43936">
        <ele>224</ele>
        <time>2014-04-13T07:24:54Z</time>
      </trkpt>
      <trkpt lat="48.07736" lon="3.43944">
        <ele>213</ele>
        <time>2014-04-13T07:24:59Z</time>
      </trkpt>
      <trkpt lat="48.07742" lon="3.43954">
        <ele>215</ele>
        <time>2014-04-13T07:25:03Z</time>
      </trkpt>
      <trkpt lat="48.07756" lon="3.43977">
        <ele>220</ele>
        <time>2014-04-13T07:25:22Z</time>
      </trkpt>
      <trkpt lat="48.07759" lon="3.43986">
        <ele>209</ele>
        <time>2014-04-13T07:25:29Z</time>
      </trkpt>
      <trkpt lat="48.07764" lon="3.43995">
        <ele>205</ele>
        <time>2014-04-13T07:25:34Z</time>
      </trkpt>
      <trkpt lat="48.07766" lon="3.44003">
        <ele>205</ele>
        <time>2014-04-13T07:25:40Z</time>
      </trkpt>
      <trkpt lat="48.07768" lon="3.4401">
        <ele>200</ele>
        <time>2014-04-13T07:25:46Z</time>
      </trkpt>
      <trkpt lat="48.07771" lon="3.44017">
        <ele>199</ele>
        <time>2014-04-13T07:25:49Z</time>
      </trkpt>
      <trkpt lat="48.07772" lon="3.44025">
        <ele>207</ele>
        <time>2014-04-13T07:25:55Z</time>
      </trkpt>
      <trkpt lat="48.07772" lon="3.44035">
        <ele>206</ele>
        <time>2014-04-13T07:26:16Z</time>
      </trkpt>
      <trkpt lat="48.07774" lon="3.44046">
        <ele>208</ele>
        <time>2014-04-13T07:26:21Z</time>
      </trkpt>
      <trkpt lat="48.0778" lon="3.44051">
        <ele>203</ele>
        <time>2014-04-13T07:26:28Z</time>
      </trkpt>
      <trkpt lat="48.07791" lon="3.44064">
        <ele>219</ele>
        <time>2014-04-13T07:26:38Z</time>
      </trkpt>
      <trkpt lat="48.07793" lon="3.44072">
        <ele>216</ele>
        <time>2014-04-13T07:26:46Z</time>
      </trkpt>
      <trkpt lat="48.07799" lon="3.44087">
        <ele>211</ele>
        <time>2014-04-13T07:26:55Z</time>
      </trkpt>
      <trkpt lat="48.07802" lon="3.44094">
        <ele>210</ele>
        <time>2014-04-13T07:27:01Z</time>
      </trkpt>
      <trkpt lat="48.07806" lon="3.44098">
        <ele>217</ele>
        <time>2014-04-13T07:27:15Z</time>
      </trkpt>
      <trkpt lat="48.07813" lon="3.44096">
        <ele>219</ele>
        <time>2014-04-13T07:27:24Z</time>
      </trkpt>
      <trkpt lat="48.07825" lon="3.44093">
        <ele>216</ele>
        <time>2014-04-13T07:27:32Z</time>
      </trkpt>
      <trkpt lat="48.07843" lon="3.44089">
        <ele>213</ele>
        <time>2014-04-13T07:27:44Z</time>
      </trkpt>
      <trkpt lat="48.07849" lon="3.44089">
        <ele>215</ele>
        <time>2014-04-13T07:27:49Z</time>
      </trkpt>
      <trkpt lat="48.07858" lon="3.44089">
        <ele>217</ele>
        <time>2014-04-13T07:27:57Z</time>
      </trkpt>
      <trkpt lat="48.07864" lon="3.4409">
        <ele>216</ele>
        <time>2014-04-13T07:28:01Z</time>
      </trkpt>
      <trkpt lat="48.07869" lon="3.44089">
        <ele>212</ele>
        <time>2014-04-13T07:28:07Z</time>
      </trkpt>
      <trkpt lat="48.07875" lon="3.4409">
        <ele>218</ele>
        <time>2014-04-13T07:28:12Z</time>
      </trkpt>
      <trkpt lat="48.07891" lon="3.44091">
        <ele>215</ele>
        <time>2014-04-13T07:28:24Z</time>
      </trkpt>
      <trkpt lat="48.07908" lon="3.44092">
        <ele>215</ele>
        <time>2014-04-13T07:28:39Z</time>
      </trkpt>
      <trkpt lat="48.07913" lon="3.44092">
        <ele>214</ele>
        <time>2014-04-13T07:28:44Z</time>
      </trkpt>
      <trkpt lat="48.07915" lon="3.44092">
        <ele>216</ele>
        <time>2014-04-13T07:28:46Z</time>
      </trkpt>
      <trkpt lat="48.07918" lon="3.44091">
        <ele>220</ele>
        <time>2014-04-13T07:28:49Z</time>
      </trkpt>
      <trkpt lat="48.07927" lon="3.44088">
        <ele>219</ele>
        <time>2014-04-13T07:28:58Z</time>
      </trkpt>
      <trkpt lat="48.0793" lon="3.44086">
        <ele>219</ele>
        <time>2014-04-13T07:29:00Z</time>
      </trkpt>
      <trkpt lat="48.07933" lon="3.44085">
        <ele>219</ele>
        <time>2014-04-13T07:29:02Z</time>
      </trkpt>
      <trkpt lat="48.07941" lon="3.44085">
        <ele>217</ele>
        <time>2014-04-13T07:29:08Z</time>
      </trkpt>
      <trkpt lat="48.07944" lon="3.44085">
        <ele>218</ele>
        <time>2014-04-13T07:29:10Z</time>
      </trkpt>
      <trkpt lat="48.07947" lon="3.44085">
        <ele>217</ele>
        <time>2014-04-13T07:29:13Z</time>
      </trkpt>
      <trkpt lat="48.0795" lon="3.44084">
        <ele>217</ele>
        <time>2014-04-13T07:29:16Z</time>
      </trkpt>
      <trkpt lat="48.07952" lon="3.44083">
        <ele>217</ele>
        <time>2014-04-13T07:29:18Z</time>
      </trkpt>
      <trkpt lat="48.07955" lon="3.44082">
        <ele>217</ele>
        <time>2014-04-13T07:29:21Z</time>
      </trkpt>
      <trkpt lat="48.07958" lon="3.44081">
        <ele>217</ele>
        <time>2014-04-13T07:29:24Z</time>
      </trkpt>
      <trkpt lat="48.07962" lon="3.4408">
        <ele>217</ele>
        <time>2014-04-13T07:29:27Z</time>
      </trkpt>
      <trkpt lat="48.07965" lon="3.4408">
        <ele>217</ele>
        <time>2014-04-13T07:29:30Z</time>
      </trkpt>
      <trkpt lat="48.07968" lon="3.4408">
        <ele>215</ele>
        <time>2014-04-13T07:29:32Z</time>
      </trkpt>
      <trkpt lat="48.07972" lon="3.4408">
        <ele>213</ele>
        <time>2014-04-13T07:29:35Z</time>
      </trkpt>
      <trkpt lat="48.07975" lon="3.44079">
        <ele>217</ele>
        <time>2014-04-13T07:29:38Z</time>
      </trkpt>
      <trkpt lat="48.07983" lon="3.44078">
        <ele>216</ele>
        <time>2014-04-13T07:29:44Z</time>
      </trkpt>
      <trkpt lat="48.07985" lon="3.44078">
        <ele>215</ele>
        <time>2014-04-13T07:29:46Z</time>
      </trkpt>
      <trkpt lat="48.07987" lon="3.44077">
        <ele>216</ele>
        <time>2014-04-13T07:29:48Z</time>
      </trkpt>
      <trkpt lat="48.07991" lon="3.44075">
        <ele>216</ele>
        <time>2014-04-13T07:29:51Z</time>
      </trkpt>
      <trkpt lat="48.07993" lon="3.44075">
        <ele>216</ele>
        <time>2014-04-13T07:29:53Z</time>
      </trkpt>
      <trkpt lat="48.08003" lon="3.44073">
        <ele>218</ele>
        <time>2014-04-13T07:30:01Z</time>
      </trkpt>
      <trkpt lat="48.08005" lon="3.44072">
        <ele>218</ele>
        <time>2014-04-13T07:30:03Z</time>
      </trkpt>
      <trkpt lat="48.08015" lon="3.44069">
        <ele>216</ele>
        <time>2014-04-13T07:30:10Z</time>
      </trkpt>
      <trkpt lat="48.08018" lon="3.44067">
        <ele>218</ele>
        <time>2014-04-13T07:30:12Z</time>
      </trkpt>
      <trkpt lat="48.0802" lon="3.44064">
        <ele>219</ele>
        <time>2014-04-13T07:30:15Z</time>
      </trkpt>
      <trkpt lat="48.08021" lon="3.44061">
        <ele>218</ele>
        <time>2014-04-13T07:30:20Z</time>
      </trkpt>
      <trkpt lat="48.0802" lon="3.44056">
        <ele>216</ele>
        <time>2014-04-13T07:30:23Z</time>
      </trkpt>
      <trkpt lat="48.08019" lon="3.44052">
        <ele>217</ele>
        <time>2014-04-13T07:30:25Z</time>
      </trkpt>
      <trkpt lat="48.08018" lon="3.44048">
        <ele>217</ele>
        <time>2014-04-13T07:30:27Z</time>
      </trkpt>
      <trkpt lat="48.08016" lon="3.44042">
        <ele>217</ele>
        <time>2014-04-13T07:30:30Z</time>
      </trkpt>
      <trkpt lat="48.08015" lon="3.44038">
        <ele>216</ele>
        <time>2014-04-13T07:30:32Z</time>
      </trkpt>
      <trkpt lat="48.0801" lon="3.44024">
        <ele>215</ele>
        <time>2014-04-13T07:30:41Z</time>
      </trkpt>
      <trkpt lat="48.08008" lon="3.44021">
        <ele>212</ele>
        <time>2014-04-13T07:30:47Z</time>
      </trkpt>
      <trkpt lat="48.08006" lon="3.44016">
        <ele>212</ele>
        <time>2014-04-13T07:30:50Z</time>
      </trkpt>
      <trkpt lat="48.08002" lon="3.44003">
        <ele>214</ele>
        <time>2014-04-13T07:30:58Z</time>
      </trkpt>
      <trkpt lat="48.07999" lon="3.43996">
        <ele>214</ele>
        <time>2014-04-13T07:31:01Z</time>
      </trkpt>
      <trkpt lat="48.07997" lon="3.43989">
        <ele>213</ele>
        <time>2014-04-13T07:31:06Z</time>
      </trkpt>
      <trkpt lat="48.07995" lon="3.43982">
        <ele>217</ele>
        <time>2014-04-13T07:31:10Z</time>
      </trkpt>
      <trkpt lat="48.07994" lon="3.43979">
        <ele>218</ele>
        <time>2014-04-13T07:31:12Z</time>
      </trkpt>
      <trkpt lat="48.07989" lon="3.43965">
        <ele>215</ele>
        <time>2014-04-13T07:31:19Z</time>
      </trkpt>
      <trkpt lat="48.07987" lon="3.43962">
        <ele>217</ele>
        <time>2014-04-13T07:31:22Z</time>
      </trkpt>
      <trkpt lat="48.07984" lon="3.43955">
        <ele>216</ele>
        <time>2014-04-13T07:31:27Z</time>
      </trkpt>
      <trkpt lat="48.07983" lon="3.43951">
        <ele>216</ele>
        <time>2014-04-13T07:31:30Z</time>
      </trkpt>
      <trkpt lat="48.07982" lon="3.43948">
        <ele>215</ele>
        <time>2014-04-13T07:31:33Z</time>
      </trkpt>
      <trkpt lat="48.07982" lon="3.43944">
        <ele>215</ele>
        <time>2014-04-13T07:31:36Z</time>
      </trkpt>
      <trkpt lat="48.07981" lon="3.43939">
        <ele>214</ele>
        <time>2014-04-13T07:31:39Z</time>
      </trkpt>
      <trkpt lat="48.07977" lon="3.43925">
        <ele>212</ele>
        <time>2014-04-13T07:31:48Z</time>
      </trkpt>
      <trkpt lat="48.07976" lon="3.43921">
        <ele>213</ele>
        <time>2014-04-13T07:31:51Z</time>
      </trkpt>
      <trkpt lat="48.07975" lon="3.43916">
        <ele>213</ele>
        <time>2014-04-13T07:31:54Z</time>
      </trkpt>
      <trkpt lat="48.07968" lon="3.43888">
        <ele>212</ele>
        <time>2014-04-13T07:32:11Z</time>
      </trkpt>
      <trkpt lat="48.07964" lon="3.43876">
        <ele>213</ele>
        <time>2014-04-13T07:32:21Z</time>
      </trkpt>
      <trkpt lat="48.07963" lon="3.43872">
        <ele>212</ele>
        <time>2014-04-13T07:32:23Z</time>
      </trkpt>
      <trkpt lat="48.07959" lon="3.43865">
        <ele>212</ele>
        <time>2014-04-13T07:32:27Z</time>
      </trkpt>
      <trkpt lat="48.07954" lon="3.43851">
        <ele>212</ele>
        <time>2014-04-13T07:32:35Z</time>
      </trkpt>
      <trkpt lat="48.07953" lon="3.43848">
        <ele>213</ele>
        <time>2014-04-13T07:32:37Z</time>
      </trkpt>
      <trkpt lat="48.07953" lon="3.43843">
        <ele>213</ele>
        <time>2014-04-13T07:32:41Z</time>
      </trkpt>
      <trkpt lat="48.07952" lon="3.43838">
        <ele>212</ele>
        <time>2014-04-13T07:32:44Z</time>
      </trkpt>
      <trkpt lat="48.07949" lon="3.43823">
        <ele>212</ele>
        <time>2014-04-13T07:32:53Z</time>
      </trkpt>
      <trkpt lat="48.07948" lon="3.43818">
        <ele>212</ele>
        <time>2014-04-13T07:32:56Z</time>
      </trkpt>
      <trkpt lat="48.07947" lon="3.43814">
        <ele>212</ele>
        <time>2014-04-13T07:32:59Z</time>
      </trkpt>
      <trkpt lat="48.07945" lon="3.4381">
        <ele>212</ele>
        <time>2014-04-13T07:33:02Z</time>
      </trkpt>
      <trkpt lat="48.07943" lon="3.43801">
        <ele>212</ele>
        <time>2014-04-13T07:33:08Z</time>
      </trkpt>
      <trkpt lat="48.07941" lon="3.43793">
        <ele>213</ele>
        <time>2014-04-13T07:33:13Z</time>
      </trkpt>
      <trkpt lat="48.07941" lon="3.43789">
        <ele>211</ele>
        <time>2014-04-13T07:33:15Z</time>
      </trkpt>
      <trkpt lat="48.0794" lon="3.43785">
        <ele>211</ele>
        <time>2014-04-13T07:33:18Z</time>
      </trkpt>
      <trkpt lat="48.07936" lon="3.43771">
        <ele>212</ele>
        <time>2014-04-13T07:33:27Z</time>
      </trkpt>
      <trkpt lat="48.07934" lon="3.43767">
        <ele>208</ele>
        <time>2014-04-13T07:33:30Z</time>
      </trkpt>
      <trkpt lat="48.07932" lon="3.43763">
        <ele>210</ele>
        <time>2014-04-13T07:33:33Z</time>
      </trkpt>
      <trkpt lat="48.07931" lon="3.43759">
        <ele>212</ele>
        <time>2014-04-13T07:33:35Z</time>
      </trkpt>
      <trkpt lat="48.07925" lon="3.43747">
        <ele>210</ele>
        <time>2014-04-13T07:33:45Z</time>
      </trkpt>
      <trkpt lat="48.07923" lon="3.43742">
        <ele>213</ele>
        <time>2014-04-13T07:33:49Z</time>
      </trkpt>
      <trkpt lat="48.07916" lon="3.43723">
        <ele>202</ele>
        <time>2014-04-13T07:34:02Z</time>
      </trkpt>
      <trkpt lat="48.07915" lon="3.43715">
        <ele>205</ele>
        <time>2014-04-13T07:34:08Z</time>
      </trkpt>
      <trkpt lat="48.07904" lon="3.43663">
        <ele>207</ele>
        <time>2014-04-13T07:34:35Z</time>
      </trkpt>
      <trkpt lat="48.07903" lon="3.43658">
        <ele>215</ele>
        <time>2014-04-13T07:34:37Z</time>
      </trkpt>
      <trkpt lat="48.07901" lon="3.4365">
        <ele>209</ele>
        <time>2014-04-13T07:34:41Z</time>
      </trkpt>
      <trkpt lat="48.07899" lon="3.43633">
        <ele>212</ele>
        <time>2014-04-13T07:34:52Z</time>
      </trkpt>
      <trkpt lat="48.07897" lon="3.43625">
        <ele>216</ele>
        <time>2014-04-13T07:34:57Z</time>
      </trkpt>
      <trkpt lat="48.07896" lon="3.43618">
        <ele>212</ele>
        <time>2014-04-13T07:35:01Z</time>
      </trkpt>
      <trkpt lat="48.07893" lon="3.43605">
        <ele>212</ele>
        <time>2014-04-13T07:35:09Z</time>
      </trkpt>
      <trkpt lat="48.07891" lon="3.43595">
        <ele>210</ele>
        <time>2014-04-13T07:35:15Z</time>
      </trkpt>
      <trkpt lat="48.07887" lon="3.43576">
        <ele>209</ele>
        <time>2014-04-13T07:35:26Z</time>
      </trkpt>
      <trkpt lat="48.07887" lon="3.43571">
        <ele>213</ele>
        <time>2014-04-13T07:35:29Z</time>
      </trkpt>
      <trkpt lat="48.07886" lon="3.43567">
        <ele>214</ele>
        <time>2014-04-13T07:35:31Z</time>
      </trkpt>
      <trkpt lat="48.07884" lon="3.43558">
        <ele>213</ele>
        <time>2014-04-13T07:35:39Z</time>
      </trkpt>
      <trkpt lat="48.07883" lon="3.43554">
        <ele>207</ele>
        <time>2014-04-13T07:35:42Z</time>
      </trkpt>
      <trkpt lat="48.07882" lon="3.43548">
        <ele>205</ele>
        <time>2014-04-13T07:36:15Z</time>
      </trkpt>
      <trkpt lat="48.07877" lon="3.43548">
        <ele>207</ele>
        <time>2014-04-13T07:36:28Z</time>
      </trkpt>
      <trkpt lat="48.07872" lon="3.43544">
        <ele>211</ele>
        <time>2014-04-13T07:36:33Z</time>
      </trkpt>
      <trkpt lat="48.07874" lon="3.43539">
        <ele>209</ele>
        <time>2014-04-13T07:36:53Z</time>
      </trkpt>
      <trkpt lat="48.07876" lon="3.43532">
        <ele>212</ele>
        <time>2014-04-13T07:37:20Z</time>
      </trkpt>
      <trkpt lat="48.07877" lon="3.43528">
        <ele>209</ele>
        <time>2014-04-13T07:37:23Z</time>
      </trkpt>
      <trkpt lat="48.07877" lon="3.43521">
        <ele>212</ele>
        <time>2014-04-13T07:37:32Z</time>
      </trkpt>
      <trkpt lat="48.07877" lon="3.43519">
        <ele>214</ele>
        <time>2014-04-13T07:37:33Z</time>
      </trkpt>
      <trkpt lat="48.07875" lon="3.4351">
        <ele>214</ele>
        <time>2014-04-13T07:37:38Z</time>
      </trkpt>
      <trkpt lat="48.07875" lon="3.43504">
        <ele>212</ele>
        <time>2014-04-13T07:37:41Z</time>
      </trkpt>
      <trkpt lat="48.07875" lon="3.435">
        <ele>214</ele>
        <time>2014-04-13T07:37:44Z</time>
      </trkpt>
      <trkpt lat="48.07876" lon="3.43495">
        <ele>213</ele>
        <time>2014-04-13T07:37:47Z</time>
      </trkpt>
      <trkpt lat="48.07875" lon="3.43492">
        <ele>213</ele>
        <time>2014-04-13T07:37:49Z</time>
      </trkpt>
      <trkpt lat="48.07874" lon="3.43486">
        <ele>211</ele>
        <time>2014-04-13T07:37:54Z</time>
      </trkpt>
      <trkpt lat="48.07873" lon="3.43475">
        <ele>207</ele>
        <time>2014-04-13T07:38:03Z</time>
      </trkpt>
      <trkpt lat="48.07871" lon="3.4347">
        <ele>207</ele>
        <time>2014-04-13T07:38:06Z</time>
      </trkpt>
      <trkpt lat="48.0787" lon="3.43465">
        <ele>209</ele>
        <time>2014-04-13T07:38:09Z</time>
      </trkpt>
      <trkpt lat="48.07869" lon="3.43457">
        <ele>205</ele>
        <time>2014-04-13T07:38:14Z</time>
      </trkpt>
      <trkpt lat="48.07866" lon="3.43447">
        <ele>205</ele>
        <time>2014-04-13T07:38:20Z</time>
      </trkpt>
      <trkpt lat="48.07866" lon="3.43444">
        <ele>205</ele>
        <time>2014-04-13T07:38:23Z</time>
      </trkpt>
      <trkpt lat="48.07865" lon="3.43435">
        <ele>203</ele>
        <time>2014-04-13T07:38:27Z</time>
      </trkpt>
      <trkpt lat="48.07863" lon="3.43428">
        <ele>201</ele>
        <time>2014-04-13T07:38:32Z</time>
      </trkpt>
      <trkpt lat="48.07862" lon="3.4342">
        <ele>196</ele>
        <time>2014-04-13T07:38:36Z</time>
      </trkpt>
      <trkpt lat="48.07859" lon="3.43413">
        <ele>195</ele>
        <time>2014-04-13T07:38:40Z</time>
      </trkpt>
      <trkpt lat="48.07854" lon="3.43391">
        <ele>203</ele>
        <time>2014-04-13T07:38:54Z</time>
      </trkpt>
      <trkpt lat="48.07852" lon="3.43379">
        <ele>208</ele>
        <time>2014-04-13T07:39:00Z</time>
      </trkpt>
      <trkpt lat="48.07847" lon="3.43332">
        <ele>206</ele>
        <time>2014-04-13T07:39:27Z</time>
      </trkpt>
      <trkpt lat="48.07847" lon="3.43324">
        <ele>213</ele>
        <time>2014-04-13T07:39:32Z</time>
      </trkpt>
      <trkpt lat="48.07847" lon="3.43315">
        <ele>207</ele>
        <time>2014-04-13T07:39:37Z</time>
      </trkpt>
      <trkpt lat="48.07848" lon="3.43306">
        <ele>208</ele>
        <time>2014-04-13T07:39:41Z</time>
      </trkpt>
      <trkpt lat="48.07847" lon="3.43299">
        <ele>207</ele>
        <time>2014-04-13T07:39:45Z</time>
      </trkpt>
      <trkpt lat="48.07847" lon="3.43291">
        <ele>207</ele>
        <time>2014-04-13T07:39:50Z</time>
      </trkpt>
      <trkpt lat="48.07845" lon="3.43261">
        <ele>211</ele>
        <time>2014-04-13T07:40:10Z</time>
      </trkpt>
      <trkpt lat="48.07844" lon="3.43254">
        <ele>210</ele>
        <time>2014-04-13T07:40:14Z</time>
      </trkpt>
      <trkpt lat="48.07843" lon="3.43245">
        <ele>209</ele>
        <time>2014-04-13T07:40:19Z</time>
      </trkpt>
      <trkpt lat="48.0784" lon="3.43233">
        <ele>207</ele>
        <time>2014-04-13T07:40:24Z</time>
      </trkpt>
      <trkpt lat="48.07839" lon="3.43224">
        <ele>208</ele>
        <time>2014-04-13T07:40:28Z</time>
      </trkpt>
      <trkpt lat="48.07839" lon="3.43211">
        <ele>210</ele>
        <time>2014-04-13T07:40:34Z</time>
      </trkpt>
      <trkpt lat="48.07842" lon="3.43187">
        <ele>212</ele>
        <time>2014-04-13T07:40:50Z</time>
      </trkpt>
      <trkpt lat="48.07844" lon="3.43177">
        <ele>211</ele>
        <time>2014-04-13T07:40:56Z</time>
      </trkpt>
      <trkpt lat="48.07843" lon="3.43169">
        <ele>205</ele>
        <time>2014-04-13T07:41:01Z</time>
      </trkpt>
      <trkpt lat="48.07842" lon="3.4316">
        <ele>211</ele>
        <time>2014-04-13T07:41:05Z</time>
      </trkpt>
      <trkpt lat="48.07839" lon="3.43144">
        <ele>203</ele>
        <time>2014-04-13T07:41:14Z</time>
      </trkpt>
      <trkpt lat="48.0784" lon="3.43136">
        <ele>207</ele>
        <time>2014-04-13T07:41:19Z</time>
      </trkpt>
      <trkpt lat="48.0784" lon="3.43128">
        <ele>204</ele>
        <time>2014-04-13T07:41:25Z</time>
      </trkpt>
      <trkpt lat="48.07839" lon="3.43118">
        <ele>199</ele>
        <time>2014-04-13T07:41:31Z</time>
      </trkpt>
      <trkpt lat="48.0784" lon="3.4311">
        <ele>202</ele>
        <time>2014-04-13T07:41:35Z</time>
      </trkpt>
      <trkpt lat="48.0784" lon="3.43102">
        <ele>207</ele>
        <time>2014-04-13T07:41:39Z</time>
      </trkpt>
      <trkpt lat="48.07839" lon="3.43088">
        <ele>208</ele>
        <time>2014-04-13T07:41:46Z</time>
      </trkpt>
      <trkpt lat="48.07836" lon="3.43081">
        <ele>204</ele>
        <time>2014-04-13T07:41:49Z</time>
      </trkpt>
      <trkpt lat="48.07837" lon="3.43073">
        <ele>205</ele>
        <time>2014-04-13T07:41:55Z</time>
      </trkpt>
      <trkpt lat="48.07836" lon="3.43066">
        <ele>206</ele>
        <time>2014-04-13T07:42:01Z</time>
      </trkpt>
      <trkpt lat="48.07834" lon="3.43053">
        <ele>207</ele>
        <time>2014-04-13T07:42:07Z</time>
      </trkpt>
      <trkpt lat="48.07832" lon="3.43044">
        <ele>205</ele>
        <time>2014-04-13T07:42:11Z</time>
      </trkpt>
      <trkpt lat="48.07831" lon="3.43035">
        <ele>202</ele>
        <time>2014-04-13T07:42:15Z</time>
      </trkpt>
      <trkpt lat="48.07831" lon="3.43027">
        <ele>205</ele>
        <time>2014-04-13T07:42:20Z</time>
      </trkpt>
      <trkpt lat="48.07829" lon="3.43007">
        <ele>201</ele>
        <time>2014-04-13T07:42:33Z</time>
      </trkpt>
      <trkpt lat="48.07827" lon="3.42995">
        <ele>202</ele>
        <time>2014-04-13T07:42:40Z</time>
      </trkpt>
      <trkpt lat="48.07826" lon="3.42987">
        <ele>204</ele>
        <time>2014-04-13T07:42:44Z</time>
      </trkpt>
      <trkpt lat="48.07824" lon="3.42978">
        <ele>211</ele>
        <time>2014-04-13T07:42:48Z</time>
      </trkpt>
      <trkpt lat="48.07824" lon="3.4297">
        <ele>200</ele>
        <time>2014-04-13T07:42:55Z</time>
      </trkpt>
      <trkpt lat="48.07822" lon="3.42963">
        <ele>204</ele>
        <time>2014-04-13T07:42:58Z</time>
      </trkpt>
      <trkpt lat="48.07822" lon="3.42955">
        <ele>209</ele>
        <time>2014-04-13T07:43:02Z</time>
      </trkpt>
      <trkpt lat="48.0782" lon="3.42947">
        <ele>207</ele>
        <time>2014-04-13T07:43:07Z</time>
      </trkpt>
      <trkpt lat="48.07821" lon="3.42938">
        <ele>204</ele>
        <time>2014-04-13T07:43:11Z</time>
      </trkpt>
      <trkpt lat="48.07821" lon="3.42935">
        <ele>207</ele>
        <time>2014-04-13T07:43:13Z</time>
      </trkpt>
      <trkpt lat="48.07823" lon="3.42921">
        <ele>207</ele>
        <time>2014-04-13T07:43:24Z</time>
      </trkpt>
      <trkpt lat="48.07827" lon="3.42897">
        <ele>204</ele>
        <time>2014-04-13T07:43:41Z</time>
      </trkpt>
      <trkpt lat="48.07831" lon="3.42891">
        <ele>204</ele>
        <time>2014-04-13T07:43:45Z</time>
      </trkpt>
      <trkpt lat="48.07841" lon="3.42872">
        <ele>202</ele>
        <time>2014-04-13T07:43:58Z</time>
      </trkpt>
      <trkpt lat="48.07845" lon="3.42864">
        <ele>207</ele>
        <time>2014-04-13T07:44:03Z</time>
      </trkpt>
      <trkpt lat="48.07848" lon="3.42852">
        <ele>205</ele>
        <time>2014-04-13T07:44:11Z</time>
      </trkpt>
      <trkpt lat="48.07849" lon="3.42844">
        <ele>203</ele>
        <time>2014-04-13T07:44:16Z</time>
      </trkpt>
      <trkpt lat="48.07853" lon="3.42837">
        <ele>200</ele>
        <time>2014-04-13T07:44:22Z</time>
      </trkpt>
      <trkpt lat="48.07857" lon="3.4283">
        <ele>207</ele>
        <time>2014-04-13T07:44:27Z</time>
      </trkpt>
      <trkpt lat="48.07859" lon="3.42827">
        <ele>208</ele>
        <time>2014-04-13T07:44:29Z</time>
      </trkpt>
      <trkpt lat="48.07861" lon="3.42825">
        <ele>211</ele>
        <time>2014-04-13T07:44:31Z</time>
      </trkpt>
      <trkpt lat="48.07869" lon="3.42816">
        <ele>208</ele>
        <time>2014-04-13T07:44:38Z</time>
      </trkpt>
      <trkpt lat="48.07871" lon="3.42813">
        <ele>205</ele>
        <time>2014-04-13T07:44:42Z</time>
      </trkpt>
      <trkpt lat="48.07873" lon="3.4281">
        <ele>202</ele>
        <time>2014-04-13T07:44:45Z</time>
      </trkpt>
      <trkpt lat="48.07881" lon="3.42801">
        <ele>204</ele>
        <time>2014-04-13T07:44:53Z</time>
      </trkpt>
      <trkpt lat="48.07883" lon="3.42798">
        <ele>204</ele>
        <time>2014-04-13T07:44:55Z</time>
      </trkpt>
      <trkpt lat="48.0789" lon="3.42792">
        <ele>204</ele>
        <time>2014-04-13T07:45:01Z</time>
      </trkpt>
      <trkpt lat="48.07892" lon="3.4279">
        <ele>205</ele>
        <time>2014-04-13T07:45:03Z</time>
      </trkpt>
      <trkpt lat="48.079" lon="3.4278">
        <ele>205</ele>
        <time>2014-04-13T07:45:10Z</time>
      </trkpt>
      <trkpt lat="48.07902" lon="3.42778">
        <ele>204</ele>
        <time>2014-04-13T07:45:12Z</time>
      </trkpt>
      <trkpt lat="48.07904" lon="3.42774">
        <ele>205</ele>
        <time>2014-04-13T07:45:15Z</time>
      </trkpt>
      <trkpt lat="48.07911" lon="3.42764">
        <ele>202</ele>
        <time>2014-04-13T07:45:23Z</time>
      </trkpt>
      <trkpt lat="48.07913" lon="3.42761">
        <ele>202</ele>
        <time>2014-04-13T07:45:25Z</time>
      </trkpt>
      <trkpt lat="48.07914" lon="3.42758">
        <ele>204</ele>
        <time>2014-04-13T07:45:27Z</time>
      </trkpt>
      <trkpt lat="48.07918" lon="3.42752">
        <ele>203</ele>
        <time>2014-04-13T07:45:32Z</time>
      </trkpt>
      <trkpt lat="48.07918" lon="3.4275">
        <ele>203</ele>
        <time>2014-04-13T07:45:33Z</time>
      </trkpt>
      <trkpt lat="48.07919" lon="3.42746">
        <ele>203</ele>
        <time>2014-04-13T07:45:35Z</time>
      </trkpt>
      <trkpt lat="48.07921" lon="3.42738">
        <ele>199</ele>
        <time>2014-04-13T07:45:42Z</time>
      </trkpt>
      <trkpt lat="48.07921" lon="3.42731">
        <ele>199</ele>
        <time>2014-04-13T07:45:47Z</time>
      </trkpt>
      <trkpt lat="48.07921" lon="3.42724">
        <ele>199</ele>
        <time>2014-04-13T07:45:51Z</time>
      </trkpt>
      <trkpt lat="48.0792" lon="3.4272">
        <ele>198</ele>
        <time>2014-04-13T07:45:54Z</time>
      </trkpt>
      <trkpt lat="48.07918" lon="3.42714">
        <ele>198</ele>
        <time>2014-04-13T07:45:58Z</time>
      </trkpt>
      <trkpt lat="48.07918" lon="3.42703">
        <ele>198</ele>
        <time>2014-04-13T07:46:04Z</time>
      </trkpt>
      <trkpt lat="48.07917" lon="3.42694">
        <ele>198</ele>
        <time>2014-04-13T07:46:09Z</time>
      </trkpt>
      <trkpt lat="48.07916" lon="3.42679">
        <ele>198</ele>
        <time>2014-04-13T07:46:18Z</time>
      </trkpt>
      <trkpt lat="48.07916" lon="3.42674">
        <ele>198</ele>
        <time>2014-04-13T07:46:21Z</time>
      </trkpt>
      <trkpt lat="48.07915" lon="3.42657">
        <ele>192</ele>
        <time>2014-04-13T07:46:31Z</time>
      </trkpt>
      <trkpt lat="48.07917" lon="3.42652">
        <ele>193</ele>
        <time>2014-04-13T07:46:36Z</time>
      </trkpt>
      <trkpt lat="48.07918" lon="3.42641">
        <ele>195</ele>
        <time>2014-04-13T07:46:46Z</time>
      </trkpt>
      <trkpt lat="48.07921" lon="3.42624">
        <ele>194</ele>
        <time>2014-04-13T07:46:54Z</time>
      </trkpt>
      <trkpt lat="48.0792" lon="3.42619">
        <ele>194</ele>
        <time>2014-04-13T07:46:56Z</time>
      </trkpt>
      <trkpt lat="48.07921" lon="3.42613">
        <ele>192</ele>
        <time>2014-04-13T07:46:58Z</time>
      </trkpt>
      <trkpt lat="48.07921" lon="3.42608">
        <ele>195</ele>
        <time>2014-04-13T07:47:00Z</time>
      </trkpt>
      <trkpt lat="48.07922" lon="3.42603">
        <ele>196</ele>
        <time>2014-04-13T07:47:02Z</time>
      </trkpt>
      <trkpt lat="48.07923" lon="3.42599">
        <ele>197</ele>
        <time>2014-04-13T07:47:04Z</time>
      </trkpt>
      <trkpt lat="48.07924" lon="3.42593">
        <ele>196</ele>
        <time>2014-04-13T07:47:07Z</time>
      </trkpt>
      <trkpt lat="48.07926" lon="3.4259">
        <ele>200</ele>
        <time>2014-04-13T07:47:10Z</time>
      </trkpt>
      <trkpt lat="48.07927" lon="3.42586">
        <ele>196</ele>
        <time>2014-04-13T07:47:12Z</time>
      </trkpt>
      <trkpt lat="48.07928" lon="3.42583">
        <ele>195</ele>
        <time>2014-04-13T07:47:14Z</time>
      </trkpt>
      <trkpt lat="48.07932" lon="3.4257">
        <ele>198</ele>
        <time>2014-04-13T07:47:21Z</time>
      </trkpt>
      <trkpt lat="48.07933" lon="3.42566">
        <ele>196</ele>
        <time>2014-04-13T07:47:24Z</time>
      </trkpt>
      <trkpt lat="48.07933" lon="3.42562">
        <ele>194</ele>
        <time>2014-04-13T07:47:26Z</time>
      </trkpt>
      <trkpt lat="48.07934" lon="3.42559">
        <ele>196</ele>
        <time>2014-04-13T07:47:28Z</time>
      </trkpt>
      <trkpt lat="48.07936" lon="3.42556">
        <ele>198</ele>
        <time>2014-04-13T07:47:31Z</time>
      </trkpt>
      <trkpt lat="48.07937" lon="3.42551">
        <ele>200</ele>
        <time>2014-04-13T07:47:34Z</time>
      </trkpt>
      <trkpt lat="48.07938" lon="3.42545">
        <ele>199</ele>
        <time>2014-04-13T07:47:37Z</time>
      </trkpt>
      <trkpt lat="48.0794" lon="3.42542">
        <ele>199</ele>
        <time>2014-04-13T07:47:39Z</time>
      </trkpt>
      <trkpt lat="48.07945" lon="3.42529">
        <ele>198</ele>
        <time>2014-04-13T07:47:47Z</time>
      </trkpt>
      <trkpt lat="48.07945" lon="3.42526">
        <ele>196</ele>
        <time>2014-04-13T07:47:49Z</time>
      </trkpt>
      <trkpt lat="48.07946" lon="3.42521">
        <ele>194</ele>
        <time>2014-04-13T07:47:52Z</time>
      </trkpt>
      <trkpt lat="48.07948" lon="3.42515">
        <ele>194</ele>
        <time>2014-04-13T07:47:56Z</time>
      </trkpt>
      <trkpt lat="48.0795" lon="3.42507">
        <ele>195</ele>
        <time>2014-04-13T07:48:01Z</time>
      </trkpt>
      <trkpt lat="48.0795" lon="3.42502">
        <ele>193</ele>
        <time>2014-04-13T07:48:05Z</time>
      </trkpt>
      <trkpt lat="48.0795" lon="3.42497">
        <ele>188</ele>
        <time>2014-04-13T07:48:08Z</time>
      </trkpt>
      <trkpt lat="48.07949" lon="3.42493">
        <ele>189</ele>
        <time>2014-04-13T07:48:11Z</time>
      </trkpt>
      <trkpt lat="48.07949" lon="3.42489">
        <ele>190</ele>
        <time>2014-04-13T07:48:13Z</time>
      </trkpt>
      <trkpt lat="48.07949" lon="3.42486">
        <ele>189</ele>
        <time>2014-04-13T07:48:15Z</time>
      </trkpt>
      <trkpt lat="48.0795" lon="3.42471">
        <ele>191</ele>
        <time>2014-04-13T07:48:24Z</time>
      </trkpt>
      <trkpt lat="48.07949" lon="3.42467">
        <ele>188</ele>
        <time>2014-04-13T07:48:27Z</time>
      </trkpt>
      <trkpt lat="48.07949" lon="3.42464">
        <ele>186</ele>
        <time>2014-04-13T07:48:31Z</time>
      </trkpt>
      <trkpt lat="48.07948" lon="3.4246">
        <ele>185</ele>
        <time>2014-04-13T07:48:34Z</time>
      </trkpt>
      <trkpt lat="48.07947" lon="3.42448">
        <ele>185</ele>
        <time>2014-04-13T07:48:40Z</time>
      </trkpt>
      <trkpt lat="48.07945" lon="3.4244">
        <ele>183</ele>
        <time>2014-04-13T07:48:46Z</time>
      </trkpt>
      <trkpt lat="48.07942" lon="3.4243">
        <ele>182</ele>
        <time>2014-04-13T07:48:52Z</time>
      </trkpt>
      <trkpt lat="48.07942" lon="3.42427">
        <ele>183</ele>
        <time>2014-04-13T07:48:54Z</time>
      </trkpt>
      <trkpt lat="48.07941" lon="3.42423">
        <ele>184</ele>
        <time>2014-04-13T07:48:56Z</time>
      </trkpt>
      <trkpt lat="48.0794" lon="3.42418">
        <ele>182</ele>
        <time>2014-04-13T07:48:59Z</time>
      </trkpt>
      <trkpt lat="48.07937" lon="3.42405">
        <ele>181</ele>
        <time>2014-04-13T07:49:08Z</time>
      </trkpt>
      <trkpt lat="48.07933" lon="3.42393">
        <ele>175</ele>
        <time>2014-04-13T07:49:17Z</time>
      </trkpt>
      <trkpt lat="48.0793" lon="3.4239">
        <ele>175</ele>
        <time>2014-04-13T07:49:19Z</time>
      </trkpt>
      <trkpt lat="48.07929" lon="3.42387">
        <ele>175</ele>
        <time>2014-04-13T07:49:21Z</time>
      </trkpt>
      <trkpt lat="48.07916" lon="3.42365">
        <ele>173</ele>
        <time>2014-04-13T07:49:37Z</time>
      </trkpt>
      <trkpt lat="48.07914" lon="3.42362">
        <ele>174</ele>
        <time>2014-04-13T07:49:39Z</time>
      </trkpt>
      <trkpt lat="48.07913" lon="3.42358">
        <ele>173</ele>
        <time>2014-04-13T07:49:42Z</time>
      </trkpt>
      <trkpt lat="48.07912" lon="3.42355">
        <ele>173</ele>
        <time>2014-04-13T07:49:45Z</time>
      </trkpt>
      <trkpt lat="48.07911" lon="3.42351">
        <ele>171</ele>
        <time>2014-04-13T07:49:48Z</time>
      </trkpt>
      <trkpt lat="48.07907" lon="3.42344">
        <ele>171</ele>
        <time>2014-04-13T07:49:53Z</time>
      </trkpt>
      <trkpt lat="48.07906" lon="3.42341">
        <ele>170</ele>
        <time>2014-04-13T07:49:55Z</time>
      </trkpt>
      <trkpt lat="48.07904" lon="3.42338">
        <ele>170</ele>
        <time>2014-04-13T07:49:58Z</time>
      </trkpt>
      <trkpt lat="48.07891" lon="3.42315">
        <ele>168</ele>
        <time>2014-04-13T07:50:15Z</time>
      </trkpt>
      <trkpt lat="48.0789" lon="3.42312">
        <ele>168</ele>
        <time>2014-04-13T07:50:17Z</time>
      </trkpt>
      <trkpt lat="48.07888" lon="3.42308">
        <ele>167</ele>
        <time>2014-04-13T07:50:20Z</time>
      </trkpt>
      <trkpt lat="48.07886" lon="3.42305">
        <ele>167</ele>
        <time>2014-04-13T07:50:22Z</time>
      </trkpt>
      <trkpt lat="48.07883" lon="3.42299">
        <ele>167</ele>
        <time>2014-04-13T07:50:27Z</time>
      </trkpt>
      <trkpt lat="48.0788" lon="3.42293">
        <ele>166</ele>
        <time>2014-04-13T07:50:31Z</time>
      </trkpt>
      <trkpt lat="48.07879" lon="3.42287">
        <ele>165</ele>
        <time>2014-04-13T07:50:35Z</time>
      </trkpt>
      <trkpt lat="48.07878" lon="3.42283">
        <ele>165</ele>
        <time>2014-04-13T07:50:37Z</time>
      </trkpt>
      <trkpt lat="48.07878" lon="3.4228">
        <ele>165</ele>
        <time>2014-04-13T07:50:39Z</time>
      </trkpt>
      <trkpt lat="48.07877" lon="3.42275">
        <ele>165</ele>
        <time>2014-04-13T07:50:42Z</time>
      </trkpt>
      <trkpt lat="48.07878" lon="3.42271">
        <ele>167</ele>
        <time>2014-04-13T07:50:45Z</time>
      </trkpt>
      <trkpt lat="48.07879" lon="3.4226">
        <ele>163</ele>
        <time>2014-04-13T07:50:51Z</time>
      </trkpt>
      <trkpt lat="48.0788" lon="3.42245">
        <ele>163</ele>
        <time>2014-04-13T07:50:59Z</time>
      </trkpt>
      <trkpt lat="48.0788" lon="3.42231">
        <ele>162</ele>
        <time>2014-04-13T07:51:08Z</time>
      </trkpt>
      <trkpt lat="48.07879" lon="3.42226">
        <ele>161</ele>
        <time>2014-04-13T07:51:11Z</time>
      </trkpt>
      <trkpt lat="48.07878" lon="3.4221">
        <ele>160</ele>
        <time>2014-04-13T07:51:20Z</time>
      </trkpt>
      <trkpt lat="48.07876" lon="3.42196">
        <ele>159</ele>
        <time>2014-04-13T07:51:29Z</time>
      </trkpt>
      <trkpt lat="48.07875" lon="3.42192">
        <ele>158</ele>
        <time>2014-04-13T07:51:32Z</time>
      </trkpt>
      <trkpt lat="48.07874" lon="3.42187">
        <ele>157</ele>
        <time>2014-04-13T07:51:35Z</time>
      </trkpt>
      <trkpt lat="48.07874" lon="3.42184">
        <ele>156</ele>
        <time>2014-04-13T07:51:38Z</time>
      </trkpt>
      <trkpt lat="48.07874" lon="3.4218">
        <ele>156</ele>
        <time>2014-04-13T07:51:41Z</time>
      </trkpt>
      <trkpt lat="48.07872" lon="3.42176">
        <ele>155</ele>
        <time>2014-04-13T07:51:43Z</time>
      </trkpt>
      <trkpt lat="48.07871" lon="3.42173">
        <ele>155</ele>
        <time>2014-04-13T07:51:45Z</time>
      </trkpt>
      <trkpt lat="48.07869" lon="3.42165">
        <ele>154</ele>
        <time>2014-04-13T07:51:50Z</time>
      </trkpt>
      <trkpt lat="48.07868" lon="3.42161">
        <ele>154</ele>
        <time>2014-04-13T07:51:52Z</time>
      </trkpt>
      <trkpt lat="48.07867" lon="3.42158">
        <ele>154</ele>
        <time>2014-04-13T07:51:54Z</time>
      </trkpt>
      <trkpt lat="48.07867" lon="3.42154">
        <ele>153</ele>
        <time>2014-04-13T07:51:56Z</time>
      </trkpt>
      <trkpt lat="48.07866" lon="3.4215">
        <ele>158</ele>
        <time>2014-04-13T07:51:59Z</time>
      </trkpt>
      <trkpt lat="48.07864" lon="3.42141">
        <ele>151</ele>
        <time>2014-04-13T07:52:05Z</time>
      </trkpt>
      <trkpt lat="48.07862" lon="3.42137">
        <ele>150</ele>
        <time>2014-04-13T07:52:07Z</time>
      </trkpt>
      <trkpt lat="48.07861" lon="3.42134">
        <ele>149</ele>
        <time>2014-04-13T07:52:09Z</time>
      </trkpt>
      <trkpt lat="48.07859" lon="3.42127">
        <ele>147</ele>
        <time>2014-04-13T07:52:15Z</time>
      </trkpt>
      <trkpt lat="48.07854" lon="3.42112">
        <ele>145</ele>
        <time>2014-04-13T07:52:25Z</time>
      </trkpt>
      <trkpt lat="48.07852" lon="3.42108">
        <ele>145</ele>
        <time>2014-04-13T07:52:27Z</time>
      </trkpt>
      <trkpt lat="48.07848" lon="3.42094">
        <ele>144</ele>
        <time>2014-04-13T07:52:34Z</time>
      </trkpt>
      <trkpt lat="48.07848" lon="3.42091">
        <ele>142</ele>
        <time>2014-04-13T07:52:36Z</time>
      </trkpt>
      <trkpt lat="48.07847" lon="3.42087">
        <ele>143</ele>
        <time>2014-04-13T07:52:38Z</time>
      </trkpt>
      <trkpt lat="48.07847" lon="3.42072">
        <ele>143</ele>
        <time>2014-04-13T07:52:46Z</time>
      </trkpt>
      <trkpt lat="48.07847" lon="3.42067">
        <ele>144</ele>
        <time>2014-04-13T07:52:49Z</time>
      </trkpt>
      <trkpt lat="48.07848" lon="3.42063">
        <ele>142</ele>
        <time>2014-04-13T07:52:51Z</time>
      </trkpt>
      <trkpt lat="48.0785" lon="3.42057">
        <ele>143</ele>
        <time>2014-04-13T07:52:54Z</time>
      </trkpt>
      <trkpt lat="48.07852" lon="3.4205">
        <ele>144</ele>
        <time>2014-04-13T07:52:58Z</time>
      </trkpt>
      <trkpt lat="48.07854" lon="3.42046">
        <ele>144</ele>
        <time>2014-04-13T07:53:01Z</time>
      </trkpt>
      <trkpt lat="48.07855" lon="3.42042">
        <ele>144</ele>
        <time>2014-04-13T07:53:03Z</time>
      </trkpt>
      <trkpt lat="48.07857" lon="3.42039">
        <ele>144</ele>
        <time>2014-04-13T07:53:05Z</time>
      </trkpt>
      <trkpt lat="48.0786" lon="3.42033">
        <ele>143</ele>
        <time>2014-04-13T07:53:09Z</time>
      </trkpt>
      <trkpt lat="48.07862" lon="3.4203">
        <ele>142</ele>
        <time>2014-04-13T07:53:11Z</time>
      </trkpt>
      <trkpt lat="48.07863" lon="3.42027">
        <ele>144</ele>
        <time>2014-04-13T07:53:13Z</time>
      </trkpt>
      <trkpt lat="48.07865" lon="3.42019">
        <ele>143</ele>
        <time>2014-04-13T07:53:18Z</time>
      </trkpt>
      <trkpt lat="48.07866" lon="3.42015">
        <ele>139</ele>
        <time>2014-04-13T07:53:21Z</time>
      </trkpt>
      <trkpt lat="48.07866" lon="3.42011">
        <ele>140</ele>
        <time>2014-04-13T07:53:23Z</time>
      </trkpt>
      <trkpt lat="48.07866" lon="3.41995">
        <ele>143</ele>
        <time>2014-04-13T07:53:33Z</time>
      </trkpt>
      <trkpt lat="48.07866" lon="3.41991">
        <ele>144</ele>
        <time>2014-04-13T07:53:35Z</time>
      </trkpt>
      <trkpt lat="48.07869" lon="3.41976">
        <ele>139</ele>
        <time>2014-04-13T07:53:42Z</time>
      </trkpt>
      <trkpt lat="48.0787" lon="3.41972">
        <ele>140</ele>
        <time>2014-04-13T07:53:44Z</time>
      </trkpt>
      <trkpt lat="48.07873" lon="3.41966">
        <ele>141</ele>
        <time>2014-04-13T07:53:48Z</time>
      </trkpt>
      <trkpt lat="48.07877" lon="3.4196">
        <ele>141</ele>
        <time>2014-04-13T07:53:52Z</time>
      </trkpt>
      <trkpt lat="48.07878" lon="3.41958">
        <ele>141</ele>
        <time>2014-04-13T07:53:53Z</time>
      </trkpt>
      <trkpt lat="48.07879" lon="3.41955">
        <ele>141</ele>
        <time>2014-04-13T07:53:55Z</time>
      </trkpt>
      <trkpt lat="48.07897" lon="3.41917">
        <ele>142</ele>
        <time>2014-04-13T07:54:18Z</time>
      </trkpt>
      <trkpt lat="48.07901" lon="3.41909">
        <ele>143</ele>
        <time>2014-04-13T07:54:24Z</time>
      </trkpt>
      <trkpt lat="48.07904" lon="3.41902">
        <ele>143</ele>
        <time>2014-04-13T07:54:28Z</time>
      </trkpt>
      <trkpt lat="48.07905" lon="3.41901">
        <ele>143</ele>
        <time>2014-04-13T07:54:29Z</time>
      </trkpt>
      <trkpt lat="48.07907" lon="3.41898">
        <ele>144</ele>
        <time>2014-04-13T07:54:31Z</time>
      </trkpt>
      <trkpt lat="48.07909" lon="3.41895">
        <ele>143</ele>
        <time>2014-04-13T07:54:34Z</time>
      </trkpt>
      <trkpt lat="48.07911" lon="3.41892">
        <ele>143</ele>
        <time>2014-04-13T07:54:36Z</time>
      </trkpt>
      <trkpt lat="48.07914" lon="3.41888">
        <ele>143</ele>
        <time>2014-04-13T07:54:39Z</time>
      </trkpt>
      <trkpt lat="48.07915" lon="3.41885">
        <ele>144</ele>
        <time>2014-04-13T07:54:41Z</time>
      </trkpt>
      <trkpt lat="48.07917" lon="3.41883">
        <ele>143</ele>
        <time>2014-04-13T07:54:43Z</time>
      </trkpt>
      <trkpt lat="48.07932" lon="3.41859">
        <ele>146</ele>
        <time>2014-04-13T07:54:59Z</time>
      </trkpt>
      <trkpt lat="48.07934" lon="3.41857">
        <ele>146</ele>
        <time>2014-04-13T07:55:01Z</time>
      </trkpt>
      <trkpt lat="48.07937" lon="3.41853">
        <ele>147</ele>
        <time>2014-04-13T07:55:04Z</time>
      </trkpt>
      <trkpt lat="48.07943" lon="3.41843">
        <ele>146</ele>
        <time>2014-04-13T07:55:11Z</time>
      </trkpt>
      <trkpt lat="48.07945" lon="3.41841">
        <ele>146</ele>
        <time>2014-04-13T07:55:13Z</time>
      </trkpt>
      <trkpt lat="48.07947" lon="3.41839">
        <ele>147</ele>
        <time>2014-04-13T07:55:15Z</time>
      </trkpt>
      <trkpt lat="48.0795" lon="3.41837">
        <ele>147</ele>
        <time>2014-04-13T07:55:17Z</time>
      </trkpt>
      <trkpt lat="48.07991" lon="3.41797">
        <ele>147</ele>
        <time>2014-04-13T07:55:56Z</time>
      </trkpt>
      <trkpt lat="48.07994" lon="3.41794">
        <ele>149</ele>
        <time>2014-04-13T07:55:59Z</time>
      </trkpt>
      <trkpt lat="48.07998" lon="3.4179">
        <ele>148</ele>
        <time>2014-04-13T07:56:03Z</time>
      </trkpt>
      <trkpt lat="48.08" lon="3.41787">
        <ele>150</ele>
        <time>2014-04-13T07:56:05Z</time>
      </trkpt>
      <trkpt lat="48.08002" lon="3.41785">
        <ele>150</ele>
        <time>2014-04-13T07:56:07Z</time>
      </trkpt>
      <trkpt lat="48.08005" lon="3.41782">
        <ele>150</ele>
        <time>2014-04-13T07:56:09Z</time>
      </trkpt>
      <trkpt lat="48.08021" lon="3.41761">
        <ele>145</ele>
        <time>2014-04-13T07:56:26Z</time>
      </trkpt>
      <trkpt lat="48.08024" lon="3.41757">
        <ele>148</ele>
        <time>2014-04-13T07:56:29Z</time>
      </trkpt>
      <trkpt lat="48.08026" lon="3.41754">
        <ele>147</ele>
        <time>2014-04-13T07:56:31Z</time>
      </trkpt>
      <trkpt lat="48.08029" lon="3.4175">
        <ele>147</ele>
        <time>2014-04-13T07:56:34Z</time>
      </trkpt>
      <trkpt lat="48.08033" lon="3.41744">
        <ele>147</ele>
        <time>2014-04-13T07:56:38Z</time>
      </trkpt>
      <trkpt lat="48.08035" lon="3.4174">
        <ele>147</ele>
        <time>2014-04-13T07:56:40Z</time>
      </trkpt>
      <trkpt lat="48.08038" lon="3.41737">
        <ele>144</ele>
        <time>2014-04-13T07:56:43Z</time>
      </trkpt>
      <trkpt lat="48.08039" lon="3.41733">
        <ele>149</ele>
        <time>2014-04-13T07:56:46Z</time>
      </trkpt>
      <trkpt lat="48.08041" lon="3.41731">
        <ele>148</ele>
        <time>2014-04-13T07:56:48Z</time>
      </trkpt>
      <trkpt lat="48.08043" lon="3.41727">
        <ele>149</ele>
        <time>2014-04-13T07:56:50Z</time>
      </trkpt>
      <trkpt lat="48.08046" lon="3.41724">
        <ele>146</ele>
        <time>2014-04-13T07:56:52Z</time>
      </trkpt>
      <trkpt lat="48.0805" lon="3.41721">
        <ele>143</ele>
        <time>2014-04-13T07:56:55Z</time>
      </trkpt>
      <trkpt lat="48.08051" lon="3.41718">
        <ele>146</ele>
        <time>2014-04-13T07:56:57Z</time>
      </trkpt>
      <trkpt lat="48.08053" lon="3.41716">
        <ele>148</ele>
        <time>2014-04-13T07:56:59Z</time>
      </trkpt>
      <trkpt lat="48.08057" lon="3.41709">
        <ele>146</ele>
        <time>2014-04-13T07:57:03Z</time>
      </trkpt>
      <trkpt lat="48.08063" lon="3.41702">
        <ele>146</ele>
        <time>2014-04-13T07:57:09Z</time>
      </trkpt>
      <trkpt lat="48.08065" lon="3.41701">
        <ele>147</ele>
        <time>2014-04-13T07:57:11Z</time>
      </trkpt>
      <trkpt lat="48.08067" lon="3.41698">
        <ele>148</ele>
        <time>2014-04-13T07:57:13Z</time>
      </trkpt>
      <trkpt lat="48.08069" lon="3.41697">
        <ele>147</ele>
        <time>2014-04-13T07:57:15Z</time>
      </trkpt>
      <trkpt lat="48.08072" lon="3.41694">
        <ele>147</ele>
        <time>2014-04-13T07:57:17Z</time>
      </trkpt>
      <trkpt lat="48.08074" lon="3.41692">
        <ele>148</ele>
        <time>2014-04-13T07:57:19Z</time>
      </trkpt>
      <trkpt lat="48.08076" lon="3.41689">
        <ele>147</ele>
        <time>2014-04-13T07:57:21Z</time>
      </trkpt>
      <trkpt lat="48.08079" lon="3.41686">
        <ele>147</ele>
        <time>2014-04-13T07:57:24Z</time>
      </trkpt>
      <trkpt lat="48.08097" lon="3.41668">
        <ele>147</ele>
        <time>2014-04-13T07:57:43Z</time>
      </trkpt>
      <trkpt lat="48.08098" lon="3.41666">
        <ele>147</ele>
        <time>2014-04-13T07:57:45Z</time>
      </trkpt>
      <trkpt lat="48.08101" lon="3.41662">
        <ele>148</ele>
        <time>2014-04-13T07:57:48Z</time>
      </trkpt>
      <trkpt lat="48.08116" lon="3.41643">
        <ele>144</ele>
        <time>2014-04-13T07:58:03Z</time>
      </trkpt>
      <trkpt lat="48.08122" lon="3.41633">
        <ele>146</ele>
        <time>2014-04-13T07:58:10Z</time>
      </trkpt>
      <trkpt lat="48.08129" lon="3.41625">
        <ele>146</ele>
        <time>2014-04-13T07:58:17Z</time>
      </trkpt>
      <trkpt lat="48.08147" lon="3.41604">
        <ele>145</ele>
        <time>2014-04-13T07:58:35Z</time>
      </trkpt>
      <trkpt lat="48.0815" lon="3.41601">
        <ele>145</ele>
        <time>2014-04-13T07:58:38Z</time>
      </trkpt>
      <trkpt lat="48.08154" lon="3.41597">
        <ele>145</ele>
        <time>2014-04-13T07:58:42Z</time>
      </trkpt>
      <trkpt lat="48.08157" lon="3.41596">
        <ele>145</ele>
        <time>2014-04-13T07:58:45Z</time>
      </trkpt>
      <trkpt lat="48.08162" lon="3.41592">
        <ele>146</ele>
        <time>2014-04-13T07:58:50Z</time>
      </trkpt>
      <trkpt lat="48.08165" lon="3.41591">
        <ele>144</ele>
        <time>2014-04-13T07:58:52Z</time>
      </trkpt>
      <trkpt lat="48.08171" lon="3.4159">
        <ele>145</ele>
        <time>2014-04-13T07:58:57Z</time>
      </trkpt>
      <trkpt lat="48.08179" lon="3.41588">
        <ele>145</ele>
        <time>2014-04-13T07:59:05Z</time>
      </trkpt>
      <trkpt lat="48.08183" lon="3.41586">
        <ele>149</ele>
        <time>2014-04-13T07:59:07Z</time>
      </trkpt>
      <trkpt lat="48.08186" lon="3.41585">
        <ele>152</ele>
        <time>2014-04-13T07:59:09Z</time>
      </trkpt>
      <trkpt lat="48.08196" lon="3.41584">
        <ele>151</ele>
        <time>2014-04-13T07:59:16Z</time>
      </trkpt>
      <trkpt lat="48.08199" lon="3.41584">
        <ele>152</ele>
        <time>2014-04-13T07:59:19Z</time>
      </trkpt>
      <trkpt lat="48.08201" lon="3.41585">
        <ele>151</ele>
        <time>2014-04-13T07:59:21Z</time>
      </trkpt>
      <trkpt lat="48.08204" lon="3.41585">
        <ele>151</ele>
        <time>2014-04-13T07:59:24Z</time>
      </trkpt>
      <trkpt lat="48.08208" lon="3.41585">
        <ele>151</ele>
        <time>2014-04-13T07:59:27Z</time>
      </trkpt>
      <trkpt lat="48.0821" lon="3.41584">
        <ele>150</ele>
        <time>2014-04-13T07:59:29Z</time>
      </trkpt>
      <trkpt lat="48.08216" lon="3.41582">
        <ele>149</ele>
        <time>2014-04-13T07:59:33Z</time>
      </trkpt>
      <trkpt lat="48.08218" lon="3.41582">
        <ele>151</ele>
        <time>2014-04-13T07:59:35Z</time>
      </trkpt>
      <trkpt lat="48.08228" lon="3.41582">
        <ele>150</ele>
        <time>2014-04-13T07:59:43Z</time>
      </trkpt>
      <trkpt lat="48.08231" lon="3.41581">
        <ele>150</ele>
        <time>2014-04-13T07:59:45Z</time>
      </trkpt>
      <trkpt lat="48.08235" lon="3.41581">
        <ele>151</ele>
        <time>2014-04-13T07:59:48Z</time>
      </trkpt>
      <trkpt lat="48.08238" lon="3.4158">
        <ele>152</ele>
        <time>2014-04-13T07:59:50Z</time>
      </trkpt>
      <trkpt lat="48.08248" lon="3.41578">
        <ele>149</ele>
        <time>2014-04-13T07:59:59Z</time>
      </trkpt>
      <trkpt lat="48.08256" lon="3.41576">
        <ele>149</ele>
        <time>2014-04-13T08:00:05Z</time>
      </trkpt>
      <trkpt lat="48.0826" lon="3.41574">
        <ele>149</ele>
        <time>2014-04-13T08:00:08Z</time>
      </trkpt>
      <trkpt lat="48.08262" lon="3.41573">
        <ele>147</ele>
        <time>2014-04-13T08:00:10Z</time>
      </trkpt>
      <trkpt lat="48.08265" lon="3.41571">
        <ele>148</ele>
        <time>2014-04-13T08:00:13Z</time>
      </trkpt>
      <trkpt lat="48.08267" lon="3.4157">
        <ele>148</ele>
        <time>2014-04-13T08:00:15Z</time>
      </trkpt>
      <trkpt lat="48.08278" lon="3.41567">
        <ele>147</ele>
        <time>2014-04-13T08:00:24Z</time>
      </trkpt>
      <trkpt lat="48.08282" lon="3.41565">
        <ele>148</ele>
        <time>2014-04-13T08:00:27Z</time>
      </trkpt>
      <trkpt lat="48.08286" lon="3.41565">
        <ele>147</ele>
        <time>2014-04-13T08:00:30Z</time>
      </trkpt>
      <trkpt lat="48.08295" lon="3.41564">
        <ele>146</ele>
        <time>2014-04-13T08:00:39Z</time>
      </trkpt>
      <trkpt lat="48.08298" lon="3.41564">
        <ele>146</ele>
        <time>2014-04-13T08:00:41Z</time>
      </trkpt>
      <trkpt lat="48.083" lon="3.41563">
        <ele>147</ele>
        <time>2014-04-13T08:00:43Z</time>
      </trkpt>
      <trkpt lat="48.08304" lon="3.41563">
        <ele>146</ele>
        <time>2014-04-13T08:00:45Z</time>
      </trkpt>
      <trkpt lat="48.08313" lon="3.41561">
        <ele>146</ele>
        <time>2014-04-13T08:00:52Z</time>
      </trkpt>
      <trkpt lat="48.08316" lon="3.4156">
        <ele>146</ele>
        <time>2014-04-13T08:00:55Z</time>
      </trkpt>
      <trkpt lat="48.08323" lon="3.41556">
        <ele>144</ele>
        <time>2014-04-13T08:01:01Z</time>
      </trkpt>
      <trkpt lat="48.08328" lon="3.4155">
        <ele>142</ele>
        <time>2014-04-13T08:01:05Z</time>
      </trkpt>
      <trkpt lat="48.08348" lon="3.41525">
        <ele>146</ele>
        <time>2014-04-13T08:01:28Z</time>
      </trkpt>
      <trkpt lat="48.0835" lon="3.41522">
        <ele>144</ele>
        <time>2014-04-13T08:01:31Z</time>
      </trkpt>
      <trkpt lat="48.08355" lon="3.41517">
        <ele>143</ele>
        <time>2014-04-13T08:01:36Z</time>
      </trkpt>
      <trkpt lat="48.08366" lon="3.41504">
        <ele>146</ele>
        <time>2014-04-13T08:01:48Z</time>
      </trkpt>
      <trkpt lat="48.08366" lon="3.41501">
        <ele>146</ele>
        <time>2014-04-13T08:01:50Z</time>
      </trkpt>
      <trkpt lat="48.08367" lon="3.41497">
        <ele>144</ele>
        <time>2014-04-13T08:01:53Z</time>
      </trkpt>
      <trkpt lat="48.08369" lon="3.41493">
        <ele>141</ele>
        <time>2014-04-13T08:01:57Z</time>
      </trkpt>
      <trkpt lat="48.08371" lon="3.4149">
        <ele>139</ele>
        <time>2014-04-13T08:02:00Z</time>
      </trkpt>
      <trkpt lat="48.08372" lon="3.41487">
        <ele>138</ele>
        <time>2014-04-13T08:02:02Z</time>
      </trkpt>
      <trkpt lat="48.08374" lon="3.41484">
        <ele>137</ele>
        <time>2014-04-13T08:02:04Z</time>
      </trkpt>
      <trkpt lat="48.08375" lon="3.4148">
        <ele>139</ele>
        <time>2014-04-13T08:02:06Z</time>
      </trkpt>
      <trkpt lat="48.08378" lon="3.41472">
        <ele>139</ele>
        <time>2014-04-13T08:02:12Z</time>
      </trkpt>
      <trkpt lat="48.08378" lon="3.41463">
        <ele>141</ele>
        <time>2014-04-13T08:02:16Z</time>
      </trkpt>
      <trkpt lat="48.0838" lon="3.4146">
        <ele>143</ele>
        <time>2014-04-13T08:02:19Z</time>
      </trkpt>
      <trkpt lat="48.08385" lon="3.41455">
        <ele>145</ele>
        <time>2014-04-13T08:02:24Z</time>
      </trkpt>
      <trkpt lat="48.08389" lon="3.41452">
        <ele>144</ele>
        <time>2014-04-13T08:02:29Z</time>
      </trkpt>
      <trkpt lat="48.08394" lon="3.4145">
        <ele>145</ele>
        <time>2014-04-13T08:02:34Z</time>
      </trkpt>
      <trkpt lat="48.08395" lon="3.41449">
        <ele>145</ele>
        <time>2014-04-13T08:02:35Z</time>
      </trkpt>
      <trkpt lat="48.084" lon="3.41443">
        <ele>148</ele>
        <time>2014-04-13T08:02:39Z</time>
      </trkpt>
      <trkpt lat="48.08402" lon="3.4144">
        <ele>148</ele>
        <time>2014-04-13T08:02:41Z</time>
      </trkpt>
      <trkpt lat="48.08403" lon="3.41436">
        <ele>147</ele>
        <time>2014-04-13T08:02:43Z</time>
      </trkpt>
      <trkpt lat="48.08407" lon="3.41424">
        <ele>145</ele>
        <time>2014-04-13T08:02:49Z</time>
      </trkpt>
      <trkpt lat="48.08408" lon="3.4142">
        <ele>145</ele>
        <time>2014-04-13T08:02:51Z</time>
      </trkpt>
      <trkpt lat="48.08411" lon="3.41415">
        <ele>144</ele>
        <time>2014-04-13T08:02:54Z</time>
      </trkpt>
      <trkpt lat="48.08413" lon="3.41408">
        <ele>142</ele>
        <time>2014-04-13T08:02:59Z</time>
      </trkpt>
      <trkpt lat="48.08416" lon="3.41403">
        <ele>147</ele>
        <time>2014-04-13T08:03:02Z</time>
      </trkpt>
      <trkpt lat="48.08417" lon="3.41399">
        <ele>148</ele>
        <time>2014-04-13T08:03:04Z</time>
      </trkpt>
      <trkpt lat="48.0842" lon="3.41391">
        <ele>147</ele>
        <time>2014-04-13T08:03:08Z</time>
      </trkpt>
      <trkpt lat="48.08423" lon="3.41384">
        <ele>147</ele>
        <time>2014-04-13T08:03:12Z</time>
      </trkpt>
      <trkpt lat="48.08424" lon="3.41381">
        <ele>149</ele>
        <time>2014-04-13T08:03:14Z</time>
      </trkpt>
      <trkpt lat="48.0843" lon="3.4137">
        <ele>151</ele>
        <time>2014-04-13T08:03:23Z</time>
      </trkpt>
      <trkpt lat="48.08433" lon="3.41365">
        <ele>150</ele>
        <time>2014-04-13T08:03:29Z</time>
      </trkpt>
      <trkpt lat="48.08433" lon="3.41361">
        <ele>149</ele>
        <time>2014-04-13T08:03:44Z</time>
      </trkpt>
      <trkpt lat="48.08435" lon="3.41358">
        <ele>151</ele>
        <time>2014-04-13T08:03:47Z</time>
      </trkpt>
      <trkpt lat="48.08436" lon="3.41353">
        <ele>149</ele>
        <time>2014-04-13T08:03:50Z</time>
      </trkpt>
      <trkpt lat="48.08438" lon="3.41348">
        <ele>151</ele>
        <time>2014-04-13T08:03:53Z</time>
      </trkpt>
      <trkpt lat="48.0844" lon="3.41344">
        <ele>150</ele>
        <time>2014-04-13T08:03:56Z</time>
      </trkpt>
      <trkpt lat="48.08441" lon="3.41342">
        <ele>149</ele>
        <time>2014-04-13T08:03:58Z</time>
      </trkpt>
      <trkpt lat="48.08443" lon="3.41338">
        <ele>149</ele>
        <time>2014-04-13T08:04:00Z</time>
      </trkpt>
      <trkpt lat="48.08445" lon="3.41334">
        <ele>150</ele>
        <time>2014-04-13T08:04:03Z</time>
      </trkpt>
      <trkpt lat="48.08453" lon="3.41323">
        <ele>151</ele>
        <time>2014-04-13T08:04:11Z</time>
      </trkpt>
      <trkpt lat="48.08454" lon="3.4132">
        <ele>152</ele>
        <time>2014-04-13T08:04:13Z</time>
      </trkpt>
      <trkpt lat="48.08458" lon="3.41307">
        <ele>154</ele>
        <time>2014-04-13T08:04:20Z</time>
      </trkpt>
      <trkpt lat="48.0846" lon="3.41301">
        <ele>153</ele>
        <time>2014-04-13T08:04:23Z</time>
      </trkpt>
      <trkpt lat="48.08464" lon="3.41287">
        <ele>153</ele>
        <time>2014-04-13T08:04:30Z</time>
      </trkpt>
      <trkpt lat="48.08465" lon="3.41283">
        <ele>153</ele>
        <time>2014-04-13T08:04:32Z</time>
      </trkpt>
      <trkpt lat="48.08468" lon="3.41275">
        <ele>152</ele>
        <time>2014-04-13T08:04:38Z</time>
      </trkpt>
      <trkpt lat="48.0847" lon="3.41265">
        <ele>149</ele>
        <time>2014-04-13T08:04:43Z</time>
      </trkpt>
      <trkpt lat="48.08472" lon="3.41261">
        <ele>149</ele>
        <time>2014-04-13T08:04:45Z</time>
      </trkpt>
      <trkpt lat="48.08473" lon="3.41252">
        <ele>152</ele>
        <time>2014-04-13T08:04:48Z</time>
      </trkpt>
      <trkpt lat="48.08474" lon="3.41248">
        <ele>153</ele>
        <time>2014-04-13T08:04:50Z</time>
      </trkpt>
      <trkpt lat="48.08478" lon="3.41236">
        <ele>148</ele>
        <time>2014-04-13T08:04:58Z</time>
      </trkpt>
      <trkpt lat="48.0848" lon="3.41229">
        <ele>144</ele>
        <time>2014-04-13T08:05:05Z</time>
      </trkpt>
      <trkpt lat="48.08483" lon="3.41224">
        <ele>144</ele>
        <time>2014-04-13T08:05:08Z</time>
      </trkpt>
      <trkpt lat="48.08485" lon="3.41221">
        <ele>141</ele>
        <time>2014-04-13T08:05:11Z</time>
      </trkpt>
      <trkpt lat="48.08486" lon="3.41216">
        <ele>145</ele>
        <time>2014-04-13T08:05:14Z</time>
      </trkpt>
      <trkpt lat="48.08491" lon="3.41197">
        <ele>145</ele>
        <time>2014-04-13T08:05:25Z</time>
      </trkpt>
      <trkpt lat="48.08494" lon="3.4119">
        <ele>144</ele>
        <time>2014-04-13T08:05:30Z</time>
      </trkpt>
      <trkpt lat="48.08497" lon="3.41182">
        <ele>149</ele>
        <time>2014-04-13T08:05:35Z</time>
      </trkpt>
      <trkpt lat="48.08513" lon="3.41127">
        <ele>152</ele>
        <time>2014-04-13T08:06:05Z</time>
      </trkpt>
      <trkpt lat="48.08516" lon="3.41123">
        <ele>150</ele>
        <time>2014-04-13T08:06:08Z</time>
      </trkpt>
      <trkpt lat="48.08531" lon="3.41098">
        <ele>151</ele>
        <time>2014-04-13T08:06:26Z</time>
      </trkpt>
      <trkpt lat="48.08537" lon="3.41091">
        <ele>149</ele>
        <time>2014-04-13T08:06:32Z</time>
      </trkpt>
      <trkpt lat="48.08539" lon="3.4109">
        <ele>149</ele>
        <time>2014-04-13T08:06:34Z</time>
      </trkpt>
      <trkpt lat="48.08544" lon="3.41087">
        <ele>149</ele>
        <time>2014-04-13T08:06:39Z</time>
      </trkpt>
      <trkpt lat="48.08545" lon="3.41087">
        <ele>149</ele>
        <time>2014-04-13T08:06:40Z</time>
      </trkpt>
      <trkpt lat="48.08549" lon="3.41081">
        <ele>150</ele>
        <time>2014-04-13T08:06:45Z</time>
      </trkpt>
      <trkpt lat="48.08553" lon="3.41074">
        <ele>146</ele>
        <time>2014-04-13T08:06:51Z</time>
      </trkpt>
      <trkpt lat="48.08557" lon="3.41066">
        <ele>145</ele>
        <time>2014-04-13T08:06:55Z</time>
      </trkpt>
      <trkpt lat="48.08565" lon="3.41054">
        <ele>147</ele>
        <time>2014-04-13T08:07:05Z</time>
      </trkpt>
      <trkpt lat="48.08566" lon="3.41053">
        <ele>147</ele>
        <time>2014-04-13T08:07:06Z</time>
      </trkpt>
      <trkpt lat="48.08573" lon="3.41039">
        <ele>148</ele>
        <time>2014-04-13T08:07:16Z</time>
      </trkpt>
      <trkpt lat="48.08578" lon="3.41033">
        <ele>146</ele>
        <time>2014-04-13T08:07:21Z</time>
      </trkpt>
      <trkpt lat="48.08581" lon="3.41027">
        <ele>146</ele>
        <time>2014-04-13T08:07:25Z</time>
      </trkpt>
      <trkpt lat="48.08583" lon="3.41024">
        <ele>147</ele>
        <time>2014-04-13T08:07:27Z</time>
      </trkpt>
      <trkpt lat="48.08585" lon="3.41021">
        <ele>146</ele>
        <time>2014-04-13T08:07:29Z</time>
      </trkpt>
      <trkpt lat="48.08586" lon="3.41016">
        <ele>146</ele>
        <time>2014-04-13T08:07:32Z</time>
      </trkpt>
      <trkpt lat="48.08591" lon="3.41009">
        <ele>145</ele>
        <time>2014-04-13T08:07:37Z</time>
      </trkpt>
      <trkpt lat="48.08593" lon="3.41001">
        <ele>146</ele>
        <time>2014-04-13T08:07:41Z</time>
      </trkpt>
      <trkpt lat="48.08594" lon="3.41">
        <ele>146</ele>
        <time>2014-04-13T08:07:42Z</time>
      </trkpt>
      <trkpt lat="48.08598" lon="3.40995">
        <ele>146</ele>
        <time>2014-04-13T08:07:47Z</time>
      </trkpt>
      <trkpt lat="48.08605" lon="3.40984">
        <ele>146</ele>
        <time>2014-04-13T08:07:56Z</time>
      </trkpt>
      <trkpt lat="48.08606" lon="3.4098">
        <ele>144</ele>
        <time>2014-04-13T08:07:58Z</time>
      </trkpt>
      <trkpt lat="48.08608" lon="3.40977">
        <ele>146</ele>
        <time>2014-04-13T08:08:00Z</time>
      </trkpt>
      <trkpt lat="48.08612" lon="3.40972">
        <ele>148</ele>
        <time>2014-04-13T08:08:04Z</time>
      </trkpt>
      <trkpt lat="48.08621" lon="3.40962">
        <ele>147</ele>
        <time>2014-04-13T08:08:29Z</time>
      </trkpt>
      <trkpt lat="48.08624" lon="3.40959">
        <ele>146</ele>
        <time>2014-04-13T08:08:34Z</time>
      </trkpt>
      <trkpt lat="48.08627" lon="3.40958">
        <ele>147</ele>
        <time>2014-04-13T08:08:37Z</time>
      </trkpt>
      <trkpt lat="48.08629" lon="3.40957">
        <ele>149</ele>
        <time>2014-04-13T08:08:40Z</time>
      </trkpt>
      <trkpt lat="48.08634" lon="3.40952">
        <ele>148</ele>
        <time>2014-04-13T08:08:48Z</time>
      </trkpt>
      <trkpt lat="48.08635" lon="3.40949">
        <ele>150</ele>
        <time>2014-04-13T08:08:51Z</time>
      </trkpt>
      <trkpt lat="48.08638" lon="3.40943">
        <ele>149</ele>
        <time>2014-04-13T08:08:56Z</time>
      </trkpt>
      <trkpt lat="48.08641" lon="3.40936">
        <ele>149</ele>
        <time>2014-04-13T08:09:02Z</time>
      </trkpt>
      <trkpt lat="48.08644" lon="3.40934">
        <ele>150</ele>
        <time>2014-04-13T08:09:06Z</time>
      </trkpt>
      <trkpt lat="48.08645" lon="3.40931">
        <ele>149</ele>
        <time>2014-04-13T08:09:08Z</time>
      </trkpt>
      <trkpt lat="48.08647" lon="3.40927">
        <ele>149</ele>
        <time>2014-04-13T08:09:10Z</time>
      </trkpt>
      <trkpt lat="48.08649" lon="3.40924">
        <ele>149</ele>
        <time>2014-04-13T08:09:12Z</time>
      </trkpt>
      <trkpt lat="48.08651" lon="3.40919">
        <ele>147</ele>
        <time>2014-04-13T08:09:15Z</time>
      </trkpt>
      <trkpt lat="48.08653" lon="3.40911">
        <ele>145</ele>
        <time>2014-04-13T08:09:28Z</time>
      </trkpt>
      <trkpt lat="48.08653" lon="3.40907">
        <ele>158</ele>
        <time>2014-04-13T08:09:35Z</time>
      </trkpt>
      <trkpt lat="48.08654" lon="3.40904">
        <ele>153</ele>
        <time>2014-04-13T08:09:38Z</time>
      </trkpt>
      <trkpt lat="48.08661" lon="3.40893">
        <ele>161</ele>
        <time>2014-04-13T08:09:48Z</time>
      </trkpt>
      <trkpt lat="48.08662" lon="3.40889">
        <ele>160</ele>
        <time>2014-04-13T08:09:50Z</time>
      </trkpt>
      <trkpt lat="48.08663" lon="3.40882">
        <ele>157</ele>
        <time>2014-04-13T08:09:54Z</time>
      </trkpt>
      <trkpt lat="48.08665" lon="3.40878">
        <ele>156</ele>
        <time>2014-04-13T08:09:56Z</time>
      </trkpt>
      <trkpt lat="48.08665" lon="3.40873">
        <ele>156</ele>
        <time>2014-04-13T08:09:58Z</time>
      </trkpt>
      <trkpt lat="48.08666" lon="3.40868">
        <ele>155</ele>
        <time>2014-04-13T08:10:00Z</time>
      </trkpt>
      <trkpt lat="48.08668" lon="3.40864">
        <ele>157</ele>
        <time>2014-04-13T08:10:02Z</time>
      </trkpt>
      <trkpt lat="48.08669" lon="3.40857">
        <ele>158</ele>
        <time>2014-04-13T08:10:05Z</time>
      </trkpt>
      <trkpt lat="48.08669" lon="3.40854">
        <ele>157</ele>
        <time>2014-04-13T08:10:07Z</time>
      </trkpt>
      <trkpt lat="48.08676" lon="3.40826">
        <ele>159</ele>
        <time>2014-04-13T08:10:28Z</time>
      </trkpt>
      <trkpt lat="48.08679" lon="3.40819">
        <ele>158</ele>
        <time>2014-04-13T08:10:32Z</time>
      </trkpt>
      <trkpt lat="48.0868" lon="3.40816">
        <ele>158</ele>
        <time>2014-04-13T08:10:34Z</time>
      </trkpt>
      <trkpt lat="48.08681" lon="3.40812">
        <ele>159</ele>
        <time>2014-04-13T08:10:37Z</time>
      </trkpt>
      <trkpt lat="48.08682" lon="3.40807">
        <ele>156</ele>
        <time>2014-04-13T08:10:40Z</time>
      </trkpt>
      <trkpt lat="48.08683" lon="3.40802">
        <ele>156</ele>
        <time>2014-04-13T08:10:44Z</time>
      </trkpt>
      <trkpt lat="48.08684" lon="3.40798">
        <ele>158</ele>
        <time>2014-04-13T08:10:45Z</time>
      </trkpt>
      <trkpt lat="48.08684" lon="3.40793">
        <ele>159</ele>
        <time>2014-04-13T08:10:47Z</time>
      </trkpt>
      <trkpt lat="48.08684" lon="3.40789">
        <ele>157</ele>
        <time>2014-04-13T08:10:49Z</time>
      </trkpt>
      <trkpt lat="48.08686" lon="3.40785">
        <ele>153</ele>
        <time>2014-04-13T08:10:52Z</time>
      </trkpt>
      <trkpt lat="48.08686" lon="3.40779">
        <ele>159</ele>
        <time>2014-04-13T08:10:55Z</time>
      </trkpt>
      <trkpt lat="48.08687" lon="3.40775">
        <ele>161</ele>
        <time>2014-04-13T08:10:57Z</time>
      </trkpt>
      <trkpt lat="48.08688" lon="3.40772">
        <ele>155</ele>
        <time>2014-04-13T08:10:59Z</time>
      </trkpt>
      <trkpt lat="48.08689" lon="3.40758">
        <ele>158</ele>
        <time>2014-04-13T08:11:07Z</time>
      </trkpt>
      <trkpt lat="48.08689" lon="3.40752">
        <ele>157</ele>
        <time>2014-04-13T08:11:12Z</time>
      </trkpt>
      <trkpt lat="48.0869" lon="3.40748">
        <ele>155</ele>
        <time>2014-04-13T08:11:14Z</time>
      </trkpt>
      <trkpt lat="48.08692" lon="3.40745">
        <ele>152</ele>
        <time>2014-04-13T08:11:17Z</time>
      </trkpt>
      <trkpt lat="48.08692" lon="3.40741">
        <ele>152</ele>
        <time>2014-04-13T08:11:19Z</time>
      </trkpt>
      <trkpt lat="48.08696" lon="3.4073">
        <ele>147</ele>
        <time>2014-04-13T08:11:31Z</time>
      </trkpt>
      <trkpt lat="48.08696" lon="3.40727">
        <ele>150</ele>
        <time>2014-04-13T08:11:42Z</time>
      </trkpt>
      <trkpt lat="48.08696" lon="3.40723">
        <ele>149</ele>
        <time>2014-04-13T08:11:44Z</time>
      </trkpt>
      <trkpt lat="48.08697" lon="3.40719">
        <ele>149</ele>
        <time>2014-04-13T08:11:46Z</time>
      </trkpt>
      <trkpt lat="48.087" lon="3.40705">
        <ele>146</ele>
        <time>2014-04-13T08:11:55Z</time>
      </trkpt>
      <trkpt lat="48.08701" lon="3.407">
        <ele>146</ele>
        <time>2014-04-13T08:11:58Z</time>
      </trkpt>
      <trkpt lat="48.08702" lon="3.40693">
        <ele>146</ele>
        <time>2014-04-13T08:12:02Z</time>
      </trkpt>
      <trkpt lat="48.08704" lon="3.40682">
        <ele>144</ele>
        <time>2014-04-13T08:12:08Z</time>
      </trkpt>
      <trkpt lat="48.08707" lon="3.40668">
        <ele>144</ele>
        <time>2014-04-13T08:12:17Z</time>
      </trkpt>
      <trkpt lat="48.08708" lon="3.4066">
        <ele>144</ele>
        <time>2014-04-13T08:12:22Z</time>
      </trkpt>
      <trkpt lat="48.0871" lon="3.40645">
        <ele>142</ele>
        <time>2014-04-13T08:12:29Z</time>
      </trkpt>
      <trkpt lat="48.08712" lon="3.40637">
        <ele>142</ele>
        <time>2014-04-13T08:12:33Z</time>
      </trkpt>
      <trkpt lat="48.08715" lon="3.40622">
        <ele>140</ele>
        <time>2014-04-13T08:12:43Z</time>
      </trkpt>
      <trkpt lat="48.08715" lon="3.40619">
        <ele>139</ele>
        <time>2014-04-13T08:12:45Z</time>
      </trkpt>
      <trkpt lat="48.08719" lon="3.40588">
        <ele>138</ele>
        <time>2014-04-13T08:13:03Z</time>
      </trkpt>
      <trkpt lat="48.0872" lon="3.40585">
        <ele>138</ele>
        <time>2014-04-13T08:13:05Z</time>
      </trkpt>
      <trkpt lat="48.08721" lon="3.40575">
        <ele>137</ele>
        <time>2014-04-13T08:13:11Z</time>
      </trkpt>
      <trkpt lat="48.08724" lon="3.4056">
        <ele>136</ele>
        <time>2014-04-13T08:13:19Z</time>
      </trkpt>
      <trkpt lat="48.08725" lon="3.40556">
        <ele>132</ele>
        <time>2014-04-13T08:13:22Z</time>
      </trkpt>
      <trkpt lat="48.08726" lon="3.40549">
        <ele>134</ele>
        <time>2014-04-13T08:13:26Z</time>
      </trkpt>
      <trkpt lat="48.08728" lon="3.40535">
        <ele>134</ele>
        <time>2014-04-13T08:13:35Z</time>
      </trkpt>
      <trkpt lat="48.08727" lon="3.40531">
        <ele>134</ele>
        <time>2014-04-13T08:13:37Z</time>
      </trkpt>
      <trkpt lat="48.08725" lon="3.40522">
        <ele>126</ele>
        <time>2014-04-13T08:13:45Z</time>
      </trkpt>
      <trkpt lat="48.08723" lon="3.4052">
        <ele>122</ele>
        <time>2014-04-13T08:13:49Z</time>
      </trkpt>
      <trkpt lat="48.0872" lon="3.40517">
        <ele>128</ele>
        <time>2014-04-13T08:13:51Z</time>
      </trkpt>
      <trkpt lat="48.08718" lon="3.40515">
        <ele>130</ele>
        <time>2014-04-13T08:13:53Z</time>
      </trkpt>
      <trkpt lat="48.08709" lon="3.40508">
        <ele>123</ele>
        <time>2014-04-13T08:14:02Z</time>
      </trkpt>
      <trkpt lat="48.08708" lon="3.405">
        <ele>128</ele>
        <time>2014-04-13T08:14:07Z</time>
      </trkpt>
      <trkpt lat="48.08708" lon="3.405">
        <ele>128</ele>
        <time>2014-04-13T08:14:08Z</time>
      </trkpt>
      <trkpt lat="48.08713" lon="3.40496">
        <ele>133</ele>
        <time>2014-04-13T08:14:13Z</time>
      </trkpt>
      <trkpt lat="48.08716" lon="3.40491">
        <ele>132</ele>
        <time>2014-04-13T08:14:17Z</time>
      </trkpt>
      <trkpt lat="48.08718" lon="3.40489">
        <ele>131</ele>
        <time>2014-04-13T08:14:20Z</time>
      </trkpt>
      <trkpt lat="48.08724" lon="3.40486">
        <ele>135</ele>
        <time>2014-04-13T08:14:25Z</time>
      </trkpt>
      <trkpt lat="48.0873" lon="3.40486">
        <ele>129</ele>
        <time>2014-04-13T08:14:30Z</time>
      </trkpt>
      <trkpt lat="48.08735" lon="3.40486">
        <ele>129</ele>
        <time>2014-04-13T08:14:33Z</time>
      </trkpt>
      <trkpt lat="48.08739" lon="3.40487">
        <ele>126</ele>
        <time>2014-04-13T08:14:36Z</time>
      </trkpt>
      <trkpt lat="48.08741" lon="3.40487">
        <ele>127</ele>
        <time>2014-04-13T08:14:38Z</time>
      </trkpt>
      <trkpt lat="48.08744" lon="3.40488">
        <ele>128</ele>
        <time>2014-04-13T08:14:40Z</time>
      </trkpt>
      <trkpt lat="48.08751" lon="3.4049">
        <ele>132</ele>
        <time>2014-04-13T08:14:45Z</time>
      </trkpt>
      <trkpt lat="48.08754" lon="3.4049">
        <ele>132</ele>
        <time>2014-04-13T08:14:47Z</time>
      </trkpt>
      <trkpt lat="48.08759" lon="3.40491">
        <ele>132</ele>
        <time>2014-04-13T08:14:52Z</time>
      </trkpt>
      <trkpt lat="48.08769" lon="3.40491">
        <ele>133</ele>
        <time>2014-04-13T08:15:01Z</time>
      </trkpt>
      <trkpt lat="48.08776" lon="3.40488">
        <ele>132</ele>
        <time>2014-04-13T08:15:08Z</time>
      </trkpt>
      <trkpt lat="48.08779" lon="3.40488">
        <ele>134</ele>
        <time>2014-04-13T08:15:10Z</time>
      </trkpt>
      <trkpt lat="48.08783" lon="3.40488">
        <ele>136</ele>
        <time>2014-04-13T08:15:12Z</time>
      </trkpt>
      <trkpt lat="48.08787" lon="3.40488">
        <ele>137</ele>
        <time>2014-04-13T08:15:14Z</time>
      </trkpt>
      <trkpt lat="48.08793" lon="3.40485">
        <ele>137</ele>
        <time>2014-04-13T08:15:19Z</time>
      </trkpt>
      <trkpt lat="48.08799" lon="3.40484">
        <ele>137</ele>
        <time>2014-04-13T08:15:25Z</time>
      </trkpt>
      <trkpt lat="48.08801" lon="3.40483">
        <ele>137</ele>
        <time>2014-04-13T08:15:27Z</time>
      </trkpt>
      <trkpt lat="48.08807" lon="3.40481">
        <ele>138</ele>
        <time>2014-04-13T08:15:32Z</time>
      </trkpt>
      <trkpt lat="48.08812" lon="3.40479">
        <ele>137</ele>
        <time>2014-04-13T08:15:37Z</time>
      </trkpt>
      <trkpt lat="48.08813" lon="3.40479">
        <ele>137</ele>
        <time>2014-04-13T08:15:38Z</time>
      </trkpt>
      <trkpt lat="48.08815" lon="3.40478">
        <ele>138</ele>
        <time>2014-04-13T08:15:40Z</time>
      </trkpt>
      <trkpt lat="48.08818" lon="3.40476">
        <ele>138</ele>
        <time>2014-04-13T08:15:43Z</time>
      </trkpt>
      <trkpt lat="48.08821" lon="3.40474">
        <ele>138</ele>
        <time>2014-04-13T08:15:45Z</time>
      </trkpt>
      <trkpt lat="48.08823" lon="3.40474">
        <ele>140</ele>
        <time>2014-04-13T08:15:47Z</time>
      </trkpt>
      <trkpt lat="48.08842" lon="3.40466">
        <ele>141</ele>
        <time>2014-04-13T08:16:03Z</time>
      </trkpt>
      <trkpt lat="48.08844" lon="3.40464">
        <ele>137</ele>
        <time>2014-04-13T08:16:05Z</time>
      </trkpt>
      <trkpt lat="48.08847" lon="3.40464">
        <ele>136</ele>
        <time>2014-04-13T08:16:07Z</time>
      </trkpt>
      <trkpt lat="48.08853" lon="3.40463">
        <ele>140</ele>
        <time>2014-04-13T08:16:12Z</time>
      </trkpt>
      <trkpt lat="48.08856" lon="3.40463">
        <ele>139</ele>
        <time>2014-04-13T08:16:15Z</time>
      </trkpt>
      <trkpt lat="48.08861" lon="3.40462">
        <ele>139</ele>
        <time>2014-04-13T08:16:19Z</time>
      </trkpt>
      <trkpt lat="48.08863" lon="3.40462">
        <ele>140</ele>
        <time>2014-04-13T08:16:21Z</time>
      </trkpt>
      <trkpt lat="48.08869" lon="3.40461">
        <ele>141</ele>
        <time>2014-04-13T08:16:25Z</time>
      </trkpt>
      <trkpt lat="48.0887" lon="3.40461">
        <ele>141</ele>
        <time>2014-04-13T08:16:26Z</time>
      </trkpt>
      <trkpt lat="48.08874" lon="3.40458">
        <ele>140</ele>
        <time>2014-04-13T08:16:29Z</time>
      </trkpt>
      <trkpt lat="48.08879" lon="3.40457">
        <ele>140</ele>
        <time>2014-04-13T08:16:33Z</time>
      </trkpt>
      <trkpt lat="48.08881" lon="3.40456">
        <ele>141</ele>
        <time>2014-04-13T08:16:35Z</time>
      </trkpt>
      <trkpt lat="48.08889" lon="3.40453">
        <ele>143</ele>
        <time>2014-04-13T08:16:41Z</time>
      </trkpt>
      <trkpt lat="48.08891" lon="3.40453">
        <ele>144</ele>
        <time>2014-04-13T08:16:43Z</time>
      </trkpt>
      <trkpt lat="48.08901" lon="3.40453">
        <ele>145</ele>
        <time>2014-04-13T08:16:51Z</time>
      </trkpt>
      <trkpt lat="48.08904" lon="3.40452">
        <ele>145</ele>
        <time>2014-04-13T08:16:54Z</time>
      </trkpt>
      <trkpt lat="48.08907" lon="3.40452">
        <ele>144</ele>
        <time>2014-04-13T08:16:56Z</time>
      </trkpt>
      <trkpt lat="48.08909" lon="3.40452">
        <ele>145</ele>
        <time>2014-04-13T08:16:58Z</time>
      </trkpt>
      <trkpt lat="48.08918" lon="3.40453">
        <ele>145</ele>
        <time>2014-04-13T08:17:06Z</time>
      </trkpt>
      <trkpt lat="48.08928" lon="3.40454">
        <ele>145</ele>
        <time>2014-04-13T08:17:15Z</time>
      </trkpt>
      <trkpt lat="48.08935" lon="3.40454">
        <ele>147</ele>
        <time>2014-04-13T08:17:21Z</time>
      </trkpt>
      <trkpt lat="48.08938" lon="3.40454">
        <ele>147</ele>
        <time>2014-04-13T08:17:23Z</time>
      </trkpt>
      <trkpt lat="48.08941" lon="3.40453">
        <ele>145</ele>
        <time>2014-04-13T08:17:25Z</time>
      </trkpt>
      <trkpt lat="48.08943" lon="3.40452">
        <ele>147</ele>
        <time>2014-04-13T08:17:27Z</time>
      </trkpt>
      <trkpt lat="48.08952" lon="3.40449">
        <ele>151</ele>
        <time>2014-04-13T08:17:36Z</time>
      </trkpt>
      <trkpt lat="48.08955" lon="3.4045">
        <ele>150</ele>
        <time>2014-04-13T08:17:39Z</time>
      </trkpt>
      <trkpt lat="48.0896" lon="3.4045">
        <ele>147</ele>
        <time>2014-04-13T08:17:43Z</time>
      </trkpt>
      <trkpt lat="48.08963" lon="3.40451">
        <ele>146</ele>
        <time>2014-04-13T08:17:45Z</time>
      </trkpt>
      <trkpt lat="48.08965" lon="3.40451">
        <ele>147</ele>
        <time>2014-04-13T08:17:47Z</time>
      </trkpt>
      <trkpt lat="48.0897" lon="3.40453">
        <ele>151</ele>
        <time>2014-04-13T08:17:52Z</time>
      </trkpt>
      <trkpt lat="48.0898" lon="3.40455">
        <ele>154</ele>
        <time>2014-04-13T08:18:00Z</time>
      </trkpt>
      <trkpt lat="48.08984" lon="3.40456">
        <ele>156</ele>
        <time>2014-04-13T08:18:03Z</time>
      </trkpt>
      <trkpt lat="48.08987" lon="3.40457">
        <ele>154</ele>
        <time>2014-04-13T08:18:06Z</time>
      </trkpt>
      <trkpt lat="48.08991" lon="3.40456">
        <ele>154</ele>
        <time>2014-04-13T08:18:09Z</time>
      </trkpt>
      <trkpt lat="48.08997" lon="3.40455">
        <ele>155</ele>
        <time>2014-04-13T08:18:13Z</time>
      </trkpt>
      <trkpt lat="48.09005" lon="3.40451">
        <ele>160</ele>
        <time>2014-04-13T08:18:21Z</time>
      </trkpt>
      <trkpt lat="48.0901" lon="3.40445">
        <ele>163</ele>
        <time>2014-04-13T08:18:28Z</time>
      </trkpt>
      <trkpt lat="48.09016" lon="3.40443">
        <ele>162</ele>
        <time>2014-04-13T08:18:34Z</time>
      </trkpt>
      <trkpt lat="48.09021" lon="3.40442">
        <ele>161</ele>
        <time>2014-04-13T08:18:38Z</time>
      </trkpt>
      <trkpt lat="48.09027" lon="3.40442">
        <ele>162</ele>
        <time>2014-04-13T08:18:44Z</time>
      </trkpt>
      <trkpt lat="48.09033" lon="3.40441">
        <ele>164</ele>
        <time>2014-04-13T08:18:48Z</time>
      </trkpt>
      <trkpt lat="48.09039" lon="3.40438">
        <ele>164</ele>
        <time>2014-04-13T08:18:53Z</time>
      </trkpt>
      <trkpt lat="48.09046" lon="3.40436">
        <ele>168</ele>
        <time>2014-04-13T08:19:01Z</time>
      </trkpt>
      <trkpt lat="48.09052" lon="3.40439">
        <ele>169</ele>
        <time>2014-04-13T08:19:06Z</time>
      </trkpt>
      <trkpt lat="48.09057" lon="3.4044">
        <ele>167</ele>
        <time>2014-04-13T08:19:10Z</time>
      </trkpt>
      <trkpt lat="48.09062" lon="3.40443">
        <ele>162</ele>
        <time>2014-04-13T08:19:15Z</time>
      </trkpt>
      <trkpt lat="48.09065" lon="3.40448">
        <ele>164</ele>
        <time>2014-04-13T08:19:20Z</time>
      </trkpt>
      <trkpt lat="48.09072" lon="3.40455">
        <ele>158</ele>
        <time>2014-04-13T08:19:27Z</time>
      </trkpt>
      <trkpt lat="48.09087" lon="3.40471">
        <ele>154</ele>
        <time>2014-04-13T08:19:45Z</time>
      </trkpt>
      <trkpt lat="48.09095" lon="3.40479">
        <ele>158</ele>
        <time>2014-04-13T08:19:53Z</time>
      </trkpt>
      <trkpt lat="48.09102" lon="3.40482">
        <ele>162</ele>
        <time>2014-04-13T08:20:04Z</time>
      </trkpt>
      <trkpt lat="48.0911" lon="3.40482">
        <ele>158</ele>
        <time>2014-04-13T08:20:10Z</time>
      </trkpt>
      <trkpt lat="48.09116" lon="3.40479">
        <ele>164</ele>
        <time>2014-04-13T08:20:16Z</time>
      </trkpt>
      <trkpt lat="48.09121" lon="3.40478">
        <ele>166</ele>
        <time>2014-04-13T08:20:20Z</time>
      </trkpt>
      <trkpt lat="48.09134" lon="3.40473">
        <ele>173</ele>
        <time>2014-04-13T08:20:30Z</time>
      </trkpt>
      <trkpt lat="48.09138" lon="3.40469">
        <ele>175</ele>
        <time>2014-04-13T08:20:33Z</time>
      </trkpt>
      <trkpt lat="48.09142" lon="3.40463">
        <ele>172</ele>
        <time>2014-04-13T08:20:36Z</time>
      </trkpt>
      <trkpt lat="48.09144" lon="3.40456">
        <ele>170</ele>
        <time>2014-04-13T08:20:40Z</time>
      </trkpt>
      <trkpt lat="48.09148" lon="3.4045">
        <ele>179</ele>
        <time>2014-04-13T08:20:45Z</time>
      </trkpt>
      <trkpt lat="48.09153" lon="3.40443">
        <ele>179</ele>
        <time>2014-04-13T08:20:52Z</time>
      </trkpt>
      <trkpt lat="48.09165" lon="3.40427">
        <ele>178</ele>
        <time>2014-04-13T08:21:05Z</time>
      </trkpt>
      <trkpt lat="48.09172" lon="3.40426">
        <ele>179</ele>
        <time>2014-04-13T08:21:10Z</time>
      </trkpt>
      <trkpt lat="48.0918" lon="3.40423">
        <ele>179</ele>
        <time>2014-04-13T08:21:18Z</time>
      </trkpt>
      <trkpt lat="48.09185" lon="3.40419">
        <ele>181</ele>
        <time>2014-04-13T08:21:24Z</time>
      </trkpt>
      <trkpt lat="48.09191" lon="3.40418">
        <ele>184</ele>
        <time>2014-04-13T08:21:29Z</time>
      </trkpt>
      <trkpt lat="48.09196" lon="3.40415">
        <ele>184</ele>
        <time>2014-04-13T08:21:34Z</time>
      </trkpt>
      <trkpt lat="48.09202" lon="3.40413">
        <ele>185</ele>
        <time>2014-04-13T08:21:39Z</time>
      </trkpt>
      <trkpt lat="48.09205" lon="3.40408">
        <ele>185</ele>
        <time>2014-04-13T08:21:43Z</time>
      </trkpt>
      <trkpt lat="48.0921" lon="3.40404">
        <ele>186</ele>
        <time>2014-04-13T08:21:48Z</time>
      </trkpt>
      <trkpt lat="48.09215" lon="3.40401">
        <ele>186</ele>
        <time>2014-04-13T08:21:53Z</time>
      </trkpt>
      <trkpt lat="48.09217" lon="3.40398">
        <ele>186</ele>
        <time>2014-04-13T08:21:56Z</time>
      </trkpt>
      <trkpt lat="48.0922" lon="3.40395">
        <ele>186</ele>
        <time>2014-04-13T08:21:59Z</time>
      </trkpt>
      <trkpt lat="48.09222" lon="3.40392">
        <ele>185</ele>
        <time>2014-04-13T08:22:02Z</time>
      </trkpt>
      <trkpt lat="48.09228" lon="3.4039">
        <ele>188</ele>
        <time>2014-04-13T08:22:07Z</time>
      </trkpt>
      <trkpt lat="48.09236" lon="3.40383">
        <ele>185</ele>
        <time>2014-04-13T08:22:15Z</time>
      </trkpt>
      <trkpt lat="48.09248" lon="3.40376">
        <ele>188</ele>
        <time>2014-04-13T08:22:26Z</time>
      </trkpt>
      <trkpt lat="48.09253" lon="3.40375">
        <ele>188</ele>
        <time>2014-04-13T08:22:31Z</time>
      </trkpt>
      <trkpt lat="48.09259" lon="3.40377">
        <ele>188</ele>
        <time>2014-04-13T08:22:35Z</time>
      </trkpt>
      <trkpt lat="48.09265" lon="3.40376">
        <ele>188</ele>
        <time>2014-04-13T08:22:41Z</time>
      </trkpt>
      <trkpt lat="48.0927" lon="3.40374">
        <ele>186</ele>
        <time>2014-04-13T08:22:46Z</time>
      </trkpt>
      <trkpt lat="48.09279" lon="3.40372">
        <ele>186</ele>
        <time>2014-04-13T08:22:54Z</time>
      </trkpt>
      <trkpt lat="48.09285" lon="3.40372">
        <ele>187</ele>
        <time>2014-04-13T08:22:59Z</time>
      </trkpt>
      <trkpt lat="48.09291" lon="3.40371">
        <ele>191</ele>
        <time>2014-04-13T08:23:05Z</time>
      </trkpt>
      <trkpt lat="48.09305" lon="3.40365">
        <ele>187</ele>
        <time>2014-04-13T08:23:17Z</time>
      </trkpt>
      <trkpt lat="48.0931" lon="3.40362">
        <ele>190</ele>
        <time>2014-04-13T08:23:21Z</time>
      </trkpt>
      <trkpt lat="48.0933" lon="3.40353">
        <ele>192</ele>
        <time>2014-04-13T08:23:36Z</time>
      </trkpt>
      <trkpt lat="48.09335" lon="3.40351">
        <ele>193</ele>
        <time>2014-04-13T08:23:39Z</time>
      </trkpt>
      <trkpt lat="48.09349" lon="3.40347">
        <ele>193</ele>
        <time>2014-04-13T08:23:50Z</time>
      </trkpt>
      <trkpt lat="48.09354" lon="3.40345">
        <ele>194</ele>
        <time>2014-04-13T08:23:54Z</time>
      </trkpt>
      <trkpt lat="48.09362" lon="3.4034">
        <ele>194</ele>
        <time>2014-04-13T08:24:01Z</time>
      </trkpt>
      <trkpt lat="48.09365" lon="3.40337">
        <ele>197</ele>
        <time>2014-04-13T08:24:03Z</time>
      </trkpt>
      <trkpt lat="48.09367" lon="3.40336">
        <ele>198</ele>
        <time>2014-04-13T08:24:05Z</time>
      </trkpt>
      <trkpt lat="48.09382" lon="3.4033">
        <ele>195</ele>
        <time>2014-04-13T08:24:18Z</time>
      </trkpt>
      <trkpt lat="48.09388" lon="3.40329">
        <ele>196</ele>
        <time>2014-04-13T08:24:23Z</time>
      </trkpt>
      <trkpt lat="48.09392" lon="3.40328">
        <ele>196</ele>
        <time>2014-04-13T08:24:27Z</time>
      </trkpt>
      <trkpt lat="48.09402" lon="3.40328">
        <ele>193</ele>
        <time>2014-04-13T08:24:36Z</time>
      </trkpt>
      <trkpt lat="48.09405" lon="3.40329">
        <ele>195</ele>
        <time>2014-04-13T08:24:38Z</time>
      </trkpt>
      <trkpt lat="48.09407" lon="3.40329">
        <ele>196</ele>
        <time>2014-04-13T08:24:40Z</time>
      </trkpt>
      <trkpt lat="48.09412" lon="3.40331">
        <ele>195</ele>
        <time>2014-04-13T08:24:44Z</time>
      </trkpt>
      <trkpt lat="48.09414" lon="3.40331">
        <ele>195</ele>
        <time>2014-04-13T08:24:45Z</time>
      </trkpt>
      <trkpt lat="48.09416" lon="3.40333">
        <ele>196</ele>
        <time>2014-04-13T08:24:47Z</time>
      </trkpt>
      <trkpt lat="48.09419" lon="3.40333">
        <ele>196</ele>
        <time>2014-04-13T08:24:49Z</time>
      </trkpt>
      <trkpt lat="48.09428" lon="3.40336">
        <ele>193</ele>
        <time>2014-04-13T08:24:57Z</time>
      </trkpt>
      <trkpt lat="48.09431" lon="3.40337">
        <ele>192</ele>
        <time>2014-04-13T08:24:59Z</time>
      </trkpt>
      <trkpt lat="48.09434" lon="3.40337">
        <ele>192</ele>
        <time>2014-04-13T08:25:01Z</time>
      </trkpt>
      <trkpt lat="48.09436" lon="3.40338">
        <ele>194</ele>
        <time>2014-04-13T08:25:03Z</time>
      </trkpt>
      <trkpt lat="48.0944" lon="3.40339">
        <ele>196</ele>
        <time>2014-04-13T08:25:06Z</time>
      </trkpt>
      <trkpt lat="48.09443" lon="3.4034">
        <ele>197</ele>
        <time>2014-04-13T08:25:08Z</time>
      </trkpt>
      <trkpt lat="48.09445" lon="3.4034">
        <ele>195</ele>
        <time>2014-04-13T08:25:10Z</time>
      </trkpt>
      <trkpt lat="48.09447" lon="3.4034">
        <ele>194</ele>
        <time>2014-04-13T08:25:12Z</time>
      </trkpt>
      <trkpt lat="48.0945" lon="3.40341">
        <ele>193</ele>
        <time>2014-04-13T08:25:14Z</time>
      </trkpt>
      <trkpt lat="48.09457" lon="3.40341">
        <ele>194</ele>
        <time>2014-04-13T08:25:20Z</time>
      </trkpt>
      <trkpt lat="48.0946" lon="3.40341">
        <ele>194</ele>
        <time>2014-04-13T08:25:22Z</time>
      </trkpt>
      <trkpt lat="48.09463" lon="3.40343">
        <ele>194</ele>
        <time>2014-04-13T08:25:25Z</time>
      </trkpt>
      <trkpt lat="48.09478" lon="3.40348">
        <ele>193</ele>
        <time>2014-04-13T08:25:37Z</time>
      </trkpt>
      <trkpt lat="48.09483" lon="3.40349">
        <ele>194</ele>
        <time>2014-04-13T08:25:41Z</time>
      </trkpt>
      <trkpt lat="48.09503" lon="3.40354">
        <ele>199</ele>
        <time>2014-04-13T08:25:56Z</time>
      </trkpt>
      <trkpt lat="48.09508" lon="3.40354">
        <ele>201</ele>
        <time>2014-04-13T08:26:01Z</time>
      </trkpt>
      <trkpt lat="48.09508" lon="3.40354">
        <ele>201</ele>
        <time>2014-04-13T08:26:02Z</time>
      </trkpt>
      <trkpt lat="48.09511" lon="3.40355">
        <ele>200</ele>
        <time>2014-04-13T08:26:04Z</time>
      </trkpt>
      <trkpt lat="48.09516" lon="3.40356">
        <ele>200</ele>
        <time>2014-04-13T08:26:08Z</time>
      </trkpt>
      <trkpt lat="48.09536" lon="3.40362">
        <ele>203</ele>
        <time>2014-04-13T08:26:22Z</time>
      </trkpt>
      <trkpt lat="48.09542" lon="3.4036">
        <ele>200</ele>
        <time>2014-04-13T08:26:27Z</time>
      </trkpt>
      <trkpt lat="48.09544" lon="3.40358">
        <ele>200</ele>
        <time>2014-04-13T08:26:29Z</time>
      </trkpt>
      <trkpt lat="48.09547" lon="3.40356">
        <ele>200</ele>
        <time>2014-04-13T08:26:32Z</time>
      </trkpt>
      <trkpt lat="48.09551" lon="3.40349">
        <ele>198</ele>
        <time>2014-04-13T08:26:44Z</time>
      </trkpt>
      <trkpt lat="48.09559" lon="3.40334">
        <ele>201</ele>
        <time>2014-04-13T08:27:06Z</time>
      </trkpt>
      <trkpt lat="48.09564" lon="3.40329">
        <ele>200</ele>
        <time>2014-04-13T08:27:11Z</time>
      </trkpt>
      <trkpt lat="48.0957" lon="3.40322">
        <ele>200</ele>
        <time>2014-04-13T08:27:17Z</time>
      </trkpt>
      <trkpt lat="48.09572" lon="3.40319">
        <ele>199</ele>
        <time>2014-04-13T08:27:19Z</time>
      </trkpt>
      <trkpt lat="48.09574" lon="3.40316">
        <ele>200</ele>
        <time>2014-04-13T08:27:21Z</time>
      </trkpt>
      <trkpt lat="48.09576" lon="3.40313">
        <ele>200</ele>
        <time>2014-04-13T08:27:23Z</time>
      </trkpt>
      <trkpt lat="48.09578" lon="3.40309">
        <ele>200</ele>
        <time>2014-04-13T08:27:26Z</time>
      </trkpt>
      <trkpt lat="48.0958" lon="3.40306">
        <ele>201</ele>
        <time>2014-04-13T08:27:28Z</time>
      </trkpt>
      <trkpt lat="48.09585" lon="3.40298">
        <ele>201</ele>
        <time>2014-04-13T08:27:33Z</time>
      </trkpt>
      <trkpt lat="48.09587" lon="3.40295">
        <ele>202</ele>
        <time>2014-04-13T08:27:35Z</time>
      </trkpt>
      <trkpt lat="48.09589" lon="3.40292">
        <ele>201</ele>
        <time>2014-04-13T08:27:37Z</time>
      </trkpt>
      <trkpt lat="48.0959" lon="3.40288">
        <ele>200</ele>
        <time>2014-04-13T08:27:39Z</time>
      </trkpt>
      <trkpt lat="48.09591" lon="3.40285">
        <ele>201</ele>
        <time>2014-04-13T08:27:41Z</time>
      </trkpt>
      <trkpt lat="48.09593" lon="3.40281">
        <ele>200</ele>
        <time>2014-04-13T08:27:44Z</time>
      </trkpt>
      <trkpt lat="48.09607" lon="3.40257">
        <ele>197</ele>
        <time>2014-04-13T08:28:00Z</time>
      </trkpt>
      <trkpt lat="48.09609" lon="3.40254">
        <ele>199</ele>
        <time>2014-04-13T08:28:02Z</time>
      </trkpt>
      <trkpt lat="48.09611" lon="3.40251">
        <ele>199</ele>
        <time>2014-04-13T08:28:04Z</time>
      </trkpt>
      <trkpt lat="48.09614" lon="3.40245">
        <ele>199</ele>
        <time>2014-04-13T08:28:08Z</time>
      </trkpt>
      <trkpt lat="48.09615" lon="3.40242">
        <ele>198</ele>
        <time>2014-04-13T08:28:10Z</time>
      </trkpt>
      <trkpt lat="48.0962" lon="3.40232">
        <ele>194</ele>
        <time>2014-04-13T08:28:17Z</time>
      </trkpt>
      <trkpt lat="48.0964" lon="3.40188">
        <ele>195</ele>
        <time>2014-04-13T08:28:42Z</time>
      </trkpt>
      <trkpt lat="48.09643" lon="3.40181">
        <ele>195</ele>
        <time>2014-04-13T08:28:46Z</time>
      </trkpt>
      <trkpt lat="48.09646" lon="3.40177">
        <ele>195</ele>
        <time>2014-04-13T08:28:49Z</time>
      </trkpt>
      <trkpt lat="48.09652" lon="3.40165">
        <ele>196</ele>
        <time>2014-04-13T08:28:56Z</time>
      </trkpt>
      <trkpt lat="48.09653" lon="3.40161">
        <ele>197</ele>
        <time>2014-04-13T08:28:58Z</time>
      </trkpt>
      <trkpt lat="48.09655" lon="3.40157">
        <ele>196</ele>
        <time>2014-04-13T08:29:00Z</time>
      </trkpt>
      <trkpt lat="48.09657" lon="3.40154">
        <ele>196</ele>
        <time>2014-04-13T08:29:02Z</time>
      </trkpt>
      <trkpt lat="48.09658" lon="3.40151">
        <ele>195</ele>
        <time>2014-04-13T08:29:04Z</time>
      </trkpt>
      <trkpt lat="48.0966" lon="3.40148">
        <ele>194</ele>
        <time>2014-04-13T08:29:06Z</time>
      </trkpt>
      <trkpt lat="48.09666" lon="3.40136">
        <ele>193</ele>
        <time>2014-04-13T08:29:15Z</time>
      </trkpt>
      <trkpt lat="48.09668" lon="3.40132">
        <ele>195</ele>
        <time>2014-04-13T08:29:17Z</time>
      </trkpt>
      <trkpt lat="48.0967" lon="3.4013">
        <ele>194</ele>
        <time>2014-04-13T08:29:19Z</time>
      </trkpt>
      <trkpt lat="48.09681" lon="3.40115">
        <ele>194</ele>
        <time>2014-04-13T08:29:31Z</time>
      </trkpt>
      <trkpt lat="48.09684" lon="3.40108">
        <ele>191</ele>
        <time>2014-04-13T08:29:35Z</time>
      </trkpt>
      <trkpt lat="48.09688" lon="3.40102">
        <ele>188</ele>
        <time>2014-04-13T08:29:40Z</time>
      </trkpt>
      <trkpt lat="48.09693" lon="3.40101">
        <ele>194</ele>
        <time>2014-04-13T08:29:45Z</time>
      </trkpt>
      <trkpt lat="48.09699" lon="3.40097">
        <ele>191</ele>
        <time>2014-04-13T08:29:50Z</time>
      </trkpt>
      <trkpt lat="48.09706" lon="3.40089">
        <ele>193</ele>
        <time>2014-04-13T08:29:56Z</time>
      </trkpt>
      <trkpt lat="48.09712" lon="3.40087">
        <ele>188</ele>
        <time>2014-04-13T08:30:00Z</time>
      </trkpt>
      <trkpt lat="48.09718" lon="3.40082">
        <ele>180</ele>
        <time>2014-04-13T08:30:06Z</time>
      </trkpt>
      <trkpt lat="48.09734" lon="3.4007">
        <ele>180</ele>
        <time>2014-04-13T08:30:19Z</time>
      </trkpt>
      <trkpt lat="48.09743" lon="3.40068">
        <ele>181</ele>
        <time>2014-04-13T08:30:26Z</time>
      </trkpt>
      <trkpt lat="48.09746" lon="3.40062">
        <ele>184</ele>
        <time>2014-04-13T08:30:30Z</time>
      </trkpt>
      <trkpt lat="48.09753" lon="3.40055">
        <ele>184</ele>
        <time>2014-04-13T08:30:37Z</time>
      </trkpt>
      <trkpt lat="48.09759" lon="3.40053">
        <ele>186</ele>
        <time>2014-04-13T08:30:41Z</time>
      </trkpt>
      <trkpt lat="48.09766" lon="3.40049">
        <ele>182</ele>
        <time>2014-04-13T08:30:47Z</time>
      </trkpt>
      <trkpt lat="48.09771" lon="3.40048">
        <ele>183</ele>
        <time>2014-04-13T08:30:51Z</time>
      </trkpt>
      <trkpt lat="48.09786" lon="3.40047">
        <ele>185</ele>
        <time>2014-04-13T08:31:02Z</time>
      </trkpt>
      <trkpt lat="48.09797" lon="3.40045">
        <ele>184</ele>
        <time>2014-04-13T08:31:11Z</time>
      </trkpt>
      <trkpt lat="48.09801" lon="3.4004">
        <ele>181</ele>
        <time>2014-04-13T08:31:15Z</time>
      </trkpt>
      <trkpt lat="48.09806" lon="3.40037">
        <ele>186</ele>
        <time>2014-04-13T08:31:20Z</time>
      </trkpt>
      <trkpt lat="48.09811" lon="3.40037">
        <ele>186</ele>
        <time>2014-04-13T08:31:24Z</time>
      </trkpt>
      <trkpt lat="48.09817" lon="3.40036">
        <ele>185</ele>
        <time>2014-04-13T08:31:28Z</time>
      </trkpt>
      <trkpt lat="48.09822" lon="3.40038">
        <ele>187</ele>
        <time>2014-04-13T08:31:40Z</time>
      </trkpt>
      <trkpt lat="48.09825" lon="3.40047">
        <ele>177</ele>
        <time>2014-04-13T08:31:55Z</time>
      </trkpt>
      <trkpt lat="48.0983" lon="3.40049">
        <ele>170</ele>
        <time>2014-04-13T08:32:22Z</time>
      </trkpt>
      <trkpt lat="48.09822" lon="3.40044">
        <ele>175</ele>
        <time>2014-04-13T08:32:33Z</time>
      </trkpt>
      <trkpt lat="48.09817" lon="3.40032">
        <ele>165</ele>
        <time>2014-04-13T08:32:51Z</time>
      </trkpt>
      <trkpt lat="48.09825" lon="3.40032">
        <ele>159</ele>
        <time>2014-04-13T08:33:24Z</time>
      </trkpt>
      <trkpt lat="48.09833" lon="3.40029">
        <ele>171</ele>
        <time>2014-04-13T08:33:34Z</time>
      </trkpt>
      <trkpt lat="48.09839" lon="3.40025">
        <ele>177</ele>
        <time>2014-04-13T08:33:44Z</time>
      </trkpt>
      <trkpt lat="48.09837" lon="3.40034">
        <ele>181</ele>
        <time>2014-04-13T08:34:02Z</time>
      </trkpt>
      <trkpt lat="48.09844" lon="3.40038">
        <ele>188</ele>
        <time>2014-04-13T08:34:15Z</time>
      </trkpt>
      <trkpt lat="48.09848" lon="3.40034">
        <ele>181</ele>
        <time>2014-04-13T08:34:25Z</time>
      </trkpt>
      <trkpt lat="48.09854" lon="3.4003">
        <ele>171</ele>
        <time>2014-04-13T08:34:37Z</time>
      </trkpt>
      <trkpt lat="48.09859" lon="3.40027">
        <ele>171</ele>
        <time>2014-04-13T08:34:41Z</time>
      </trkpt>
      <trkpt lat="48.09865" lon="3.40024">
        <ele>171</ele>
        <time>2014-04-13T08:34:47Z</time>
      </trkpt>
      <trkpt lat="48.09869" lon="3.40018">
        <ele>175</ele>
        <time>2014-04-13T08:34:52Z</time>
      </trkpt>
      <trkpt lat="48.09874" lon="3.40017">
        <ele>173</ele>
        <time>2014-04-13T08:34:58Z</time>
      </trkpt>
      <trkpt lat="48.0988" lon="3.4002">
        <ele>171</ele>
        <time>2014-04-13T08:35:04Z</time>
      </trkpt>
      <trkpt lat="48.09885" lon="3.40019">
        <ele>171</ele>
        <time>2014-04-13T08:35:10Z</time>
      </trkpt>
      <trkpt lat="48.09892" lon="3.40019">
        <ele>175</ele>
        <time>2014-04-13T08:35:18Z</time>
      </trkpt>
      <trkpt lat="48.09897" lon="3.40021">
        <ele>180</ele>
        <time>2014-04-13T08:35:23Z</time>
      </trkpt>
      <trkpt lat="48.09902" lon="3.40021">
        <ele>180</ele>
        <time>2014-04-13T08:35:27Z</time>
      </trkpt>
      <trkpt lat="48.09904" lon="3.4002">
        <ele>181</ele>
        <time>2014-04-13T08:35:29Z</time>
      </trkpt>
      <trkpt lat="48.09907" lon="3.4002">
        <ele>179</ele>
        <time>2014-04-13T08:35:31Z</time>
      </trkpt>
      <trkpt lat="48.09912" lon="3.40018">
        <ele>176</ele>
        <time>2014-04-13T08:35:36Z</time>
      </trkpt>
      <trkpt lat="48.09913" lon="3.40017">
        <ele>176</ele>
        <time>2014-04-13T08:35:37Z</time>
      </trkpt>
      <trkpt lat="48.0992" lon="3.40013">
        <ele>185</ele>
        <time>2014-04-13T08:35:45Z</time>
      </trkpt>
      <trkpt lat="48.09938" lon="3.40001">
        <ele>180</ele>
        <time>2014-04-13T08:36:03Z</time>
      </trkpt>
      <trkpt lat="48.0994" lon="3.39999">
        <ele>180</ele>
        <time>2014-04-13T08:36:05Z</time>
      </trkpt>
      <trkpt lat="48.09944" lon="3.39995">
        <ele>181</ele>
        <time>2014-04-13T08:36:09Z</time>
      </trkpt>
      <trkpt lat="48.09952" lon="3.39985">
        <ele>179</ele>
        <time>2014-04-13T08:36:19Z</time>
      </trkpt>
      <trkpt lat="48.09955" lon="3.39984">
        <ele>180</ele>
        <time>2014-04-13T08:36:21Z</time>
      </trkpt>
      <trkpt lat="48.09967" lon="3.3998">
        <ele>182</ele>
        <time>2014-04-13T08:36:31Z</time>
      </trkpt>
      <trkpt lat="48.0997" lon="3.3998">
        <ele>182</ele>
        <time>2014-04-13T08:36:34Z</time>
      </trkpt>
      <trkpt lat="48.09976" lon="3.3998">
        <ele>185</ele>
        <time>2014-04-13T08:36:38Z</time>
      </trkpt>
      <trkpt lat="48.09983" lon="3.3998">
        <ele>186</ele>
        <time>2014-04-13T08:36:43Z</time>
      </trkpt>
      <trkpt lat="48.09986" lon="3.39978">
        <ele>186</ele>
        <time>2014-04-13T08:36:45Z</time>
      </trkpt>
      <trkpt lat="48.09992" lon="3.39977">
        <ele>188</ele>
        <time>2014-04-13T08:36:50Z</time>
      </trkpt>
      <trkpt lat="48.09994" lon="3.39977">
        <ele>189</ele>
        <time>2014-04-13T08:36:52Z</time>
      </trkpt>
      <trkpt lat="48.10004" lon="3.39976">
        <ele>188</ele>
        <time>2014-04-13T08:36:59Z</time>
      </trkpt>
      <trkpt lat="48.10007" lon="3.39976">
        <ele>188</ele>
        <time>2014-04-13T08:37:01Z</time>
      </trkpt>
      <trkpt lat="48.10018" lon="3.39975">
        <ele>188</ele>
        <time>2014-04-13T08:37:09Z</time>
      </trkpt>
      <trkpt lat="48.1002" lon="3.39975">
        <ele>188</ele>
        <time>2014-04-13T08:37:11Z</time>
      </trkpt>
      <trkpt lat="48.10024" lon="3.39974">
        <ele>189</ele>
        <time>2014-04-13T08:37:14Z</time>
      </trkpt>
      <trkpt lat="48.10029" lon="3.39972">
        <ele>189</ele>
        <time>2014-04-13T08:37:19Z</time>
      </trkpt>
      <trkpt lat="48.10063" lon="3.39961">
        <ele>196</ele>
        <time>2014-04-13T08:37:45Z</time>
      </trkpt>
      <trkpt lat="48.10068" lon="3.39958">
        <ele>196</ele>
        <time>2014-04-13T08:37:51Z</time>
      </trkpt>
      <trkpt lat="48.10068" lon="3.39953">
        <ele>197</ele>
        <time>2014-04-13T08:37:54Z</time>
      </trkpt>
      <trkpt lat="48.10067" lon="3.39946">
        <ele>194</ele>
        <time>2014-04-13T08:37:57Z</time>
      </trkpt>
      <trkpt lat="48.10065" lon="3.39941">
        <ele>193</ele>
        <time>2014-04-13T08:38:00Z</time>
      </trkpt>
      <trkpt lat="48.10064" lon="3.39936">
        <ele>193</ele>
        <time>2014-04-13T08:38:02Z</time>
      </trkpt>
      <trkpt lat="48.10064" lon="3.39931">
        <ele>194</ele>
        <time>2014-04-13T08:38:05Z</time>
      </trkpt>
      <trkpt lat="48.10063" lon="3.39924">
        <ele>193</ele>
        <time>2014-04-13T08:38:10Z</time>
      </trkpt>
      <trkpt lat="48.10062" lon="3.3992">
        <ele>193</ele>
        <time>2014-04-13T08:38:13Z</time>
      </trkpt>
      <trkpt lat="48.1006" lon="3.39912">
        <ele>192</ele>
        <time>2014-04-13T08:38:19Z</time>
      </trkpt>
      <trkpt lat="48.1006" lon="3.3991">
        <ele>192</ele>
        <time>2014-04-13T08:38:20Z</time>
      </trkpt>
      <trkpt lat="48.1006" lon="3.39906">
        <ele>191</ele>
        <time>2014-04-13T08:38:23Z</time>
      </trkpt>
      <trkpt lat="48.10058" lon="3.39898">
        <ele>189</ele>
        <time>2014-04-13T08:38:27Z</time>
      </trkpt>
      <trkpt lat="48.10056" lon="3.3989">
        <ele>191</ele>
        <time>2014-04-13T08:38:31Z</time>
      </trkpt>
      <trkpt lat="48.10055" lon="3.39887">
        <ele>191</ele>
        <time>2014-04-13T08:38:33Z</time>
      </trkpt>
      <trkpt lat="48.10052" lon="3.39872">
        <ele>193</ele>
        <time>2014-04-13T08:38:41Z</time>
      </trkpt>
      <trkpt lat="48.10051" lon="3.39869">
        <ele>193</ele>
        <time>2014-04-13T08:38:43Z</time>
      </trkpt>
      <trkpt lat="48.1005" lon="3.39853">
        <ele>192</ele>
        <time>2014-04-13T08:38:52Z</time>
      </trkpt>
      <trkpt lat="48.10049" lon="3.39849">
        <ele>193</ele>
        <time>2014-04-13T08:38:55Z</time>
      </trkpt>
      <trkpt lat="48.10048" lon="3.39846">
        <ele>194</ele>
        <time>2014-04-13T08:38:58Z</time>
      </trkpt>
      <trkpt lat="48.10047" lon="3.39842">
        <ele>194</ele>
        <time>2014-04-13T08:39:00Z</time>
      </trkpt>
      <trkpt lat="48.10041" lon="3.39807">
        <ele>189</ele>
        <time>2014-04-13T08:39:17Z</time>
      </trkpt>
      <trkpt lat="48.10041" lon="3.39803">
        <ele>190</ele>
        <time>2014-04-13T08:39:19Z</time>
      </trkpt>
      <trkpt lat="48.1004" lon="3.398">
        <ele>193</ele>
        <time>2014-04-13T08:39:21Z</time>
      </trkpt>
      <trkpt lat="48.10038" lon="3.39794">
        <ele>195</ele>
        <time>2014-04-13T08:39:24Z</time>
      </trkpt>
      <trkpt lat="48.10037" lon="3.3979">
        <ele>194</ele>
        <time>2014-04-13T08:39:26Z</time>
      </trkpt>
      <trkpt lat="48.10036" lon="3.39785">
        <ele>192</ele>
        <time>2014-04-13T08:39:29Z</time>
      </trkpt>
      <trkpt lat="48.10036" lon="3.39781">
        <ele>192</ele>
        <time>2014-04-13T08:39:31Z</time>
      </trkpt>
      <trkpt lat="48.10034" lon="3.39777">
        <ele>194</ele>
        <time>2014-04-13T08:39:33Z</time>
      </trkpt>
      <trkpt lat="48.10034" lon="3.39771">
        <ele>193</ele>
        <time>2014-04-13T08:39:37Z</time>
      </trkpt>
      <trkpt lat="48.10033" lon="3.39758">
        <ele>195</ele>
        <time>2014-04-13T08:39:44Z</time>
      </trkpt>
      <trkpt lat="48.10033" lon="3.39753">
        <ele>194</ele>
        <time>2014-04-13T08:39:47Z</time>
      </trkpt>
      <trkpt lat="48.10032" lon="3.39749">
        <ele>192</ele>
        <time>2014-04-13T08:39:50Z</time>
      </trkpt>
      <trkpt lat="48.10032" lon="3.39744">
        <ele>187</ele>
        <time>2014-04-13T08:39:53Z</time>
      </trkpt>
      <trkpt lat="48.10026" lon="3.39669">
        <ele>189</ele>
        <time>2014-04-13T08:40:33Z</time>
      </trkpt>
      <trkpt lat="48.10026" lon="3.39665">
        <ele>189</ele>
        <time>2014-04-13T08:40:35Z</time>
      </trkpt>
      <trkpt lat="48.10025" lon="3.3965">
        <ele>190</ele>
        <time>2014-04-13T08:40:44Z</time>
      </trkpt>
      <trkpt lat="48.10025" lon="3.39646">
        <ele>191</ele>
        <time>2014-04-13T08:40:47Z</time>
      </trkpt>
      <trkpt lat="48.10024" lon="3.39641">
        <ele>193</ele>
        <time>2014-04-13T08:40:50Z</time>
      </trkpt>
      <trkpt lat="48.10024" lon="3.39637">
        <ele>193</ele>
        <time>2014-04-13T08:40:52Z</time>
      </trkpt>
      <trkpt lat="48.10024" lon="3.39623">
        <ele>192</ele>
        <time>2014-04-13T08:41:00Z</time>
      </trkpt>
      <trkpt lat="48.10023" lon="3.39612">
        <ele>192</ele>
        <time>2014-04-13T08:41:06Z</time>
      </trkpt>
      <trkpt lat="48.10022" lon="3.39606">
        <ele>192</ele>
        <time>2014-04-13T08:41:09Z</time>
      </trkpt>
      <trkpt lat="48.10022" lon="3.39602">
        <ele>190</ele>
        <time>2014-04-13T08:41:11Z</time>
      </trkpt>
      <trkpt lat="48.10022" lon="3.39598">
        <ele>191</ele>
        <time>2014-04-13T08:41:13Z</time>
      </trkpt>
      <trkpt lat="48.1002" lon="3.39582">
        <ele>188</ele>
        <time>2014-04-13T08:41:21Z</time>
      </trkpt>
      <trkpt lat="48.10019" lon="3.39578">
        <ele>188</ele>
        <time>2014-04-13T08:41:23Z</time>
      </trkpt>
      <trkpt lat="48.10018" lon="3.39572">
        <ele>188</ele>
        <time>2014-04-13T08:41:26Z</time>
      </trkpt>
      <trkpt lat="48.10018" lon="3.39568">
        <ele>187</ele>
        <time>2014-04-13T08:41:28Z</time>
      </trkpt>
      <trkpt lat="48.10016" lon="3.39559">
        <ele>186</ele>
        <time>2014-04-13T08:41:33Z</time>
      </trkpt>
      <trkpt lat="48.10015" lon="3.39555">
        <ele>188</ele>
        <time>2014-04-13T08:41:35Z</time>
      </trkpt>
      <trkpt lat="48.10014" lon="3.39552">
        <ele>188</ele>
        <time>2014-04-13T08:41:37Z</time>
      </trkpt>
      <trkpt lat="48.10013" lon="3.39548">
        <ele>189</ele>
        <time>2014-04-13T08:41:39Z</time>
      </trkpt>
      <trkpt lat="48.10012" lon="3.39545">
        <ele>188</ele>
        <time>2014-04-13T08:41:41Z</time>
      </trkpt>
      <trkpt lat="48.10008" lon="3.39531">
        <ele>189</ele>
        <time>2014-04-13T08:41:48Z</time>
      </trkpt>
      <trkpt lat="48.10007" lon="3.39528">
        <ele>191</ele>
        <time>2014-04-13T08:41:50Z</time>
      </trkpt>
      <trkpt lat="48.1" lon="3.39498">
        <ele>193</ele>
        <time>2014-04-13T08:42:05Z</time>
      </trkpt>
      <trkpt lat="48.09999" lon="3.39491">
        <ele>192</ele>
        <time>2014-04-13T08:42:09Z</time>
      </trkpt>
      <trkpt lat="48.09998" lon="3.39486">
        <ele>192</ele>
        <time>2014-04-13T08:42:12Z</time>
      </trkpt>
      <trkpt lat="48.09997" lon="3.39481">
        <ele>190</ele>
        <time>2014-04-13T08:42:14Z</time>
      </trkpt>
      <trkpt lat="48.09994" lon="3.39466">
        <ele>192</ele>
        <time>2014-04-13T08:42:22Z</time>
      </trkpt>
      <trkpt lat="48.09993" lon="3.3946">
        <ele>192</ele>
        <time>2014-04-13T08:42:25Z</time>
      </trkpt>
      <trkpt lat="48.09992" lon="3.39456">
        <ele>190</ele>
        <time>2014-04-13T08:42:27Z</time>
      </trkpt>
      <trkpt lat="48.09989" lon="3.39442">
        <ele>194</ele>
        <time>2014-04-13T08:42:34Z</time>
      </trkpt>
      <trkpt lat="48.09989" lon="3.39439">
        <ele>194</ele>
        <time>2014-04-13T08:42:36Z</time>
      </trkpt>
      <trkpt lat="48.09989" lon="3.39435">
        <ele>194</ele>
        <time>2014-04-13T08:42:38Z</time>
      </trkpt>
      <trkpt lat="48.09988" lon="3.3943">
        <ele>193</ele>
        <time>2014-04-13T08:42:41Z</time>
      </trkpt>
      <trkpt lat="48.09988" lon="3.39416">
        <ele>191</ele>
        <time>2014-04-13T08:42:49Z</time>
      </trkpt>
      <trkpt lat="48.09987" lon="3.39412">
        <ele>191</ele>
        <time>2014-04-13T08:42:51Z</time>
      </trkpt>
      <trkpt lat="48.09987" lon="3.39409">
        <ele>190</ele>
        <time>2014-04-13T08:42:53Z</time>
      </trkpt>
      <trkpt lat="48.09985" lon="3.39395">
        <ele>192</ele>
        <time>2014-04-13T08:43:00Z</time>
      </trkpt>
      <trkpt lat="48.09985" lon="3.39386">
        <ele>191</ele>
        <time>2014-04-13T08:43:05Z</time>
      </trkpt>
      <trkpt lat="48.09985" lon="3.39382">
        <ele>191</ele>
        <time>2014-04-13T08:43:07Z</time>
      </trkpt>
      <trkpt lat="48.09985" lon="3.39377">
        <ele>190</ele>
        <time>2014-04-13T08:43:10Z</time>
      </trkpt>
      <trkpt lat="48.09984" lon="3.39367">
        <ele>189</ele>
        <time>2014-04-13T08:43:15Z</time>
      </trkpt>
      <trkpt lat="48.09984" lon="3.39365">
        <ele>189</ele>
        <time>2014-04-13T08:43:16Z</time>
      </trkpt>
      <trkpt lat="48.09984" lon="3.39361">
        <ele>189</ele>
        <time>2014-04-13T08:43:18Z</time>
      </trkpt>
      <trkpt lat="48.09982" lon="3.39353">
        <ele>188</ele>
        <time>2014-04-13T08:43:22Z</time>
      </trkpt>
      <trkpt lat="48.09982" lon="3.39344">
        <ele>186</ele>
        <time>2014-04-13T08:43:27Z</time>
      </trkpt>
      <trkpt lat="48.09981" lon="3.39335">
        <ele>188</ele>
        <time>2014-04-13T08:43:32Z</time>
      </trkpt>
      <trkpt lat="48.09977" lon="3.39314">
        <ele>190</ele>
        <time>2014-04-13T08:43:43Z</time>
      </trkpt>
      <trkpt lat="48.09977" lon="3.3931">
        <ele>189</ele>
        <time>2014-04-13T08:43:45Z</time>
      </trkpt>
      <trkpt lat="48.09976" lon="3.39305">
        <ele>189</ele>
        <time>2014-04-13T08:43:47Z</time>
      </trkpt>
      <trkpt lat="48.09976" lon="3.39301">
        <ele>188</ele>
        <time>2014-04-13T08:43:49Z</time>
      </trkpt>
      <trkpt lat="48.09976" lon="3.39297">
        <ele>188</ele>
        <time>2014-04-13T08:43:51Z</time>
      </trkpt>
      <trkpt lat="48.09975" lon="3.39293">
        <ele>187</ele>
        <time>2014-04-13T08:43:53Z</time>
      </trkpt>
      <trkpt lat="48.09973" lon="3.39279">
        <ele>189</ele>
        <time>2014-04-13T08:44:00Z</time>
      </trkpt>
      <trkpt lat="48.09973" lon="3.39275">
        <ele>188</ele>
        <time>2014-04-13T08:44:02Z</time>
      </trkpt>
      <trkpt lat="48.09972" lon="3.39262">
        <ele>186</ele>
        <time>2014-04-13T08:44:09Z</time>
      </trkpt>
      <trkpt lat="48.09972" lon="3.39258">
        <ele>186</ele>
        <time>2014-04-13T08:44:11Z</time>
      </trkpt>
      <trkpt lat="48.09972" lon="3.39254">
        <ele>187</ele>
        <time>2014-04-13T08:44:13Z</time>
      </trkpt>
      <trkpt lat="48.09971" lon="3.39239">
        <ele>186</ele>
        <time>2014-04-13T08:44:20Z</time>
      </trkpt>
      <trkpt lat="48.09971" lon="3.39234">
        <ele>186</ele>
        <time>2014-04-13T08:44:23Z</time>
      </trkpt>
      <trkpt lat="48.09971" lon="3.39231">
        <ele>185</ele>
        <time>2014-04-13T08:44:25Z</time>
      </trkpt>
      <trkpt lat="48.09971" lon="3.39227">
        <ele>186</ele>
        <time>2014-04-13T08:44:27Z</time>
      </trkpt>
      <trkpt lat="48.09971" lon="3.39213">
        <ele>186</ele>
        <time>2014-04-13T08:44:35Z</time>
      </trkpt>
      <trkpt lat="48.0997" lon="3.39208">
        <ele>186</ele>
        <time>2014-04-13T08:44:37Z</time>
      </trkpt>
      <trkpt lat="48.09969" lon="3.39204">
        <ele>187</ele>
        <time>2014-04-13T08:44:40Z</time>
      </trkpt>
      <trkpt lat="48.09969" lon="3.392">
        <ele>186</ele>
        <time>2014-04-13T08:44:42Z</time>
      </trkpt>
      <trkpt lat="48.09969" lon="3.39187">
        <ele>186</ele>
        <time>2014-04-13T08:44:49Z</time>
      </trkpt>
      <trkpt lat="48.09968" lon="3.39184">
        <ele>187</ele>
        <time>2014-04-13T08:44:51Z</time>
      </trkpt>
      <trkpt lat="48.09968" lon="3.3918">
        <ele>186</ele>
        <time>2014-04-13T08:44:53Z</time>
      </trkpt>
      <trkpt lat="48.09966" lon="3.39166">
        <ele>186</ele>
        <time>2014-04-13T08:45:01Z</time>
      </trkpt>
      <trkpt lat="48.09966" lon="3.39162">
        <ele>186</ele>
        <time>2014-04-13T08:45:03Z</time>
      </trkpt>
      <trkpt lat="48.09964" lon="3.39158">
        <ele>188</ele>
        <time>2014-04-13T08:45:05Z</time>
      </trkpt>
      <trkpt lat="48.09961" lon="3.39144">
        <ele>188</ele>
        <time>2014-04-13T08:45:12Z</time>
      </trkpt>
      <trkpt lat="48.0996" lon="3.39141">
        <ele>188</ele>
        <time>2014-04-13T08:45:14Z</time>
      </trkpt>
      <trkpt lat="48.09958" lon="3.39132">
        <ele>188</ele>
        <time>2014-04-13T08:45:19Z</time>
      </trkpt>
      <trkpt lat="48.09957" lon="3.39126">
        <ele>188</ele>
        <time>2014-04-13T08:45:22Z</time>
      </trkpt>
      <trkpt lat="48.09955" lon="3.39111">
        <ele>189</ele>
        <time>2014-04-13T08:45:29Z</time>
      </trkpt>
      <trkpt lat="48.09953" lon="3.39097">
        <ele>188</ele>
        <time>2014-04-13T08:45:36Z</time>
      </trkpt>
      <trkpt lat="48.09952" lon="3.39093">
        <ele>189</ele>
        <time>2014-04-13T08:45:38Z</time>
      </trkpt>
      <trkpt lat="48.09952" lon="3.39089">
        <ele>189</ele>
        <time>2014-04-13T08:45:40Z</time>
      </trkpt>
      <trkpt lat="48.09951" lon="3.39083">
        <ele>187</ele>
        <time>2014-04-13T08:45:43Z</time>
      </trkpt>
      <trkpt lat="48.09944" lon="3.39053">
        <ele>188</ele>
        <time>2014-04-13T08:45:58Z</time>
      </trkpt>
      <trkpt lat="48.09943" lon="3.39048">
        <ele>189</ele>
        <time>2014-04-13T08:46:01Z</time>
      </trkpt>
      <trkpt lat="48.09942" lon="3.39044">
        <ele>189</ele>
        <time>2014-04-13T08:46:04Z</time>
      </trkpt>
      <trkpt lat="48.09939" lon="3.3903">
        <ele>190</ele>
        <time>2014-04-13T08:46:12Z</time>
      </trkpt>
      <trkpt lat="48.09938" lon="3.39022">
        <ele>189</ele>
        <time>2014-04-13T08:46:16Z</time>
      </trkpt>
      <trkpt lat="48.09938" lon="3.39018">
        <ele>187</ele>
        <time>2014-04-13T08:46:18Z</time>
      </trkpt>
      <trkpt lat="48.09937" lon="3.39014">
        <ele>187</ele>
        <time>2014-04-13T08:46:20Z</time>
      </trkpt>
      <trkpt lat="48.09935" lon="3.39">
        <ele>186</ele>
        <time>2014-04-13T08:46:27Z</time>
      </trkpt>
      <trkpt lat="48.09935" lon="3.38995">
        <ele>186</ele>
        <time>2014-04-13T08:46:29Z</time>
      </trkpt>
      <trkpt lat="48.09934" lon="3.38991">
        <ele>186</ele>
        <time>2014-04-13T08:46:31Z</time>
      </trkpt>
      <trkpt lat="48.09934" lon="3.38988">
        <ele>186</ele>
        <time>2014-04-13T08:46:33Z</time>
      </trkpt>
      <trkpt lat="48.09932" lon="3.38981">
        <ele>186</ele>
        <time>2014-04-13T08:46:37Z</time>
      </trkpt>
      <trkpt lat="48.09932" lon="3.38977">
        <ele>187</ele>
        <time>2014-04-13T08:46:39Z</time>
      </trkpt>
      <trkpt lat="48.09931" lon="3.38974">
        <ele>187</ele>
        <time>2014-04-13T08:46:41Z</time>
      </trkpt>
      <trkpt lat="48.09931" lon="3.3897">
        <ele>187</ele>
        <time>2014-04-13T08:46:43Z</time>
      </trkpt>
      <trkpt lat="48.09931" lon="3.38962">
        <ele>185</ele>
        <time>2014-04-13T08:46:48Z</time>
      </trkpt>
      <trkpt lat="48.09929" lon="3.38948">
        <ele>186</ele>
        <time>2014-04-13T08:46:55Z</time>
      </trkpt>
      <trkpt lat="48.09929" lon="3.38945">
        <ele>186</ele>
        <time>2014-04-13T08:46:57Z</time>
      </trkpt>
      <trkpt lat="48.09929" lon="3.38941">
        <ele>186</ele>
        <time>2014-04-13T08:46:59Z</time>
      </trkpt>
      <trkpt lat="48.09926" lon="3.38909">
        <ele>185</ele>
        <time>2014-04-13T08:47:15Z</time>
      </trkpt>
      <trkpt lat="48.09925" lon="3.38905">
        <ele>187</ele>
        <time>2014-04-13T08:47:17Z</time>
      </trkpt>
      <trkpt lat="48.09925" lon="3.38902">
        <ele>187</ele>
        <time>2014-04-13T08:47:19Z</time>
      </trkpt>
      <trkpt lat="48.09925" lon="3.38897">
        <ele>187</ele>
        <time>2014-04-13T08:47:22Z</time>
      </trkpt>
      <trkpt lat="48.09925" lon="3.38853">
        <ele>186</ele>
        <time>2014-04-13T08:47:46Z</time>
      </trkpt>
      <trkpt lat="48.09924" lon="3.38848">
        <ele>186</ele>
        <time>2014-04-13T08:47:48Z</time>
      </trkpt>
      <trkpt lat="48.09924" lon="3.38844">
        <ele>186</ele>
        <time>2014-04-13T08:47:50Z</time>
      </trkpt>
      <trkpt lat="48.09924" lon="3.38837">
        <ele>186</ele>
        <time>2014-04-13T08:47:53Z</time>
      </trkpt>
      <trkpt lat="48.09922" lon="3.38826">
        <ele>185</ele>
        <time>2014-04-13T08:47:59Z</time>
      </trkpt>
      <trkpt lat="48.09917" lon="3.38797">
        <ele>183</ele>
        <time>2014-04-13T08:48:14Z</time>
      </trkpt>
      <trkpt lat="48.09916" lon="3.38792">
        <ele>184</ele>
        <time>2014-04-13T08:48:17Z</time>
      </trkpt>
      <trkpt lat="48.09912" lon="3.38785">
        <ele>184</ele>
        <time>2014-04-13T08:48:21Z</time>
      </trkpt>
      <trkpt lat="48.0991" lon="3.38777">
        <ele>181</ele>
        <time>2014-04-13T08:48:27Z</time>
      </trkpt>
      <trkpt lat="48.09906" lon="3.38771">
        <ele>187</ele>
        <time>2014-04-13T08:48:34Z</time>
      </trkpt>
      <trkpt lat="48.09901" lon="3.38762">
        <ele>182</ele>
        <time>2014-04-13T08:48:42Z</time>
      </trkpt>
      <trkpt lat="48.099" lon="3.3876">
        <ele>182</ele>
        <time>2014-04-13T08:48:43Z</time>
      </trkpt>
      <trkpt lat="48.09899" lon="3.38757">
        <ele>179</ele>
        <time>2014-04-13T08:48:46Z</time>
      </trkpt>
      <trkpt lat="48.09898" lon="3.38755">
        <ele>183</ele>
        <time>2014-04-13T08:49:00Z</time>
      </trkpt>
      <trkpt lat="48.09894" lon="3.38752">
        <ele>185</ele>
        <time>2014-04-13T08:49:03Z</time>
      </trkpt>
      <trkpt lat="48.0989" lon="3.38749">
        <ele>184</ele>
        <time>2014-04-13T08:49:08Z</time>
      </trkpt>
      <trkpt lat="48.0988" lon="3.38744">
        <ele>181</ele>
        <time>2014-04-13T08:49:17Z</time>
      </trkpt>
      <trkpt lat="48.09877" lon="3.38744">
        <ele>182</ele>
        <time>2014-04-13T08:49:19Z</time>
      </trkpt>
      <trkpt lat="48.09875" lon="3.38742">
        <ele>182</ele>
        <time>2014-04-13T08:49:21Z</time>
      </trkpt>
      <trkpt lat="48.09855" lon="3.38734">
        <ele>178</ele>
        <time>2014-04-13T08:49:38Z</time>
      </trkpt>
      <trkpt lat="48.0985" lon="3.38731">
        <ele>179</ele>
        <time>2014-04-13T08:49:43Z</time>
      </trkpt>
      <trkpt lat="48.09847" lon="3.3873">
        <ele>180</ele>
        <time>2014-04-13T08:49:45Z</time>
      </trkpt>
      <trkpt lat="48.09844" lon="3.38729">
        <ele>180</ele>
        <time>2014-04-13T08:50:08Z</time>
      </trkpt>
      <trkpt lat="48.09844" lon="3.38729">
        <ele>180</ele>
        <time>2014-04-13T08:50:08Z</time>
      </trkpt>
      <trkpt lat="48.09843" lon="3.38726">
        <ele>178</ele>
        <time>2014-04-13T08:50:41Z</time>
      </trkpt>
      <trkpt lat="48.09841" lon="3.38724">
        <ele>177</ele>
        <time>2014-04-13T08:50:44Z</time>
      </trkpt>
      <trkpt lat="48.09832" lon="3.38717">
        <ele>170</ele>
        <time>2014-04-13T08:50:52Z</time>
      </trkpt>
      <trkpt lat="48.09824" lon="3.3871">
        <ele>170</ele>
        <time>2014-04-13T08:50:59Z</time>
      </trkpt>
      <trkpt lat="48.09822" lon="3.38707">
        <ele>170</ele>
        <time>2014-04-13T08:51:01Z</time>
      </trkpt>
      <trkpt lat="48.09818" lon="3.387">
        <ele>171</ele>
        <time>2014-04-13T08:51:05Z</time>
      </trkpt>
      <trkpt lat="48.09815" lon="3.38693">
        <ele>171</ele>
        <time>2014-04-13T08:51:08Z</time>
      </trkpt>
      <trkpt lat="48.09813" lon="3.3869">
        <ele>172</ele>
        <time>2014-04-13T08:51:10Z</time>
      </trkpt>
      <trkpt lat="48.09812" lon="3.38686">
        <ele>171</ele>
        <time>2014-04-13T08:51:12Z</time>
      </trkpt>
      <trkpt lat="48.09811" lon="3.38682">
        <ele>169</ele>
        <time>2014-04-13T08:51:14Z</time>
      </trkpt>
      <trkpt lat="48.09808" lon="3.38673">
        <ele>173</ele>
        <time>2014-04-13T08:51:19Z</time>
      </trkpt>
      <trkpt lat="48.09807" lon="3.38669">
        <ele>172</ele>
        <time>2014-04-13T08:51:21Z</time>
      </trkpt>
      <trkpt lat="48.09806" lon="3.38665">
        <ele>172</ele>
        <time>2014-04-13T08:51:23Z</time>
      </trkpt>
      <trkpt lat="48.09805" lon="3.38661">
        <ele>171</ele>
        <time>2014-04-13T08:51:26Z</time>
      </trkpt>
      <trkpt lat="48.09804" lon="3.38653">
        <ele>170</ele>
        <time>2014-04-13T08:51:30Z</time>
      </trkpt>
      <trkpt lat="48.09803" lon="3.38649">
        <ele>170</ele>
        <time>2014-04-13T08:51:32Z</time>
      </trkpt>
      <trkpt lat="48.09802" lon="3.38646">
        <ele>169</ele>
        <time>2014-04-13T08:51:34Z</time>
      </trkpt>
      <trkpt lat="48.09801" lon="3.38637">
        <ele>167</ele>
        <time>2014-04-13T08:51:40Z</time>
      </trkpt>
      <trkpt lat="48.09798" lon="3.38628">
        <ele>167</ele>
        <time>2014-04-13T08:51:44Z</time>
      </trkpt>
      <trkpt lat="48.09798" lon="3.38619">
        <ele>165</ele>
        <time>2014-04-13T08:51:49Z</time>
      </trkpt>
      <trkpt lat="48.09796" lon="3.38598">
        <ele>162</ele>
        <time>2014-04-13T08:52:02Z</time>
      </trkpt>
      <trkpt lat="48.09796" lon="3.38593">
        <ele>162</ele>
        <time>2014-04-13T08:52:04Z</time>
      </trkpt>
      <trkpt lat="48.09797" lon="3.38581">
        <ele>161</ele>
        <time>2014-04-13T08:52:12Z</time>
      </trkpt>
      <trkpt lat="48.09797" lon="3.38553">
        <ele>155</ele>
        <time>2014-04-13T08:52:24Z</time>
      </trkpt>
      <trkpt lat="48.09797" lon="3.38529">
        <ele>162</ele>
        <time>2014-04-13T08:52:36Z</time>
      </trkpt>
      <trkpt lat="48.09799" lon="3.38514">
        <ele>148</ele>
        <time>2014-04-13T08:52:50Z</time>
      </trkpt>
      <trkpt lat="48.09803" lon="3.3851">
        <ele>146</ele>
        <time>2014-04-13T08:52:54Z</time>
      </trkpt>
      <trkpt lat="48.09805" lon="3.38501">
        <ele>147</ele>
        <time>2014-04-13T08:52:59Z</time>
      </trkpt>
      <trkpt lat="48.09808" lon="3.38479">
        <ele>143</ele>
        <time>2014-04-13T08:53:10Z</time>
      </trkpt>
      <trkpt lat="48.09808" lon="3.3847">
        <ele>142</ele>
        <time>2014-04-13T08:53:14Z</time>
      </trkpt>
      <trkpt lat="48.0981" lon="3.38461">
        <ele>144</ele>
        <time>2014-04-13T08:53:18Z</time>
      </trkpt>
      <trkpt lat="48.09816" lon="3.38437">
        <ele>140</ele>
        <time>2014-04-13T08:53:32Z</time>
      </trkpt>
      <trkpt lat="48.09817" lon="3.3843">
        <ele>145</ele>
        <time>2014-04-13T08:53:38Z</time>
      </trkpt>
      <trkpt lat="48.09822" lon="3.38403">
        <ele>140</ele>
        <time>2014-04-13T08:53:51Z</time>
      </trkpt>
      <trkpt lat="48.09824" lon="3.38396">
        <ele>143</ele>
        <time>2014-04-13T08:53:55Z</time>
      </trkpt>
      <trkpt lat="48.09831" lon="3.38369">
        <ele>149</ele>
        <time>2014-04-13T08:54:10Z</time>
      </trkpt>
      <trkpt lat="48.09836" lon="3.38355">
        <ele>148</ele>
        <time>2014-04-13T08:54:20Z</time>
      </trkpt>
      <trkpt lat="48.0984" lon="3.38351">
        <ele>142</ele>
        <time>2014-04-13T08:54:26Z</time>
      </trkpt>
      <trkpt lat="48.09843" lon="3.38344">
        <ele>139</ele>
        <time>2014-04-13T08:54:31Z</time>
      </trkpt>
      <trkpt lat="48.09846" lon="3.38335">
        <ele>136</ele>
        <time>2014-04-13T08:54:36Z</time>
      </trkpt>
      <trkpt lat="48.09849" lon="3.38327">
        <ele>136</ele>
        <time>2014-04-13T08:54:41Z</time>
      </trkpt>
      <trkpt lat="48.09856" lon="3.38301">
        <ele>137</ele>
        <time>2014-04-13T08:54:54Z</time>
      </trkpt>
      <trkpt lat="48.0986" lon="3.38286">
        <ele>139</ele>
        <time>2014-04-13T08:55:02Z</time>
      </trkpt>
      <trkpt lat="48.09863" lon="3.3828">
        <ele>141</ele>
        <time>2014-04-13T08:55:06Z</time>
      </trkpt>
      <trkpt lat="48.09864" lon="3.3827">
        <ele>139</ele>
        <time>2014-04-13T08:55:11Z</time>
      </trkpt>
      <trkpt lat="48.09867" lon="3.38263">
        <ele>133</ele>
        <time>2014-04-13T08:55:16Z</time>
      </trkpt>
      <trkpt lat="48.09869" lon="3.38254">
        <ele>134</ele>
        <time>2014-04-13T08:55:20Z</time>
      </trkpt>
      <trkpt lat="48.09874" lon="3.3825">
        <ele>126</ele>
        <time>2014-04-13T08:55:25Z</time>
      </trkpt>
      <trkpt lat="48.0988" lon="3.38251">
        <ele>124</ele>
        <time>2014-04-13T08:55:32Z</time>
      </trkpt>
      <trkpt lat="48.09886" lon="3.38248">
        <ele>121</ele>
        <time>2014-04-13T08:55:37Z</time>
      </trkpt>
      <trkpt lat="48.0989" lon="3.38242">
        <ele>116</ele>
        <time>2014-04-13T08:55:41Z</time>
      </trkpt>
      <trkpt lat="48.09894" lon="3.38239">
        <ele>119</ele>
        <time>2014-04-13T08:55:44Z</time>
      </trkpt>
      <trkpt lat="48.09901" lon="3.38234">
        <ele>124</ele>
        <time>2014-04-13T08:55:49Z</time>
      </trkpt>
      <trkpt lat="48.09906" lon="3.38233">
        <ele>120</ele>
        <time>2014-04-13T08:55:57Z</time>
      </trkpt>
      <trkpt lat="48.09911" lon="3.38229">
        <ele>122</ele>
        <time>2014-04-13T08:56:01Z</time>
      </trkpt>
      <trkpt lat="48.09916" lon="3.38224">
        <ele>120</ele>
        <time>2014-04-13T08:56:06Z</time>
      </trkpt>
      <trkpt lat="48.09916" lon="3.38215">
        <ele>121</ele>
        <time>2014-04-13T08:56:11Z</time>
      </trkpt>
      <trkpt lat="48.09914" lon="3.38206">
        <ele>119</ele>
        <time>2014-04-13T08:56:16Z</time>
      </trkpt>
      <trkpt lat="48.09913" lon="3.38197">
        <ele>124</ele>
        <time>2014-04-13T08:56:20Z</time>
      </trkpt>
      <trkpt lat="48.09909" lon="3.38188">
        <ele>121</ele>
        <time>2014-04-13T08:56:25Z</time>
      </trkpt>
      <trkpt lat="48.09906" lon="3.38181">
        <ele>120</ele>
        <time>2014-04-13T08:56:30Z</time>
      </trkpt>
      <trkpt lat="48.09902" lon="3.38174">
        <ele>118</ele>
        <time>2014-04-13T08:56:35Z</time>
      </trkpt>
      <trkpt lat="48.09899" lon="3.38168">
        <ele>110</ele>
        <time>2014-04-13T08:56:38Z</time>
      </trkpt>
      <trkpt lat="48.09895" lon="3.38161">
        <ele>116</ele>
        <time>2014-04-13T08:56:44Z</time>
      </trkpt>
      <trkpt lat="48.09891" lon="3.38155">
        <ele>113</ele>
        <time>2014-04-13T08:56:48Z</time>
      </trkpt>
      <trkpt lat="48.09889" lon="3.38148">
        <ele>123</ele>
        <time>2014-04-13T08:56:54Z</time>
      </trkpt>
      <trkpt lat="48.09888" lon="3.38146">
        <ele>123</ele>
        <time>2014-04-13T08:56:55Z</time>
      </trkpt>
      <trkpt lat="48.09885" lon="3.38141">
        <ele>122</ele>
        <time>2014-04-13T08:56:59Z</time>
      </trkpt>
      <trkpt lat="48.09885" lon="3.38138">
        <ele>118</ele>
        <time>2014-04-13T08:57:02Z</time>
      </trkpt>
      <trkpt lat="48.09871" lon="3.38062">
        <ele>116</ele>
        <time>2014-04-13T09:28:27Z</time>
      </trkpt>
      <trkpt lat="48.09869" lon="3.38061">
        <ele>109</ele>
        <time>2014-04-13T09:28:42Z</time>
      </trkpt>
      <trkpt lat="48.09867" lon="3.38059">
        <ele>117</ele>
        <time>2014-04-13T09:28:53Z</time>
      </trkpt>
      <trkpt lat="48.09864" lon="3.38059">
        <ele>113</ele>
        <time>2014-04-13T09:29:07Z</time>
      </trkpt>
      <trkpt lat="48.09858" lon="3.38064">
        <ele>113</ele>
        <time>2014-04-13T09:29:20Z</time>
      </trkpt>
      <trkpt lat="48.09855" lon="3.38071">
        <ele>115</ele>
        <time>2014-04-13T09:29:24Z</time>
      </trkpt>
      <trkpt lat="48.09853" lon="3.38078">
        <ele>106</ele>
        <time>2014-04-13T09:29:29Z</time>
      </trkpt>
      <trkpt lat="48.09853" lon="3.38088">
        <ele>112</ele>
        <time>2014-04-13T09:29:34Z</time>
      </trkpt>
      <trkpt lat="48.09851" lon="3.38096">
        <ele>113</ele>
        <time>2014-04-13T09:29:38Z</time>
      </trkpt>
      <trkpt lat="48.09847" lon="3.38108">
        <ele>111</ele>
        <time>2014-04-13T09:29:46Z</time>
      </trkpt>
      <trkpt lat="48.09843" lon="3.3811">
        <ele>115</ele>
        <time>2014-04-13T09:29:50Z</time>
      </trkpt>
      <trkpt lat="48.09836" lon="3.38113">
        <ele>110</ele>
        <time>2014-04-13T09:29:55Z</time>
      </trkpt>
      <trkpt lat="48.09831" lon="3.3811">
        <ele>108</ele>
        <time>2014-04-13T09:30:00Z</time>
      </trkpt>
      <trkpt lat="48.09824" lon="3.38105">
        <ele>108</ele>
        <time>2014-04-13T09:30:06Z</time>
      </trkpt>
      <trkpt lat="48.09819" lon="3.38103">
        <ele>107</ele>
        <time>2014-04-13T09:30:10Z</time>
      </trkpt>
      <trkpt lat="48.09815" lon="3.381">
        <ele>107</ele>
        <time>2014-04-13T09:30:13Z</time>
      </trkpt>
      <trkpt lat="48.0981" lon="3.38099">
        <ele>106</ele>
        <time>2014-04-13T09:30:17Z</time>
      </trkpt>
      <trkpt lat="48.09803" lon="3.38098">
        <ele>106</ele>
        <time>2014-04-13T09:30:23Z</time>
      </trkpt>
      <trkpt lat="48.098" lon="3.38098">
        <ele>101</ele>
        <time>2014-04-13T09:30:25Z</time>
      </trkpt>
      <trkpt lat="48.09797" lon="3.38102">
        <ele>98</ele>
        <time>2014-04-13T09:30:28Z</time>
      </trkpt>
      <trkpt lat="48.09794" lon="3.38108">
        <ele>102</ele>
        <time>2014-04-13T09:30:31Z</time>
      </trkpt>
      <trkpt lat="48.09789" lon="3.38121">
        <ele>111</ele>
        <time>2014-04-13T09:30:39Z</time>
      </trkpt>
      <trkpt lat="48.09787" lon="3.38128">
        <ele>111</ele>
        <time>2014-04-13T09:30:42Z</time>
      </trkpt>
      <trkpt lat="48.09786" lon="3.38136">
        <ele>105</ele>
        <time>2014-04-13T09:30:46Z</time>
      </trkpt>
      <trkpt lat="48.09784" lon="3.38143">
        <ele>105</ele>
        <time>2014-04-13T09:30:49Z</time>
      </trkpt>
      <trkpt lat="48.09782" lon="3.3815">
        <ele>108</ele>
        <time>2014-04-13T09:30:52Z</time>
      </trkpt>
      <trkpt lat="48.0978" lon="3.38158">
        <ele>106</ele>
        <time>2014-04-13T09:30:56Z</time>
      </trkpt>
      <trkpt lat="48.09771" lon="3.38178">
        <ele>108</ele>
        <time>2014-04-13T09:31:06Z</time>
      </trkpt>
      <trkpt lat="48.09766" lon="3.38187">
        <ele>107</ele>
        <time>2014-04-13T09:31:12Z</time>
      </trkpt>
      <trkpt lat="48.09764" lon="3.38194">
        <ele>114</ele>
        <time>2014-04-13T09:31:17Z</time>
      </trkpt>
      <trkpt lat="48.09761" lon="3.382">
        <ele>120</ele>
        <time>2014-04-13T09:31:21Z</time>
      </trkpt>
      <trkpt lat="48.09761" lon="3.38201">
        <ele>120</ele>
        <time>2014-04-13T09:31:22Z</time>
      </trkpt>
      <trkpt lat="48.09758" lon="3.38204">
        <ele>117</ele>
        <time>2014-04-13T09:31:24Z</time>
      </trkpt>
      <trkpt lat="48.09754" lon="3.3821">
        <ele>113</ele>
        <time>2014-04-13T09:31:28Z</time>
      </trkpt>
      <trkpt lat="48.09753" lon="3.38211">
        <ele>113</ele>
        <time>2014-04-13T09:31:29Z</time>
      </trkpt>
      <trkpt lat="48.09749" lon="3.38216">
        <ele>113</ele>
        <time>2014-04-13T09:31:32Z</time>
      </trkpt>
      <trkpt lat="48.09745" lon="3.38219">
        <ele>111</ele>
        <time>2014-04-13T09:31:35Z</time>
      </trkpt>
      <trkpt lat="48.09738" lon="3.38223">
        <ele>112</ele>
        <time>2014-04-13T09:31:40Z</time>
      </trkpt>
      <trkpt lat="48.09736" lon="3.38224">
        <ele>108</ele>
        <time>2014-04-13T09:31:43Z</time>
      </trkpt>
      <trkpt lat="48.0973" lon="3.38226">
        <ele>109</ele>
        <time>2014-04-13T09:31:46Z</time>
      </trkpt>
      <trkpt lat="48.09719" lon="3.38232">
        <ele>106</ele>
        <time>2014-04-13T09:31:55Z</time>
      </trkpt>
      <trkpt lat="48.09716" lon="3.38235">
        <ele>107</ele>
        <time>2014-04-13T09:31:57Z</time>
      </trkpt>
      <trkpt lat="48.09714" lon="3.38236">
        <ele>108</ele>
        <time>2014-04-13T09:31:59Z</time>
      </trkpt>
      <trkpt lat="48.09711" lon="3.38238">
        <ele>109</ele>
        <time>2014-04-13T09:32:01Z</time>
      </trkpt>
      <trkpt lat="48.09709" lon="3.38241">
        <ele>111</ele>
        <time>2014-04-13T09:32:03Z</time>
      </trkpt>
      <trkpt lat="48.09703" lon="3.38249">
        <ele>110</ele>
        <time>2014-04-13T09:32:09Z</time>
      </trkpt>
      <trkpt lat="48.09696" lon="3.3826">
        <ele>108</ele>
        <time>2014-04-13T09:32:17Z</time>
      </trkpt>
      <trkpt lat="48.09695" lon="3.38263">
        <ele>108</ele>
        <time>2014-04-13T09:32:19Z</time>
      </trkpt>
      <trkpt lat="48.09692" lon="3.38271">
        <ele>110</ele>
        <time>2014-04-13T09:32:24Z</time>
      </trkpt>
      <trkpt lat="48.09689" lon="3.38276">
        <ele>110</ele>
        <time>2014-04-13T09:32:27Z</time>
      </trkpt>
      <trkpt lat="48.09669" lon="3.38316">
        <ele>109</ele>
        <time>2014-04-13T09:32:54Z</time>
      </trkpt>
      <trkpt lat="48.09665" lon="3.38326">
        <ele>107</ele>
        <time>2014-04-13T09:33:00Z</time>
      </trkpt>
      <trkpt lat="48.09661" lon="3.38336">
        <ele>109</ele>
        <time>2014-04-13T09:33:05Z</time>
      </trkpt>
      <trkpt lat="48.09659" lon="3.3834">
        <ele>108</ele>
        <time>2014-04-13T09:33:07Z</time>
      </trkpt>
      <trkpt lat="48.09655" lon="3.38347">
        <ele>108</ele>
        <time>2014-04-13T09:33:11Z</time>
      </trkpt>
      <trkpt lat="48.09649" lon="3.38358">
        <ele>107</ele>
        <time>2014-04-13T09:33:19Z</time>
      </trkpt>
      <trkpt lat="48.09647" lon="3.38361">
        <ele>109</ele>
        <time>2014-04-13T09:33:20Z</time>
      </trkpt>
      <trkpt lat="48.09646" lon="3.38364">
        <ele>111</ele>
        <time>2014-04-13T09:33:22Z</time>
      </trkpt>
      <trkpt lat="48.09643" lon="3.38368">
        <ele>112</ele>
        <time>2014-04-13T09:33:25Z</time>
      </trkpt>
      <trkpt lat="48.09641" lon="3.38373">
        <ele>111</ele>
        <time>2014-04-13T09:33:28Z</time>
      </trkpt>
      <trkpt lat="48.09637" lon="3.3838">
        <ele>109</ele>
        <time>2014-04-13T09:33:32Z</time>
      </trkpt>
      <trkpt lat="48.09632" lon="3.38386">
        <ele>108</ele>
        <time>2014-04-13T09:33:38Z</time>
      </trkpt>
      <trkpt lat="48.09618" lon="3.38407">
        <ele>107</ele>
        <time>2014-04-13T09:33:51Z</time>
      </trkpt>
      <trkpt lat="48.09606" lon="3.38427">
        <ele>106</ele>
        <time>2014-04-13T09:34:03Z</time>
      </trkpt>
      <trkpt lat="48.09601" lon="3.38434">
        <ele>108</ele>
        <time>2014-04-13T09:34:07Z</time>
      </trkpt>
      <trkpt lat="48.09595" lon="3.38438">
        <ele>109</ele>
        <time>2014-04-13T09:34:13Z</time>
      </trkpt>
      <trkpt lat="48.0959" lon="3.38443">
        <ele>108</ele>
        <time>2014-04-13T09:34:17Z</time>
      </trkpt>
      <trkpt lat="48.09584" lon="3.38447">
        <ele>108</ele>
        <time>2014-04-13T09:34:21Z</time>
      </trkpt>
      <trkpt lat="48.09582" lon="3.38451">
        <ele>105</ele>
        <time>2014-04-13T09:34:23Z</time>
      </trkpt>
      <trkpt lat="48.09579" lon="3.38455">
        <ele>101</ele>
        <time>2014-04-13T09:34:26Z</time>
      </trkpt>
      <trkpt lat="48.09575" lon="3.3846">
        <ele>101</ele>
        <time>2014-04-13T09:34:29Z</time>
      </trkpt>
      <trkpt lat="48.0957" lon="3.38466">
        <ele>102</ele>
        <time>2014-04-13T09:34:34Z</time>
      </trkpt>
      <trkpt lat="48.09561" lon="3.38475">
        <ele>108</ele>
        <time>2014-04-13T09:34:43Z</time>
      </trkpt>
      <trkpt lat="48.09551" lon="3.38487">
        <ele>113</ele>
        <time>2014-04-13T09:34:53Z</time>
      </trkpt>
      <trkpt lat="48.09544" lon="3.38498">
        <ele>111</ele>
        <time>2014-04-13T09:34:59Z</time>
      </trkpt>
      <trkpt lat="48.09542" lon="3.38501">
        <ele>111</ele>
        <time>2014-04-13T09:35:01Z</time>
      </trkpt>
      <trkpt lat="48.09538" lon="3.38507">
        <ele>112</ele>
        <time>2014-04-13T09:35:04Z</time>
      </trkpt>
      <trkpt lat="48.09532" lon="3.38517">
        <ele>108</ele>
        <time>2014-04-13T09:35:09Z</time>
      </trkpt>
      <trkpt lat="48.09529" lon="3.38521">
        <ele>108</ele>
        <time>2014-04-13T09:35:12Z</time>
      </trkpt>
      <trkpt lat="48.09525" lon="3.38527">
        <ele>114</ele>
        <time>2014-04-13T09:35:16Z</time>
      </trkpt>
      <trkpt lat="48.09523" lon="3.38529">
        <ele>114</ele>
        <time>2014-04-13T09:35:17Z</time>
      </trkpt>
      <trkpt lat="48.09521" lon="3.38534">
        <ele>114</ele>
        <time>2014-04-13T09:35:20Z</time>
      </trkpt>
      <trkpt lat="48.09515" lon="3.38546">
        <ele>113</ele>
        <time>2014-04-13T09:35:28Z</time>
      </trkpt>
      <trkpt lat="48.09512" lon="3.38549">
        <ele>115</ele>
        <time>2014-04-13T09:35:30Z</time>
      </trkpt>
      <trkpt lat="48.09511" lon="3.38552">
        <ele>119</ele>
        <time>2014-04-13T09:35:32Z</time>
      </trkpt>
      <trkpt lat="48.09504" lon="3.38566">
        <ele>111</ele>
        <time>2014-04-13T09:35:41Z</time>
      </trkpt>
      <trkpt lat="48.09503" lon="3.3857">
        <ele>113</ele>
        <time>2014-04-13T09:35:43Z</time>
      </trkpt>
      <trkpt lat="48.09501" lon="3.38575">
        <ele>110</ele>
        <time>2014-04-13T09:35:46Z</time>
      </trkpt>
      <trkpt lat="48.09497" lon="3.38581">
        <ele>114</ele>
        <time>2014-04-13T09:35:50Z</time>
      </trkpt>
      <trkpt lat="48.09496" lon="3.38583">
        <ele>114</ele>
        <time>2014-04-13T09:35:51Z</time>
      </trkpt>
      <trkpt lat="48.09494" lon="3.38587">
        <ele>111</ele>
        <time>2014-04-13T09:35:53Z</time>
      </trkpt>
      <trkpt lat="48.09493" lon="3.38591">
        <ele>113</ele>
        <time>2014-04-13T09:35:55Z</time>
      </trkpt>
      <trkpt lat="48.09489" lon="3.38605">
        <ele>110</ele>
        <time>2014-04-13T09:36:05Z</time>
      </trkpt>
      <trkpt lat="48.09485" lon="3.38615">
        <ele>110</ele>
        <time>2014-04-13T09:36:11Z</time>
      </trkpt>
      <trkpt lat="48.09482" lon="3.38621">
        <ele>114</ele>
        <time>2014-04-13T09:36:17Z</time>
      </trkpt>
      <trkpt lat="48.09457" lon="3.38674">
        <ele>117</ele>
        <time>2014-04-13T09:36:45Z</time>
      </trkpt>
      <trkpt lat="48.09454" lon="3.38679">
        <ele>118</ele>
        <time>2014-04-13T09:36:47Z</time>
      </trkpt>
      <trkpt lat="48.09443" lon="3.38706">
        <ele>120</ele>
        <time>2014-04-13T09:37:00Z</time>
      </trkpt>
      <trkpt lat="48.09437" lon="3.38717">
        <ele>116</ele>
        <time>2014-04-13T09:37:07Z</time>
      </trkpt>
      <trkpt lat="48.09431" lon="3.38731">
        <ele>119</ele>
        <time>2014-04-13T09:37:16Z</time>
      </trkpt>
      <trkpt lat="48.0943" lon="3.38735">
        <ele>122</ele>
        <time>2014-04-13T09:37:18Z</time>
      </trkpt>
      <trkpt lat="48.09418" lon="3.38776">
        <ele>120</ele>
        <time>2014-04-13T09:37:42Z</time>
      </trkpt>
      <trkpt lat="48.09417" lon="3.38781">
        <ele>121</ele>
        <time>2014-04-13T09:37:45Z</time>
      </trkpt>
      <trkpt lat="48.09414" lon="3.38796">
        <ele>125</ele>
        <time>2014-04-13T09:37:52Z</time>
      </trkpt>
      <trkpt lat="48.09413" lon="3.38801">
        <ele>122</ele>
        <time>2014-04-13T09:37:54Z</time>
      </trkpt>
      <trkpt lat="48.09411" lon="3.38806">
        <ele>120</ele>
        <time>2014-04-13T09:37:56Z</time>
      </trkpt>
      <trkpt lat="48.09407" lon="3.38819">
        <ele>121</ele>
        <time>2014-04-13T09:38:02Z</time>
      </trkpt>
      <trkpt lat="48.09406" lon="3.38823">
        <ele>121</ele>
        <time>2014-04-13T09:38:04Z</time>
      </trkpt>
      <trkpt lat="48.09404" lon="3.38828">
        <ele>122</ele>
        <time>2014-04-13T09:38:06Z</time>
      </trkpt>
      <trkpt lat="48.094" lon="3.38842">
        <ele>123</ele>
        <time>2014-04-13T09:38:12Z</time>
      </trkpt>
      <trkpt lat="48.09399" lon="3.38846">
        <ele>121</ele>
        <time>2014-04-13T09:38:14Z</time>
      </trkpt>
      <trkpt lat="48.09398" lon="3.3885">
        <ele>123</ele>
        <time>2014-04-13T09:38:16Z</time>
      </trkpt>
      <trkpt lat="48.09397" lon="3.38854">
        <ele>123</ele>
        <time>2014-04-13T09:38:18Z</time>
      </trkpt>
      <trkpt lat="48.09394" lon="3.38869">
        <ele>124</ele>
        <time>2014-04-13T09:38:27Z</time>
      </trkpt>
      <trkpt lat="48.09393" lon="3.38874">
        <ele>126</ele>
        <time>2014-04-13T09:38:30Z</time>
      </trkpt>
      <trkpt lat="48.09391" lon="3.38878">
        <ele>125</ele>
        <time>2014-04-13T09:38:32Z</time>
      </trkpt>
      <trkpt lat="48.09387" lon="3.38883">
        <ele>126</ele>
        <time>2014-04-13T09:38:35Z</time>
      </trkpt>
      <trkpt lat="48.09384" lon="3.38892">
        <ele>125</ele>
        <time>2014-04-13T09:38:39Z</time>
      </trkpt>
      <trkpt lat="48.09381" lon="3.38904">
        <ele>123</ele>
        <time>2014-04-13T09:38:45Z</time>
      </trkpt>
      <trkpt lat="48.09377" lon="3.38914">
        <ele>123</ele>
        <time>2014-04-13T09:38:51Z</time>
      </trkpt>
      <trkpt lat="48.09359" lon="3.38962">
        <ele>121</ele>
        <time>2014-04-13T09:39:18Z</time>
      </trkpt>
      <trkpt lat="48.09357" lon="3.38966">
        <ele>120</ele>
        <time>2014-04-13T09:39:20Z</time>
      </trkpt>
      <trkpt lat="48.09354" lon="3.38971">
        <ele>121</ele>
        <time>2014-04-13T09:39:23Z</time>
      </trkpt>
      <trkpt lat="48.09351" lon="3.38977">
        <ele>123</ele>
        <time>2014-04-13T09:39:27Z</time>
      </trkpt>
      <trkpt lat="48.09349" lon="3.38981">
        <ele>122</ele>
        <time>2014-04-13T09:39:29Z</time>
      </trkpt>
      <trkpt lat="48.09338" lon="3.39001">
        <ele>117</ele>
        <time>2014-04-13T09:39:38Z</time>
      </trkpt>
      <trkpt lat="48.09336" lon="3.39005">
        <ele>119</ele>
        <time>2014-04-13T09:39:40Z</time>
      </trkpt>
      <trkpt lat="48.09333" lon="3.39008">
        <ele>121</ele>
        <time>2014-04-13T09:39:42Z</time>
      </trkpt>
      <trkpt lat="48.09329" lon="3.39009">
        <ele>122</ele>
        <time>2014-04-13T09:39:45Z</time>
      </trkpt>
      <trkpt lat="48.09326" lon="3.39008">
        <ele>120</ele>
        <time>2014-04-13T09:39:47Z</time>
      </trkpt>
      <trkpt lat="48.09323" lon="3.39008">
        <ele>115</ele>
        <time>2014-04-13T09:39:49Z</time>
      </trkpt>
      <trkpt lat="48.09313" lon="3.39007">
        <ele>116</ele>
        <time>2014-04-13T09:39:56Z</time>
      </trkpt>
      <trkpt lat="48.09308" lon="3.39007">
        <ele>115</ele>
        <time>2014-04-13T09:39:59Z</time>
      </trkpt>
      <trkpt lat="48.09303" lon="3.39007">
        <ele>115</ele>
        <time>2014-04-13T09:40:02Z</time>
      </trkpt>
      <trkpt lat="48.09293" lon="3.39007">
        <ele>116</ele>
        <time>2014-04-13T09:40:09Z</time>
      </trkpt>
      <trkpt lat="48.09289" lon="3.39008">
        <ele>116</ele>
        <time>2014-04-13T09:40:11Z</time>
      </trkpt>
      <trkpt lat="48.09286" lon="3.39008">
        <ele>112</ele>
        <time>2014-04-13T09:40:13Z</time>
      </trkpt>
      <trkpt lat="48.09276" lon="3.39007">
        <ele>112</ele>
        <time>2014-04-13T09:40:20Z</time>
      </trkpt>
      <trkpt lat="48.0927" lon="3.39006">
        <ele>116</ele>
        <time>2014-04-13T09:40:24Z</time>
      </trkpt>
      <trkpt lat="48.09269" lon="3.39006">
        <ele>116</ele>
        <time>2014-04-13T09:40:25Z</time>
      </trkpt>
      <trkpt lat="48.09266" lon="3.39004">
        <ele>112</ele>
        <time>2014-04-13T09:40:27Z</time>
      </trkpt>
      <trkpt lat="48.09262" lon="3.39002">
        <ele>110</ele>
        <time>2014-04-13T09:40:30Z</time>
      </trkpt>
      <trkpt lat="48.09232" lon="3.3899">
        <ele>117</ele>
        <time>2014-04-13T09:40:50Z</time>
      </trkpt>
      <trkpt lat="48.09229" lon="3.38988">
        <ele>119</ele>
        <time>2014-04-13T09:40:52Z</time>
      </trkpt>
      <trkpt lat="48.09226" lon="3.38987">
        <ele>115</ele>
        <time>2014-04-13T09:40:54Z</time>
      </trkpt>
      <trkpt lat="48.09221" lon="3.38984">
        <ele>113</ele>
        <time>2014-04-13T09:40:58Z</time>
      </trkpt>
      <trkpt lat="48.09211" lon="3.38979">
        <ele>108</ele>
        <time>2014-04-13T09:41:05Z</time>
      </trkpt>
      <trkpt lat="48.09207" lon="3.38978">
        <ele>111</ele>
        <time>2014-04-13T09:41:08Z</time>
      </trkpt>
      <trkpt lat="48.09204" lon="3.38977">
        <ele>110</ele>
        <time>2014-04-13T09:41:10Z</time>
      </trkpt>
      <trkpt lat="48.09201" lon="3.38977">
        <ele>113</ele>
        <time>2014-04-13T09:41:12Z</time>
      </trkpt>
      <trkpt lat="48.09197" lon="3.38976">
        <ele>112</ele>
        <time>2014-04-13T09:41:14Z</time>
      </trkpt>
      <trkpt lat="48.09187" lon="3.38972">
        <ele>115</ele>
        <time>2014-04-13T09:41:20Z</time>
      </trkpt>
      <trkpt lat="48.09184" lon="3.38971">
        <ele>112</ele>
        <time>2014-04-13T09:41:22Z</time>
      </trkpt>
      <trkpt lat="48.09174" lon="3.38965">
        <ele>107</ele>
        <time>2014-04-13T09:41:29Z</time>
      </trkpt>
      <trkpt lat="48.09172" lon="3.38963">
        <ele>105</ele>
        <time>2014-04-13T09:41:31Z</time>
      </trkpt>
      <trkpt lat="48.09168" lon="3.3896">
        <ele>104</ele>
        <time>2014-04-13T09:41:34Z</time>
      </trkpt>
      <trkpt lat="48.09166" lon="3.38959">
        <ele>105</ele>
        <time>2014-04-13T09:41:36Z</time>
      </trkpt>
      <trkpt lat="48.09163" lon="3.38958">
        <ele>109</ele>
        <time>2014-04-13T09:41:38Z</time>
      </trkpt>
      <trkpt lat="48.09161" lon="3.38958">
        <ele>111</ele>
        <time>2014-04-13T09:41:40Z</time>
      </trkpt>
      <trkpt lat="48.09158" lon="3.38962">
        <ele>109</ele>
        <time>2014-04-13T09:41:43Z</time>
      </trkpt>
      <trkpt lat="48.09157" lon="3.38966">
        <ele>110</ele>
        <time>2014-04-13T09:41:45Z</time>
      </trkpt>
      <trkpt lat="48.09154" lon="3.38973">
        <ele>109</ele>
        <time>2014-04-13T09:41:48Z</time>
      </trkpt>
      <trkpt lat="48.09129" lon="3.39049">
        <ele>112</ele>
        <time>2014-04-13T09:42:24Z</time>
      </trkpt>
      <trkpt lat="48.09127" lon="3.39054">
        <ele>111</ele>
        <time>2014-04-13T09:42:26Z</time>
      </trkpt>
      <trkpt lat="48.09126" lon="3.39066">
        <ele>112</ele>
        <time>2014-04-13T09:42:31Z</time>
      </trkpt>
      <trkpt lat="48.09124" lon="3.39074">
        <ele>114</ele>
        <time>2014-04-13T09:42:35Z</time>
      </trkpt>
      <trkpt lat="48.09121" lon="3.3909">
        <ele>113</ele>
        <time>2014-04-13T09:42:42Z</time>
      </trkpt>
      <trkpt lat="48.09119" lon="3.391">
        <ele>114</ele>
        <time>2014-04-13T09:42:46Z</time>
      </trkpt>
      <trkpt lat="48.09117" lon="3.39102">
        <ele>117</ele>
        <time>2014-04-13T09:42:49Z</time>
      </trkpt>
      <trkpt lat="48.09116" lon="3.3911">
        <ele>112</ele>
        <time>2014-04-13T09:43:08Z</time>
      </trkpt>
      <trkpt lat="48.09115" lon="3.3912">
        <ele>112</ele>
        <time>2014-04-13T09:43:12Z</time>
      </trkpt>
      <trkpt lat="48.09114" lon="3.39128">
        <ele>117</ele>
        <time>2014-04-13T09:43:15Z</time>
      </trkpt>
      <trkpt lat="48.09113" lon="3.39131">
        <ele>117</ele>
        <time>2014-04-13T09:43:16Z</time>
      </trkpt>
      <trkpt lat="48.09113" lon="3.39134">
        <ele>115</ele>
        <time>2014-04-13T09:43:17Z</time>
      </trkpt>
      <trkpt lat="48.09112" lon="3.3914">
        <ele>118</ele>
        <time>2014-04-13T09:43:19Z</time>
      </trkpt>
      <trkpt lat="48.09111" lon="3.39144">
        <ele>113</ele>
        <time>2014-04-13T09:43:21Z</time>
      </trkpt>
      <trkpt lat="48.0911" lon="3.39151">
        <ele>116</ele>
        <time>2014-04-13T09:43:24Z</time>
      </trkpt>
      <trkpt lat="48.09109" lon="3.39156">
        <ele>117</ele>
        <time>2014-04-13T09:43:26Z</time>
      </trkpt>
      <trkpt lat="48.09109" lon="3.3916">
        <ele>114</ele>
        <time>2014-04-13T09:43:28Z</time>
      </trkpt>
      <trkpt lat="48.09109" lon="3.39166">
        <ele>113</ele>
        <time>2014-04-13T09:43:31Z</time>
      </trkpt>
      <trkpt lat="48.09108" lon="3.3917">
        <ele>113</ele>
        <time>2014-04-13T09:43:33Z</time>
      </trkpt>
      <trkpt lat="48.09102" lon="3.39172">
        <ele>120</ele>
        <time>2014-04-13T09:43:38Z</time>
      </trkpt>
      <trkpt lat="48.09096" lon="3.39171">
        <ele>118</ele>
        <time>2014-04-13T09:43:41Z</time>
      </trkpt>
      <trkpt lat="48.09092" lon="3.3917">
        <ele>114</ele>
        <time>2014-04-13T09:43:43Z</time>
      </trkpt>
      <trkpt lat="48.09089" lon="3.39169">
        <ele>114</ele>
        <time>2014-04-13T09:43:45Z</time>
      </trkpt>
      <trkpt lat="48.09087" lon="3.39167">
        <ele>113</ele>
        <time>2014-04-13T09:43:47Z</time>
      </trkpt>
      <trkpt lat="48.09059" lon="3.39145">
        <ele>109</ele>
        <time>2014-04-13T09:44:07Z</time>
      </trkpt>
      <trkpt lat="48.09057" lon="3.39143">
        <ele>109</ele>
        <time>2014-04-13T09:44:09Z</time>
      </trkpt>
      <trkpt lat="48.09044" lon="3.39137">
        <ele>119</ele>
        <time>2014-04-13T09:44:20Z</time>
      </trkpt>
      <trkpt lat="48.09039" lon="3.39135">
        <ele>114</ele>
        <time>2014-04-13T09:44:24Z</time>
      </trkpt>
      <trkpt lat="48.09027" lon="3.39132">
        <ele>112</ele>
        <time>2014-04-13T09:44:33Z</time>
      </trkpt>
      <trkpt lat="48.09024" lon="3.39132">
        <ele>112</ele>
        <time>2014-04-13T09:44:36Z</time>
      </trkpt>
      <trkpt lat="48.09021" lon="3.39134">
        <ele>114</ele>
        <time>2014-04-13T09:44:38Z</time>
      </trkpt>
      <trkpt lat="48.09016" lon="3.39135">
        <ele>116</ele>
        <time>2014-04-13T09:44:42Z</time>
      </trkpt>
      <trkpt lat="48.09006" lon="3.39139">
        <ele>109</ele>
        <time>2014-04-13T09:44:50Z</time>
      </trkpt>
      <trkpt lat="48.09001" lon="3.39142">
        <ele>110</ele>
        <time>2014-04-13T09:44:55Z</time>
      </trkpt>
      <trkpt lat="48.0899" lon="3.39146">
        <ele>117</ele>
        <time>2014-04-13T09:45:03Z</time>
      </trkpt>
      <trkpt lat="48.08984" lon="3.39147">
        <ele>114</ele>
        <time>2014-04-13T09:45:07Z</time>
      </trkpt>
      <trkpt lat="48.0898" lon="3.39149">
        <ele>114</ele>
        <time>2014-04-13T09:45:09Z</time>
      </trkpt>
      <trkpt lat="48.08976" lon="3.39149">
        <ele>116</ele>
        <time>2014-04-13T09:45:11Z</time>
      </trkpt>
      <trkpt lat="48.08974" lon="3.3915">
        <ele>118</ele>
        <time>2014-04-13T09:45:13Z</time>
      </trkpt>
      <trkpt lat="48.0897" lon="3.3915">
        <ele>115</ele>
        <time>2014-04-13T09:45:15Z</time>
      </trkpt>
      <trkpt lat="48.08966" lon="3.39151">
        <ele>119</ele>
        <time>2014-04-13T09:45:19Z</time>
      </trkpt>
      <trkpt lat="48.08955" lon="3.39152">
        <ele>120</ele>
        <time>2014-04-13T09:45:27Z</time>
      </trkpt>
      <trkpt lat="48.08952" lon="3.39151">
        <ele>121</ele>
        <time>2014-04-13T09:45:30Z</time>
      </trkpt>
      <trkpt lat="48.08949" lon="3.39151">
        <ele>118</ele>
        <time>2014-04-13T09:45:33Z</time>
      </trkpt>
      <trkpt lat="48.08946" lon="3.39151">
        <ele>120</ele>
        <time>2014-04-13T09:45:35Z</time>
      </trkpt>
      <trkpt lat="48.08943" lon="3.3915">
        <ele>117</ele>
        <time>2014-04-13T09:45:37Z</time>
      </trkpt>
      <trkpt lat="48.08939" lon="3.39151">
        <ele>118</ele>
        <time>2014-04-13T09:45:39Z</time>
      </trkpt>
      <trkpt lat="48.08929" lon="3.39151">
        <ele>115</ele>
        <time>2014-04-13T09:45:46Z</time>
      </trkpt>
      <trkpt lat="48.08924" lon="3.3915">
        <ele>118</ele>
        <time>2014-04-13T09:45:50Z</time>
      </trkpt>
      <trkpt lat="48.08921" lon="3.39149">
        <ele>118</ele>
        <time>2014-04-13T09:45:52Z</time>
      </trkpt>
      <trkpt lat="48.08918" lon="3.39148">
        <ele>118</ele>
        <time>2014-04-13T09:45:54Z</time>
      </trkpt>
      <trkpt lat="48.08908" lon="3.39145">
        <ele>121</ele>
        <time>2014-04-13T09:46:01Z</time>
      </trkpt>
      <trkpt lat="48.08905" lon="3.39145">
        <ele>126</ele>
        <time>2014-04-13T09:46:04Z</time>
      </trkpt>
      <trkpt lat="48.089" lon="3.39145">
        <ele>129</ele>
        <time>2014-04-13T09:46:07Z</time>
      </trkpt>
      <trkpt lat="48.08894" lon="3.39146">
        <ele>129</ele>
        <time>2014-04-13T09:46:11Z</time>
      </trkpt>
      <trkpt lat="48.08885" lon="3.39146">
        <ele>119</ele>
        <time>2014-04-13T09:46:21Z</time>
      </trkpt>
      <trkpt lat="48.08883" lon="3.39146">
        <ele>119</ele>
        <time>2014-04-13T09:46:22Z</time>
      </trkpt>
      <trkpt lat="48.08878" lon="3.39145">
        <ele>126</ele>
        <time>2014-04-13T09:46:26Z</time>
      </trkpt>
      <trkpt lat="48.08872" lon="3.39146">
        <ele>126</ele>
        <time>2014-04-13T09:46:31Z</time>
      </trkpt>
      <trkpt lat="48.08867" lon="3.39147">
        <ele>125</ele>
        <time>2014-04-13T09:46:35Z</time>
      </trkpt>
      <trkpt lat="48.08851" lon="3.3915">
        <ele>122</ele>
        <time>2014-04-13T09:46:45Z</time>
      </trkpt>
      <trkpt lat="48.08846" lon="3.39152">
        <ele>126</ele>
        <time>2014-04-13T09:46:48Z</time>
      </trkpt>
      <trkpt lat="48.08839" lon="3.39153">
        <ele>134</ele>
        <time>2014-04-13T09:46:52Z</time>
      </trkpt>
      <trkpt lat="48.08829" lon="3.39153">
        <ele>137</ele>
        <time>2014-04-13T09:46:58Z</time>
      </trkpt>
      <trkpt lat="48.08819" lon="3.39153">
        <ele>140</ele>
        <time>2014-04-13T09:47:06Z</time>
      </trkpt>
      <trkpt lat="48.08815" lon="3.39153">
        <ele>141</ele>
        <time>2014-04-13T09:47:10Z</time>
      </trkpt>
      <trkpt lat="48.08812" lon="3.39151">
        <ele>140</ele>
        <time>2014-04-13T09:47:12Z</time>
      </trkpt>
      <trkpt lat="48.08807" lon="3.39152">
        <ele>143</ele>
        <time>2014-04-13T09:47:17Z</time>
      </trkpt>
      <trkpt lat="48.08787" lon="3.39155">
        <ele>137</ele>
        <time>2014-04-13T09:47:30Z</time>
      </trkpt>
      <trkpt lat="48.08781" lon="3.39154">
        <ele>137</ele>
        <time>2014-04-13T09:47:34Z</time>
      </trkpt>
      <trkpt lat="48.08775" lon="3.39154">
        <ele>130</ele>
        <time>2014-04-13T09:47:38Z</time>
      </trkpt>
      <trkpt lat="48.08751" lon="3.39157">
        <ele>120</ele>
        <time>2014-04-13T09:47:58Z</time>
      </trkpt>
      <trkpt lat="48.08748" lon="3.39159">
        <ele>118</ele>
        <time>2014-04-13T09:48:00Z</time>
      </trkpt>
      <trkpt lat="48.08742" lon="3.39157">
        <ele>118</ele>
        <time>2014-04-13T09:48:05Z</time>
      </trkpt>
      <trkpt lat="48.08735" lon="3.39156">
        <ele>116</ele>
        <time>2014-04-13T09:48:09Z</time>
      </trkpt>
      <trkpt lat="48.0873" lon="3.39154">
        <ele>124</ele>
        <time>2014-04-13T09:48:13Z</time>
      </trkpt>
      <trkpt lat="48.08724" lon="3.39155">
        <ele>136</ele>
        <time>2014-04-13T09:48:15Z</time>
      </trkpt>
      <trkpt lat="48.08719" lon="3.39154">
        <ele>147</ele>
        <time>2014-04-13T09:48:17Z</time>
      </trkpt>
      <trkpt lat="48.08715" lon="3.39153">
        <ele>146</ele>
        <time>2014-04-13T09:48:19Z</time>
      </trkpt>
      <trkpt lat="48.08712" lon="3.39152">
        <ele>145</ele>
        <time>2014-04-13T09:48:21Z</time>
      </trkpt>
      <trkpt lat="48.08709" lon="3.3915">
        <ele>144</ele>
        <time>2014-04-13T09:48:23Z</time>
      </trkpt>
      <trkpt lat="48.087" lon="3.39148">
        <ele>139</ele>
        <time>2014-04-13T09:48:30Z</time>
      </trkpt>
      <trkpt lat="48.08698" lon="3.39148">
        <ele>139</ele>
        <time>2014-04-13T09:48:32Z</time>
      </trkpt>
      <trkpt lat="48.08692" lon="3.39149">
        <ele>143</ele>
        <time>2014-04-13T09:48:37Z</time>
      </trkpt>
      <trkpt lat="48.08654" lon="3.39158">
        <ele>159</ele>
        <time>2014-04-13T09:49:07Z</time>
      </trkpt>
      <trkpt lat="48.08649" lon="3.3916">
        <ele>159</ele>
        <time>2014-04-13T09:49:12Z</time>
      </trkpt>
      <trkpt lat="48.08642" lon="3.39161">
        <ele>156</ele>
        <time>2014-04-13T09:49:18Z</time>
      </trkpt>
      <trkpt lat="48.08635" lon="3.39163">
        <ele>157</ele>
        <time>2014-04-13T09:49:24Z</time>
      </trkpt>
      <trkpt lat="48.08627" lon="3.39162">
        <ele>147</ele>
        <time>2014-04-13T09:49:31Z</time>
      </trkpt>
      <trkpt lat="48.08621" lon="3.39163">
        <ele>152</ele>
        <time>2014-04-13T09:49:37Z</time>
      </trkpt>
      <trkpt lat="48.08614" lon="3.39162">
        <ele>161</ele>
        <time>2014-04-13T09:49:45Z</time>
      </trkpt>
      <trkpt lat="48.08606" lon="3.39166">
        <ele>160</ele>
        <time>2014-04-13T09:49:50Z</time>
      </trkpt>
      <trkpt lat="48.08598" lon="3.39173">
        <ele>167</ele>
        <time>2014-04-13T09:49:55Z</time>
      </trkpt>
      <trkpt lat="48.08587" lon="3.39178">
        <ele>151</ele>
        <time>2014-04-13T09:50:04Z</time>
      </trkpt>
      <trkpt lat="48.08581" lon="3.39178">
        <ele>149</ele>
        <time>2014-04-13T09:50:09Z</time>
      </trkpt>
      <trkpt lat="48.08571" lon="3.39181">
        <ele>154</ele>
        <time>2014-04-13T09:50:18Z</time>
      </trkpt>
      <trkpt lat="48.08566" lon="3.39181">
        <ele>160</ele>
        <time>2014-04-13T09:50:24Z</time>
      </trkpt>
      <trkpt lat="48.08559" lon="3.39183">
        <ele>157</ele>
        <time>2014-04-13T09:50:32Z</time>
      </trkpt>
      <trkpt lat="48.08547" lon="3.39185">
        <ele>151</ele>
        <time>2014-04-13T09:50:44Z</time>
      </trkpt>
      <trkpt lat="48.08538" lon="3.39185">
        <ele>152</ele>
        <time>2014-04-13T09:50:50Z</time>
      </trkpt>
      <trkpt lat="48.08528" lon="3.39189">
        <ele>158</ele>
        <time>2014-04-13T09:50:55Z</time>
      </trkpt>
      <trkpt lat="48.08516" lon="3.39192">
        <ele>148</ele>
        <time>2014-04-13T09:51:03Z</time>
      </trkpt>
      <trkpt lat="48.08512" lon="3.39197">
        <ele>159</ele>
        <time>2014-04-13T09:51:07Z</time>
      </trkpt>
      <trkpt lat="48.08504" lon="3.39197">
        <ele>158</ele>
        <time>2014-04-13T09:51:12Z</time>
      </trkpt>
      <trkpt lat="48.08497" lon="3.39195">
        <ele>160</ele>
        <time>2014-04-13T09:51:17Z</time>
      </trkpt>
      <trkpt lat="48.08491" lon="3.39195">
        <ele>162</ele>
        <time>2014-04-13T09:51:23Z</time>
      </trkpt>
      <trkpt lat="48.08486" lon="3.39193">
        <ele>167</ele>
        <time>2014-04-13T09:51:27Z</time>
      </trkpt>
      <trkpt lat="48.08479" lon="3.39188">
        <ele>168</ele>
        <time>2014-04-13T09:51:31Z</time>
      </trkpt>
      <trkpt lat="48.08474" lon="3.39189">
        <ele>175</ele>
        <time>2014-04-13T09:51:34Z</time>
      </trkpt>
      <trkpt lat="48.08467" lon="3.39189">
        <ele>185</ele>
        <time>2014-04-13T09:51:38Z</time>
      </trkpt>
      <trkpt lat="48.08461" lon="3.39187">
        <ele>181</ele>
        <time>2014-04-13T09:51:43Z</time>
      </trkpt>
      <trkpt lat="48.08452" lon="3.39186">
        <ele>184</ele>
        <time>2014-04-13T09:51:54Z</time>
      </trkpt>
      <trkpt lat="48.08447" lon="3.39188">
        <ele>184</ele>
        <time>2014-04-13T09:51:59Z</time>
      </trkpt>
      <trkpt lat="48.0844" lon="3.39188">
        <ele>174</ele>
        <time>2014-04-13T09:52:05Z</time>
      </trkpt>
      <trkpt lat="48.08432" lon="3.39186">
        <ele>168</ele>
        <time>2014-04-13T09:52:12Z</time>
      </trkpt>
      <trkpt lat="48.08427" lon="3.39182">
        <ele>177</ele>
        <time>2014-04-13T09:52:14Z</time>
      </trkpt>
      <trkpt lat="48.08422" lon="3.39181">
        <ele>179</ele>
        <time>2014-04-13T09:52:16Z</time>
      </trkpt>
      <trkpt lat="48.08409" lon="3.3918">
        <ele>188</ele>
        <time>2014-04-13T09:52:23Z</time>
      </trkpt>
      <trkpt lat="48.08403" lon="3.39181">
        <ele>188</ele>
        <time>2014-04-13T09:52:27Z</time>
      </trkpt>
      <trkpt lat="48.08398" lon="3.39181">
        <ele>186</ele>
        <time>2014-04-13T09:52:33Z</time>
      </trkpt>
      <trkpt lat="48.0838" lon="3.39182">
        <ele>183</ele>
        <time>2014-04-13T09:52:43Z</time>
      </trkpt>
      <trkpt lat="48.08368" lon="3.39179">
        <ele>181</ele>
        <time>2014-04-13T09:52:52Z</time>
      </trkpt>
      <trkpt lat="48.08362" lon="3.39182">
        <ele>183</ele>
        <time>2014-04-13T09:52:56Z</time>
      </trkpt>
      <trkpt lat="48.08358" lon="3.39185">
        <ele>182</ele>
        <time>2014-04-13T09:52:59Z</time>
      </trkpt>
      <trkpt lat="48.08353" lon="3.39188">
        <ele>187</ele>
        <time>2014-04-13T09:53:02Z</time>
      </trkpt>
      <trkpt lat="48.08349" lon="3.39191">
        <ele>192</ele>
        <time>2014-04-13T09:53:05Z</time>
      </trkpt>
      <trkpt lat="48.08343" lon="3.39191">
        <ele>191</ele>
        <time>2014-04-13T09:53:12Z</time>
      </trkpt>
      <trkpt lat="48.08338" lon="3.3919">
        <ele>190</ele>
        <time>2014-04-13T09:53:15Z</time>
      </trkpt>
      <trkpt lat="48.08334" lon="3.39188">
        <ele>193</ele>
        <time>2014-04-13T09:53:18Z</time>
      </trkpt>
      <trkpt lat="48.08331" lon="3.39187">
        <ele>195</ele>
        <time>2014-04-13T09:53:21Z</time>
      </trkpt>
      <trkpt lat="48.08328" lon="3.39187">
        <ele>195</ele>
        <time>2014-04-13T09:53:23Z</time>
      </trkpt>
      <trkpt lat="48.08309" lon="3.39191">
        <ele>187</ele>
        <time>2014-04-13T09:53:36Z</time>
      </trkpt>
      <trkpt lat="48.08304" lon="3.39192">
        <ele>185</ele>
        <time>2014-04-13T09:53:39Z</time>
      </trkpt>
      <trkpt lat="48.083" lon="3.39193">
        <ele>185</ele>
        <time>2014-04-13T09:53:42Z</time>
      </trkpt>
      <trkpt lat="48.08296" lon="3.39193">
        <ele>188</ele>
        <time>2014-04-13T09:53:45Z</time>
      </trkpt>
      <trkpt lat="48.08293" lon="3.39194">
        <ele>191</ele>
        <time>2014-04-13T09:53:47Z</time>
      </trkpt>
      <trkpt lat="48.08277" lon="3.39197">
        <ele>196</ele>
        <time>2014-04-13T09:53:57Z</time>
      </trkpt>
      <trkpt lat="48.08274" lon="3.39197">
        <ele>196</ele>
        <time>2014-04-13T09:53:59Z</time>
      </trkpt>
      <trkpt lat="48.08264" lon="3.39198">
        <ele>195</ele>
        <time>2014-04-13T09:54:06Z</time>
      </trkpt>
      <trkpt lat="48.08261" lon="3.39198">
        <ele>195</ele>
        <time>2014-04-13T09:54:08Z</time>
      </trkpt>
      <trkpt lat="48.08258" lon="3.39199">
        <ele>195</ele>
        <time>2014-04-13T09:54:10Z</time>
      </trkpt>
      <trkpt lat="48.08255" lon="3.39198">
        <ele>186</ele>
        <time>2014-04-13T09:54:13Z</time>
      </trkpt>
      <trkpt lat="48.08252" lon="3.39199">
        <ele>194</ele>
        <time>2014-04-13T09:54:15Z</time>
      </trkpt>
      <trkpt lat="48.08248" lon="3.39199">
        <ele>190</ele>
        <time>2014-04-13T09:54:18Z</time>
      </trkpt>
      <trkpt lat="48.08245" lon="3.39199">
        <ele>189</ele>
        <time>2014-04-13T09:54:20Z</time>
      </trkpt>
      <trkpt lat="48.08235" lon="3.392">
        <ele>193</ele>
        <time>2014-04-13T09:54:29Z</time>
      </trkpt>
      <trkpt lat="48.08229" lon="3.392">
        <ele>192</ele>
        <time>2014-04-13T09:54:33Z</time>
      </trkpt>
      <trkpt lat="48.08219" lon="3.39201">
        <ele>196</ele>
        <time>2014-04-13T09:54:41Z</time>
      </trkpt>
      <trkpt lat="48.08216" lon="3.39202">
        <ele>196</ele>
        <time>2014-04-13T09:54:43Z</time>
      </trkpt>
      <trkpt lat="48.08214" lon="3.39202">
        <ele>193</ele>
        <time>2014-04-13T09:54:45Z</time>
      </trkpt>
      <trkpt lat="48.08211" lon="3.39203">
        <ele>197</ele>
        <time>2014-04-13T09:54:47Z</time>
      </trkpt>
      <trkpt lat="48.08209" lon="3.39203">
        <ele>200</ele>
        <time>2014-04-13T09:54:49Z</time>
      </trkpt>
      <trkpt lat="48.08198" lon="3.39202">
        <ele>203</ele>
        <time>2014-04-13T09:54:57Z</time>
      </trkpt>
      <trkpt lat="48.08195" lon="3.39203">
        <ele>201</ele>
        <time>2014-04-13T09:54:59Z</time>
      </trkpt>
      <trkpt lat="48.08184" lon="3.39204">
        <ele>202</ele>
        <time>2014-04-13T09:55:06Z</time>
      </trkpt>
      <trkpt lat="48.08181" lon="3.39205">
        <ele>200</ele>
        <time>2014-04-13T09:55:08Z</time>
      </trkpt>
      <trkpt lat="48.08178" lon="3.39204">
        <ele>201</ele>
        <time>2014-04-13T09:55:10Z</time>
      </trkpt>
      <trkpt lat="48.08175" lon="3.39205">
        <ele>200</ele>
        <time>2014-04-13T09:55:12Z</time>
      </trkpt>
      <trkpt lat="48.08173" lon="3.39206">
        <ele>199</ele>
        <time>2014-04-13T09:55:14Z</time>
      </trkpt>
      <trkpt lat="48.08168" lon="3.39207">
        <ele>198</ele>
        <time>2014-04-13T09:55:18Z</time>
      </trkpt>
      <trkpt lat="48.08165" lon="3.39207">
        <ele>199</ele>
        <time>2014-04-13T09:55:20Z</time>
      </trkpt>
      <trkpt lat="48.08158" lon="3.39209">
        <ele>200</ele>
        <time>2014-04-13T09:55:25Z</time>
      </trkpt>
      <trkpt lat="48.08153" lon="3.39209">
        <ele>194</ele>
        <time>2014-04-13T09:55:29Z</time>
      </trkpt>
      <trkpt lat="48.08143" lon="3.3921">
        <ele>198</ele>
        <time>2014-04-13T09:55:37Z</time>
      </trkpt>
      <trkpt lat="48.0814" lon="3.39214">
        <ele>196</ele>
        <time>2014-04-13T09:55:41Z</time>
      </trkpt>
      <trkpt lat="48.08139" lon="3.39219">
        <ele>200</ele>
        <time>2014-04-13T09:55:44Z</time>
      </trkpt>
      <trkpt lat="48.08139" lon="3.39225">
        <ele>197</ele>
        <time>2014-04-13T09:55:47Z</time>
      </trkpt>
      <trkpt lat="48.08139" lon="3.39228">
        <ele>193</ele>
        <time>2014-04-13T09:55:49Z</time>
      </trkpt>
      <trkpt lat="48.08139" lon="3.39232">
        <ele>192</ele>
        <time>2014-04-13T09:55:51Z</time>
      </trkpt>
      <trkpt lat="48.08138" lon="3.39236">
        <ele>198</ele>
        <time>2014-04-13T09:55:55Z</time>
      </trkpt>
      <trkpt lat="48.08138" lon="3.3924">
        <ele>194</ele>
        <time>2014-04-13T09:55:58Z</time>
      </trkpt>
      <trkpt lat="48.08138" lon="3.39244">
        <ele>190</ele>
        <time>2014-04-13T09:56:00Z</time>
      </trkpt>
      <trkpt lat="48.08138" lon="3.39249">
        <ele>191</ele>
        <time>2014-04-13T09:56:02Z</time>
      </trkpt>
      <trkpt lat="48.08139" lon="3.39268">
        <ele>196</ele>
        <time>2014-04-13T09:56:10Z</time>
      </trkpt>
      <trkpt lat="48.08139" lon="3.39273">
        <ele>194</ele>
        <time>2014-04-13T09:56:12Z</time>
      </trkpt>
      <trkpt lat="48.08139" lon="3.39277">
        <ele>193</ele>
        <time>2014-04-13T09:56:14Z</time>
      </trkpt>
      <trkpt lat="48.08139" lon="3.39282">
        <ele>193</ele>
        <time>2014-04-13T09:56:19Z</time>
      </trkpt>
      <trkpt lat="48.08143" lon="3.39321">
        <ele>196</ele>
        <time>2014-04-13T09:56:38Z</time>
      </trkpt>
      <trkpt lat="48.08144" lon="3.39326">
        <ele>198</ele>
        <time>2014-04-13T09:56:40Z</time>
      </trkpt>
      <trkpt lat="48.08144" lon="3.3933">
        <ele>196</ele>
        <time>2014-04-13T09:56:42Z</time>
      </trkpt>
      <trkpt lat="48.08146" lon="3.39346">
        <ele>200</ele>
        <time>2014-04-13T09:56:49Z</time>
      </trkpt>
      <trkpt lat="48.08147" lon="3.39351">
        <ele>199</ele>
        <time>2014-04-13T09:56:51Z</time>
      </trkpt>
      <trkpt lat="48.08149" lon="3.3936">
        <ele>198</ele>
        <time>2014-04-13T09:56:56Z</time>
      </trkpt>
      <trkpt lat="48.08149" lon="3.39365">
        <ele>196</ele>
        <time>2014-04-13T09:56:58Z</time>
      </trkpt>
      <trkpt lat="48.08152" lon="3.39379">
        <ele>195</ele>
        <time>2014-04-13T09:57:04Z</time>
      </trkpt>
      <trkpt lat="48.08152" lon="3.39388">
        <ele>197</ele>
        <time>2014-04-13T09:57:08Z</time>
      </trkpt>
      <trkpt lat="48.08154" lon="3.39398">
        <ele>194</ele>
        <time>2014-04-13T09:57:12Z</time>
      </trkpt>
      <trkpt lat="48.08154" lon="3.39402">
        <ele>192</ele>
        <time>2014-04-13T09:57:14Z</time>
      </trkpt>
      <trkpt lat="48.08154" lon="3.39413">
        <ele>194</ele>
        <time>2014-04-13T09:57:19Z</time>
      </trkpt>
      <trkpt lat="48.08155" lon="3.39428">
        <ele>192</ele>
        <time>2014-04-13T09:57:26Z</time>
      </trkpt>
      <trkpt lat="48.08155" lon="3.39432">
        <ele>193</ele>
        <time>2014-04-13T09:57:28Z</time>
      </trkpt>
      <trkpt lat="48.08155" lon="3.39437">
        <ele>192</ele>
        <time>2014-04-13T09:57:30Z</time>
      </trkpt>
      <trkpt lat="48.08154" lon="3.39442">
        <ele>194</ele>
        <time>2014-04-13T09:57:33Z</time>
      </trkpt>
      <trkpt lat="48.08154" lon="3.39448">
        <ele>194</ele>
        <time>2014-04-13T09:57:36Z</time>
      </trkpt>
      <trkpt lat="48.08154" lon="3.39454">
        <ele>193</ele>
        <time>2014-04-13T09:57:38Z</time>
      </trkpt>
      <trkpt lat="48.08153" lon="3.39484">
        <ele>197</ele>
        <time>2014-04-13T09:57:52Z</time>
      </trkpt>
      <trkpt lat="48.08152" lon="3.39496">
        <ele>201</ele>
        <time>2014-04-13T09:57:57Z</time>
      </trkpt>
      <trkpt lat="48.08152" lon="3.395">
        <ele>200</ele>
        <time>2014-04-13T09:57:58Z</time>
      </trkpt>
      <trkpt lat="48.08152" lon="3.39503">
        <ele>200</ele>
        <time>2014-04-13T09:57:59Z</time>
      </trkpt>
      <trkpt lat="48.08152" lon="3.39507">
        <ele>201</ele>
        <time>2014-04-13T09:58:00Z</time>
      </trkpt>
      <trkpt lat="48.08152" lon="3.3951">
        <ele>201</ele>
        <time>2014-04-13T09:58:02Z</time>
      </trkpt>
      <trkpt lat="48.08152" lon="3.39515">
        <ele>200</ele>
        <time>2014-04-13T09:58:04Z</time>
      </trkpt>
      <trkpt lat="48.08151" lon="3.3952">
        <ele>195</ele>
        <time>2014-04-13T09:58:07Z</time>
      </trkpt>
      <trkpt lat="48.0815" lon="3.39529">
        <ele>188</ele>
        <time>2014-04-13T09:58:11Z</time>
      </trkpt>
      <trkpt lat="48.0815" lon="3.39534">
        <ele>188</ele>
        <time>2014-04-13T09:58:13Z</time>
      </trkpt>
      <trkpt lat="48.0815" lon="3.39538">
        <ele>189</ele>
        <time>2014-04-13T09:58:15Z</time>
      </trkpt>
      <trkpt lat="48.08149" lon="3.39541">
        <ele>189</ele>
        <time>2014-04-13T09:58:17Z</time>
      </trkpt>
      <trkpt lat="48.08149" lon="3.39546">
        <ele>190</ele>
        <time>2014-04-13T09:58:19Z</time>
      </trkpt>
      <trkpt lat="48.08149" lon="3.3955">
        <ele>191</ele>
        <time>2014-04-13T09:58:21Z</time>
      </trkpt>
      <trkpt lat="48.08147" lon="3.39555">
        <ele>192</ele>
        <time>2014-04-13T09:58:24Z</time>
      </trkpt>
      <trkpt lat="48.08147" lon="3.39559">
        <ele>191</ele>
        <time>2014-04-13T09:58:26Z</time>
      </trkpt>
      <trkpt lat="48.08148" lon="3.39564">
        <ele>189</ele>
        <time>2014-04-13T09:58:28Z</time>
      </trkpt>
      <trkpt lat="48.08147" lon="3.39568">
        <ele>193</ele>
        <time>2014-04-13T09:58:30Z</time>
      </trkpt>
      <trkpt lat="48.08144" lon="3.39598">
        <ele>196</ele>
        <time>2014-04-13T09:58:45Z</time>
      </trkpt>
      <trkpt lat="48.08144" lon="3.39601">
        <ele>196</ele>
        <time>2014-04-13T09:58:47Z</time>
      </trkpt>
      <trkpt lat="48.08142" lon="3.3961">
        <ele>198</ele>
        <time>2014-04-13T09:58:51Z</time>
      </trkpt>
      <trkpt lat="48.08142" lon="3.39613">
        <ele>198</ele>
        <time>2014-04-13T09:58:53Z</time>
      </trkpt>
      <trkpt lat="48.0814" lon="3.39622">
        <ele>194</ele>
        <time>2014-04-13T09:58:58Z</time>
      </trkpt>
      <trkpt lat="48.0814" lon="3.39631">
        <ele>197</ele>
        <time>2014-04-13T09:59:01Z</time>
      </trkpt>
      <trkpt lat="48.0814" lon="3.39634">
        <ele>197</ele>
        <time>2014-04-13T09:59:02Z</time>
      </trkpt>
      <trkpt lat="48.0814" lon="3.39639">
        <ele>193</ele>
        <time>2014-04-13T09:59:04Z</time>
      </trkpt>
      <trkpt lat="48.0814" lon="3.39644">
        <ele>193</ele>
        <time>2014-04-13T09:59:06Z</time>
      </trkpt>
      <trkpt lat="48.0814" lon="3.39649">
        <ele>194</ele>
        <time>2014-04-13T09:59:08Z</time>
      </trkpt>
      <trkpt lat="48.0814" lon="3.39655">
        <ele>193</ele>
        <time>2014-04-13T09:59:10Z</time>
      </trkpt>
      <trkpt lat="48.0814" lon="3.3966">
        <ele>191</ele>
        <time>2014-04-13T09:59:12Z</time>
      </trkpt>
      <trkpt lat="48.08139" lon="3.39667">
        <ele>188</ele>
        <time>2014-04-13T09:59:15Z</time>
      </trkpt>
      <trkpt lat="48.08139" lon="3.39671">
        <ele>190</ele>
        <time>2014-04-13T09:59:17Z</time>
      </trkpt>
      <trkpt lat="48.08133" lon="3.3973">
        <ele>197</ele>
        <time>2014-04-13T09:59:45Z</time>
      </trkpt>
      <trkpt lat="48.08132" lon="3.39735">
        <ele>197</ele>
        <time>2014-04-13T09:59:47Z</time>
      </trkpt>
      <trkpt lat="48.0813" lon="3.39742">
        <ele>199</ele>
        <time>2014-04-13T09:59:51Z</time>
      </trkpt>
      <trkpt lat="48.08129" lon="3.39749">
        <ele>198</ele>
        <time>2014-04-13T09:59:54Z</time>
      </trkpt>
      <trkpt lat="48.08128" lon="3.39753">
        <ele>196</ele>
        <time>2014-04-13T09:59:56Z</time>
      </trkpt>
      <trkpt lat="48.08128" lon="3.39758">
        <ele>198</ele>
        <time>2014-04-13T09:59:58Z</time>
      </trkpt>
      <trkpt lat="48.08126" lon="3.39763">
        <ele>196</ele>
        <time>2014-04-13T10:00:00Z</time>
      </trkpt>
      <trkpt lat="48.08119" lon="3.39791">
        <ele>197</ele>
        <time>2014-04-13T10:00:14Z</time>
      </trkpt>
      <trkpt lat="48.08118" lon="3.39796">
        <ele>198</ele>
        <time>2014-04-13T10:00:16Z</time>
      </trkpt>
      <trkpt lat="48.08117" lon="3.39801">
        <ele>197</ele>
        <time>2014-04-13T10:00:18Z</time>
      </trkpt>
      <trkpt lat="48.08113" lon="3.39815">
        <ele>201</ele>
        <time>2014-04-13T10:00:25Z</time>
      </trkpt>
      <trkpt lat="48.0811" lon="3.39826">
        <ele>200</ele>
        <time>2014-04-13T10:00:30Z</time>
      </trkpt>
      <trkpt lat="48.08106" lon="3.3984">
        <ele>197</ele>
        <time>2014-04-13T10:00:37Z</time>
      </trkpt>
      <trkpt lat="48.08106" lon="3.39843">
        <ele>196</ele>
        <time>2014-04-13T10:00:39Z</time>
      </trkpt>
      <trkpt lat="48.08104" lon="3.39848">
        <ele>188</ele>
        <time>2014-04-13T10:00:42Z</time>
      </trkpt>
      <trkpt lat="48.08097" lon="3.39874">
        <ele>194</ele>
        <time>2014-04-13T10:00:54Z</time>
      </trkpt>
      <trkpt lat="48.08096" lon="3.39878">
        <ele>193</ele>
        <time>2014-04-13T10:00:56Z</time>
      </trkpt>
      <trkpt lat="48.08093" lon="3.3989">
        <ele>195</ele>
        <time>2014-04-13T10:01:02Z</time>
      </trkpt>
      <trkpt lat="48.08091" lon="3.39896">
        <ele>192</ele>
        <time>2014-04-13T10:01:05Z</time>
      </trkpt>
      <trkpt lat="48.08089" lon="3.39911">
        <ele>194</ele>
        <time>2014-04-13T10:01:13Z</time>
      </trkpt>
      <trkpt lat="48.08089" lon="3.39916">
        <ele>192</ele>
        <time>2014-04-13T10:01:15Z</time>
      </trkpt>
      <trkpt lat="48.08089" lon="3.39928">
        <ele>190</ele>
        <time>2014-04-13T10:01:20Z</time>
      </trkpt>
      <trkpt lat="48.08088" lon="3.39942">
        <ele>185</ele>
        <time>2014-04-13T10:01:26Z</time>
      </trkpt>
      <trkpt lat="48.08088" lon="3.39946">
        <ele>188</ele>
        <time>2014-04-13T10:01:28Z</time>
      </trkpt>
      <trkpt lat="48.08089" lon="3.39954">
        <ele>184</ele>
        <time>2014-04-13T10:01:31Z</time>
      </trkpt>
      <trkpt lat="48.08089" lon="3.39964">
        <ele>184</ele>
        <time>2014-04-13T10:01:36Z</time>
      </trkpt>
      <trkpt lat="48.08091" lon="3.39973">
        <ele>186</ele>
        <time>2014-04-13T10:01:40Z</time>
      </trkpt>
      <trkpt lat="48.08097" lon="3.40001">
        <ele>186</ele>
        <time>2014-04-13T10:01:52Z</time>
      </trkpt>
      <trkpt lat="48.08098" lon="3.40009">
        <ele>190</ele>
        <time>2014-04-13T10:01:56Z</time>
      </trkpt>
      <trkpt lat="48.08103" lon="3.40067">
        <ele>187</ele>
        <time>2014-04-13T10:02:23Z</time>
      </trkpt>
      <trkpt lat="48.08103" lon="3.40075">
        <ele>186</ele>
        <time>2014-04-13T10:02:27Z</time>
      </trkpt>
      <trkpt lat="48.08103" lon="3.40084">
        <ele>186</ele>
        <time>2014-04-13T10:02:32Z</time>
      </trkpt>
      <trkpt lat="48.08104" lon="3.4009">
        <ele>191</ele>
        <time>2014-04-13T10:02:35Z</time>
      </trkpt>
      <trkpt lat="48.08105" lon="3.40098">
        <ele>192</ele>
        <time>2014-04-13T10:02:39Z</time>
      </trkpt>
      <trkpt lat="48.08105" lon="3.40104">
        <ele>190</ele>
        <time>2014-04-13T10:02:41Z</time>
      </trkpt>
      <trkpt lat="48.08105" lon="3.40109">
        <ele>189</ele>
        <time>2014-04-13T10:02:43Z</time>
      </trkpt>
      <trkpt lat="48.08103" lon="3.40125">
        <ele>185</ele>
        <time>2014-04-13T10:02:50Z</time>
      </trkpt>
      <trkpt lat="48.08103" lon="3.40129">
        <ele>184</ele>
        <time>2014-04-13T10:02:52Z</time>
      </trkpt>
      <trkpt lat="48.08103" lon="3.40133">
        <ele>187</ele>
        <time>2014-04-13T10:02:54Z</time>
      </trkpt>
      <trkpt lat="48.08103" lon="3.40137">
        <ele>190</ele>
        <time>2014-04-13T10:02:56Z</time>
      </trkpt>
      <trkpt lat="48.08103" lon="3.40141">
        <ele>188</ele>
        <time>2014-04-13T10:02:58Z</time>
      </trkpt>
      <trkpt lat="48.08102" lon="3.40146">
        <ele>188</ele>
        <time>2014-04-13T10:03:00Z</time>
      </trkpt>
      <trkpt lat="48.08099" lon="3.40165">
        <ele>189</ele>
        <time>2014-04-13T10:03:07Z</time>
      </trkpt>
      <trkpt lat="48.08098" lon="3.40169">
        <ele>195</ele>
        <time>2014-04-13T10:03:10Z</time>
      </trkpt>
      <trkpt lat="48.08096" lon="3.40174">
        <ele>196</ele>
        <time>2014-04-13T10:03:13Z</time>
      </trkpt>
      <trkpt lat="48.08095" lon="3.40182">
        <ele>194</ele>
        <time>2014-04-13T10:03:17Z</time>
      </trkpt>
      <trkpt lat="48.08095" lon="3.40185">
        <ele>194</ele>
        <time>2014-04-13T10:03:19Z</time>
      </trkpt>
      <trkpt lat="48.08094" lon="3.40189">
        <ele>191</ele>
        <time>2014-04-13T10:03:21Z</time>
      </trkpt>
      <trkpt lat="48.08092" lon="3.40205">
        <ele>184</ele>
        <time>2014-04-13T10:03:27Z</time>
      </trkpt>
      <trkpt lat="48.08091" lon="3.4021">
        <ele>187</ele>
        <time>2014-04-13T10:03:29Z</time>
      </trkpt>
      <trkpt lat="48.0809" lon="3.40218">
        <ele>189</ele>
        <time>2014-04-13T10:03:33Z</time>
      </trkpt>
      <trkpt lat="48.0809" lon="3.40222">
        <ele>188</ele>
        <time>2014-04-13T10:03:35Z</time>
      </trkpt>
      <trkpt lat="48.0809" lon="3.40226">
        <ele>193</ele>
        <time>2014-04-13T10:03:37Z</time>
      </trkpt>
      <trkpt lat="48.08089" lon="3.40231">
        <ele>191</ele>
        <time>2014-04-13T10:03:39Z</time>
      </trkpt>
      <trkpt lat="48.08088" lon="3.40235">
        <ele>186</ele>
        <time>2014-04-13T10:03:41Z</time>
      </trkpt>
      <trkpt lat="48.08088" lon="3.4024">
        <ele>185</ele>
        <time>2014-04-13T10:03:43Z</time>
      </trkpt>
      <trkpt lat="48.08085" lon="3.40254">
        <ele>197</ele>
        <time>2014-04-13T10:03:51Z</time>
      </trkpt>
      <trkpt lat="48.08083" lon="3.40259">
        <ele>197</ele>
        <time>2014-04-13T10:03:54Z</time>
      </trkpt>
      <trkpt lat="48.08082" lon="3.40263">
        <ele>191</ele>
        <time>2014-04-13T10:03:56Z</time>
      </trkpt>
      <trkpt lat="48.08081" lon="3.40268">
        <ele>189</ele>
        <time>2014-04-13T10:03:58Z</time>
      </trkpt>
      <trkpt lat="48.08079" lon="3.40273">
        <ele>185</ele>
        <time>2014-04-13T10:04:00Z</time>
      </trkpt>
      <trkpt lat="48.08075" lon="3.40282">
        <ele>188</ele>
        <time>2014-04-13T10:04:04Z</time>
      </trkpt>
      <trkpt lat="48.08069" lon="3.403">
        <ele>190</ele>
        <time>2014-04-13T10:04:14Z</time>
      </trkpt>
      <trkpt lat="48.08068" lon="3.40309">
        <ele>190</ele>
        <time>2014-04-13T10:04:19Z</time>
      </trkpt>
      <trkpt lat="48.08065" lon="3.40323">
        <ele>195</ele>
        <time>2014-04-13T10:04:26Z</time>
      </trkpt>
      <trkpt lat="48.08058" lon="3.40348">
        <ele>195</ele>
        <time>2014-04-13T10:04:52Z</time>
      </trkpt>
      <trkpt lat="48.08054" lon="3.40356">
        <ele>195</ele>
        <time>2014-04-13T10:04:58Z</time>
      </trkpt>
      <trkpt lat="48.0805" lon="3.40361">
        <ele>194</ele>
        <time>2014-04-13T10:05:02Z</time>
      </trkpt>
      <trkpt lat="48.08049" lon="3.40369">
        <ele>188</ele>
        <time>2014-04-13T10:05:07Z</time>
      </trkpt>
      <trkpt lat="48.08046" lon="3.40382">
        <ele>192</ele>
        <time>2014-04-13T10:05:15Z</time>
      </trkpt>
      <trkpt lat="48.08043" lon="3.4039">
        <ele>190</ele>
        <time>2014-04-13T10:05:21Z</time>
      </trkpt>
      <trkpt lat="48.08038" lon="3.40398">
        <ele>188</ele>
        <time>2014-04-13T10:05:29Z</time>
      </trkpt>
      <trkpt lat="48.08034" lon="3.40401">
        <ele>191</ele>
        <time>2014-04-13T10:05:34Z</time>
      </trkpt>
      <trkpt lat="48.08027" lon="3.40403">
        <ele>195</ele>
        <time>2014-04-13T10:05:41Z</time>
      </trkpt>
      <trkpt lat="48.08023" lon="3.40409">
        <ele>194</ele>
        <time>2014-04-13T10:05:45Z</time>
      </trkpt>
      <trkpt lat="48.08018" lon="3.40413">
        <ele>193</ele>
        <time>2014-04-13T10:05:48Z</time>
      </trkpt>
      <trkpt lat="48.08012" lon="3.40419">
        <ele>190</ele>
        <time>2014-04-13T10:06:08Z</time>
      </trkpt>
      <trkpt lat="48.08009" lon="3.40427">
        <ele>190</ele>
        <time>2014-04-13T10:06:13Z</time>
      </trkpt>
      <trkpt lat="48.08005" lon="3.40431">
        <ele>190</ele>
        <time>2014-04-13T10:06:18Z</time>
      </trkpt>
      <trkpt lat="48.07993" lon="3.40442">
        <ele>182</ele>
        <time>2014-04-13T10:06:30Z</time>
      </trkpt>
      <trkpt lat="48.07989" lon="3.40448">
        <ele>185</ele>
        <time>2014-04-13T10:06:34Z</time>
      </trkpt>
      <trkpt lat="48.07985" lon="3.40453">
        <ele>189</ele>
        <time>2014-04-13T10:06:39Z</time>
      </trkpt>
      <trkpt lat="48.07981" lon="3.4046">
        <ele>183</ele>
        <time>2014-04-13T10:06:43Z</time>
      </trkpt>
      <trkpt lat="48.07969" lon="3.40483">
        <ele>179</ele>
        <time>2014-04-13T10:07:00Z</time>
      </trkpt>
      <trkpt lat="48.07962" lon="3.40501">
        <ele>182</ele>
        <time>2014-04-13T10:07:11Z</time>
      </trkpt>
      <trkpt lat="48.07961" lon="3.4051">
        <ele>178</ele>
        <time>2014-04-13T10:07:16Z</time>
      </trkpt>
      <trkpt lat="48.07959" lon="3.40517">
        <ele>173</ele>
        <time>2014-04-13T10:07:21Z</time>
      </trkpt>
      <trkpt lat="48.07958" lon="3.40525">
        <ele>179</ele>
        <time>2014-04-13T10:07:26Z</time>
      </trkpt>
      <trkpt lat="48.07953" lon="3.4054">
        <ele>173</ele>
        <time>2014-04-13T10:07:36Z</time>
      </trkpt>
      <trkpt lat="48.07949" lon="3.40557">
        <ele>173</ele>
        <time>2014-04-13T10:07:47Z</time>
      </trkpt>
      <trkpt lat="48.07951" lon="3.40566">
        <ele>175</ele>
        <time>2014-04-13T10:07:51Z</time>
      </trkpt>
      <trkpt lat="48.07951" lon="3.40573">
        <ele>178</ele>
        <time>2014-04-13T10:07:55Z</time>
      </trkpt>
      <trkpt lat="48.07953" lon="3.40596">
        <ele>177</ele>
        <time>2014-04-13T10:08:13Z</time>
      </trkpt>
      <trkpt lat="48.07955" lon="3.40605">
        <ele>176</ele>
        <time>2014-04-13T10:08:20Z</time>
      </trkpt>
      <trkpt lat="48.07958" lon="3.40613">
        <ele>187</ele>
        <time>2014-04-13T10:08:27Z</time>
      </trkpt>
      <trkpt lat="48.07962" lon="3.40619">
        <ele>188</ele>
        <time>2014-04-13T10:08:33Z</time>
      </trkpt>
      <trkpt lat="48.07966" lon="3.40625">
        <ele>187</ele>
        <time>2014-04-13T10:08:37Z</time>
      </trkpt>
      <trkpt lat="48.07968" lon="3.40632">
        <ele>185</ele>
        <time>2014-04-13T10:08:40Z</time>
      </trkpt>
      <trkpt lat="48.07972" lon="3.40639">
        <ele>183</ele>
        <time>2014-04-13T10:08:45Z</time>
      </trkpt>
      <trkpt lat="48.07982" lon="3.40656">
        <ele>189</ele>
        <time>2014-04-13T10:08:56Z</time>
      </trkpt>
      <trkpt lat="48.07987" lon="3.4066">
        <ele>176</ele>
        <time>2014-04-13T10:08:59Z</time>
      </trkpt>
      <trkpt lat="48.07988" lon="3.40669">
        <ele>171</ele>
        <time>2014-04-13T10:09:10Z</time>
      </trkpt>
      <trkpt lat="48.07996" lon="3.4067">
        <ele>164</ele>
        <time>2014-04-13T10:10:12Z</time>
      </trkpt>
      <trkpt lat="48.07998" lon="3.40671">
        <ele>166</ele>
        <time>2014-04-13T10:10:13Z</time>
      </trkpt>
      <trkpt lat="48.08001" lon="3.40672">
        <ele>169</ele>
        <time>2014-04-13T10:10:16Z</time>
      </trkpt>
      <trkpt lat="48.08003" lon="3.40674">
        <ele>167</ele>
        <time>2014-04-13T10:10:20Z</time>
      </trkpt>
      <trkpt lat="48.08006" lon="3.40675">
        <ele>163</ele>
        <time>2014-04-13T10:10:23Z</time>
      </trkpt>
      <trkpt lat="48.08012" lon="3.40665">
        <ele>155</ele>
        <time>2014-04-13T10:10:42Z</time>
      </trkpt>
      <trkpt lat="48.08018" lon="3.40659">
        <ele>175</ele>
        <time>2014-04-13T10:11:27Z</time>
      </trkpt>
      <trkpt lat="48.08024" lon="3.40662">
        <ele>161</ele>
        <time>2014-04-13T10:11:33Z</time>
      </trkpt>
      <trkpt lat="48.08031" lon="3.4066">
        <ele>164</ele>
        <time>2014-04-13T10:11:39Z</time>
      </trkpt>
      <trkpt lat="48.08036" lon="3.4066">
        <ele>160</ele>
        <time>2014-04-13T10:11:43Z</time>
      </trkpt>
      <trkpt lat="48.08053" lon="3.40663">
        <ele>149</ele>
        <time>2014-04-13T10:11:58Z</time>
      </trkpt>
      <trkpt lat="48.08058" lon="3.40667">
        <ele>147</ele>
        <time>2014-04-13T10:12:03Z</time>
      </trkpt>
      <trkpt lat="48.08063" lon="3.40669">
        <ele>149</ele>
        <time>2014-04-13T10:12:07Z</time>
      </trkpt>
      <trkpt lat="48.08067" lon="3.40672">
        <ele>148</ele>
        <time>2014-04-13T10:12:11Z</time>
      </trkpt>
      <trkpt lat="48.08072" lon="3.40679">
        <ele>151</ele>
        <time>2014-04-13T10:12:17Z</time>
      </trkpt>
      <trkpt lat="48.08077" lon="3.40686">
        <ele>145</ele>
        <time>2014-04-13T10:12:22Z</time>
      </trkpt>
      <trkpt lat="48.08082" lon="3.40692">
        <ele>152</ele>
        <time>2014-04-13T10:12:27Z</time>
      </trkpt>
      <trkpt lat="48.08085" lon="3.40699">
        <ele>145</ele>
        <time>2014-04-13T10:12:31Z</time>
      </trkpt>
      <trkpt lat="48.08095" lon="3.40718">
        <ele>149</ele>
        <time>2014-04-13T10:12:43Z</time>
      </trkpt>
      <trkpt lat="48.081" lon="3.40723">
        <ele>150</ele>
        <time>2014-04-13T10:12:46Z</time>
      </trkpt>
      <trkpt lat="48.08105" lon="3.40733">
        <ele>154</ele>
        <time>2014-04-13T10:12:52Z</time>
      </trkpt>
      <trkpt lat="48.08107" lon="3.4074">
        <ele>151</ele>
        <time>2014-04-13T10:12:57Z</time>
      </trkpt>
      <trkpt lat="48.08107" lon="3.4074">
        <ele>152</ele>
        <time>2014-04-13T10:12:57Z</time>
      </trkpt>
      <trkpt lat="48.0811" lon="3.40752">
        <ele>146</ele>
        <time>2014-04-13T10:13:05Z</time>
      </trkpt>
      <trkpt lat="48.08112" lon="3.40754">
        <ele>142</ele>
        <time>2014-04-13T10:13:07Z</time>
      </trkpt>
      <trkpt lat="48.08113" lon="3.40757">
        <ele>145</ele>
        <time>2014-04-13T10:13:09Z</time>
      </trkpt>
      <trkpt lat="48.08116" lon="3.40765">
        <ele>147</ele>
        <time>2014-04-13T10:13:13Z</time>
      </trkpt>
      <trkpt lat="48.08122" lon="3.40777">
        <ele>148</ele>
        <time>2014-04-13T10:13:21Z</time>
      </trkpt>
      <trkpt lat="48.08126" lon="3.40784">
        <ele>146</ele>
        <time>2014-04-13T10:13:25Z</time>
      </trkpt>
      <trkpt lat="48.0813" lon="3.40788">
        <ele>143</ele>
        <time>2014-04-13T10:13:29Z</time>
      </trkpt>
      <trkpt lat="48.08135" lon="3.40795">
        <ele>143</ele>
        <time>2014-04-13T10:13:33Z</time>
      </trkpt>
      <trkpt lat="48.08136" lon="3.408">
        <ele>143</ele>
        <time>2014-04-13T10:13:36Z</time>
      </trkpt>
      <trkpt lat="48.08143" lon="3.40812">
        <ele>142</ele>
        <time>2014-04-13T10:13:42Z</time>
      </trkpt>
      <trkpt lat="48.08151" lon="3.40827">
        <ele>146</ele>
        <time>2014-04-13T10:13:52Z</time>
      </trkpt>
      <trkpt lat="48.08156" lon="3.40832">
        <ele>142</ele>
        <time>2014-04-13T10:13:56Z</time>
      </trkpt>
      <trkpt lat="48.0816" lon="3.40838">
        <ele>143</ele>
        <time>2014-04-13T10:14:00Z</time>
      </trkpt>
      <trkpt lat="48.08161" lon="3.40842">
        <ele>143</ele>
        <time>2014-04-13T10:14:02Z</time>
      </trkpt>
      <trkpt lat="48.08167" lon="3.40853">
        <ele>135</ele>
        <time>2014-04-13T10:14:10Z</time>
      </trkpt>
      <trkpt lat="48.08168" lon="3.40857">
        <ele>135</ele>
        <time>2014-04-13T10:14:13Z</time>
      </trkpt>
      <trkpt lat="48.0817" lon="3.40862">
        <ele>135</ele>
        <time>2014-04-13T10:14:16Z</time>
      </trkpt>
      <trkpt lat="48.08171" lon="3.40872">
        <ele>137</ele>
        <time>2014-04-13T10:14:21Z</time>
      </trkpt>
      <trkpt lat="48.08173" lon="3.4088">
        <ele>140</ele>
        <time>2014-04-13T10:14:25Z</time>
      </trkpt>
      <trkpt lat="48.08175" lon="3.40884">
        <ele>136</ele>
        <time>2014-04-13T10:14:28Z</time>
      </trkpt>
      <trkpt lat="48.08177" lon="3.40886">
        <ele>136</ele>
        <time>2014-04-13T10:14:31Z</time>
      </trkpt>
      <trkpt lat="48.0818" lon="3.4089">
        <ele>137</ele>
        <time>2014-04-13T10:14:34Z</time>
      </trkpt>
      <trkpt lat="48.08183" lon="3.40894">
        <ele>137</ele>
        <time>2014-04-13T10:14:37Z</time>
      </trkpt>
      <trkpt lat="48.08191" lon="3.40904">
        <ele>132</ele>
        <time>2014-04-13T10:14:45Z</time>
      </trkpt>
      <trkpt lat="48.08194" lon="3.40909">
        <ele>132</ele>
        <time>2014-04-13T10:14:48Z</time>
      </trkpt>
      <trkpt lat="48.08195" lon="3.40913">
        <ele>134</ele>
        <time>2014-04-13T10:14:50Z</time>
      </trkpt>
      <trkpt lat="48.08194" lon="3.40917">
        <ele>135</ele>
        <time>2014-04-13T10:14:54Z</time>
      </trkpt>
      <trkpt lat="48.08193" lon="3.40921">
        <ele>132</ele>
        <time>2014-04-13T10:14:57Z</time>
      </trkpt>
      <trkpt lat="48.08191" lon="3.40925">
        <ele>132</ele>
        <time>2014-04-13T10:14:59Z</time>
      </trkpt>
      <trkpt lat="48.08188" lon="3.40929">
        <ele>132</ele>
        <time>2014-04-13T10:15:01Z</time>
      </trkpt>
      <trkpt lat="48.08186" lon="3.40932">
        <ele>129</ele>
        <time>2014-04-13T10:15:02Z</time>
      </trkpt>
      <trkpt lat="48.08185" lon="3.40935">
        <ele>129</ele>
        <time>2014-04-13T10:15:03Z</time>
      </trkpt>
      <trkpt lat="48.08173" lon="3.40949">
        <ele>125</ele>
        <time>2014-04-13T10:15:12Z</time>
      </trkpt>
      <trkpt lat="48.08171" lon="3.40952">
        <ele>128</ele>
        <time>2014-04-13T10:15:14Z</time>
      </trkpt>
      <trkpt lat="48.08167" lon="3.40959">
        <ele>133</ele>
        <time>2014-04-13T10:15:22Z</time>
      </trkpt>
      <trkpt lat="48.08164" lon="3.40962">
        <ele>133</ele>
        <time>2014-04-13T10:15:25Z</time>
      </trkpt>
      <trkpt lat="48.0816" lon="3.40967">
        <ele>131</ele>
        <time>2014-04-13T10:15:29Z</time>
      </trkpt>
      <trkpt lat="48.08144" lon="3.40989">
        <ele>126</ele>
        <time>2014-04-13T10:15:46Z</time>
      </trkpt>
      <trkpt lat="48.0814" lon="3.40995">
        <ele>131</ele>
        <time>2014-04-13T10:15:50Z</time>
      </trkpt>
      <trkpt lat="48.08139" lon="3.40998">
        <ele>131</ele>
        <time>2014-04-13T10:15:52Z</time>
      </trkpt>
      <trkpt lat="48.08135" lon="3.41004">
        <ele>133</ele>
        <time>2014-04-13T10:15:57Z</time>
      </trkpt>
      <trkpt lat="48.08127" lon="3.41012">
        <ele>132</ele>
        <time>2014-04-13T10:16:03Z</time>
      </trkpt>
      <trkpt lat="48.0812" lon="3.41021">
        <ele>129</ele>
        <time>2014-04-13T10:16:09Z</time>
      </trkpt>
      <trkpt lat="48.08114" lon="3.41026">
        <ele>129</ele>
        <time>2014-04-13T10:16:15Z</time>
      </trkpt>
      <trkpt lat="48.0811" lon="3.41029">
        <ele>130</ele>
        <time>2014-04-13T10:16:19Z</time>
      </trkpt>
      <trkpt lat="48.08104" lon="3.41035">
        <ele>131</ele>
        <time>2014-04-13T10:16:23Z</time>
      </trkpt>
      <trkpt lat="48.08099" lon="3.4104">
        <ele>125</ele>
        <time>2014-04-13T10:16:26Z</time>
      </trkpt>
      <trkpt lat="48.08086" lon="3.41057">
        <ele>128</ele>
        <time>2014-04-13T10:16:35Z</time>
      </trkpt>
      <trkpt lat="48.08083" lon="3.41061">
        <ele>127</ele>
        <time>2014-04-13T10:16:37Z</time>
      </trkpt>
      <trkpt lat="48.08075" lon="3.41069">
        <ele>128</ele>
        <time>2014-04-13T10:16:43Z</time>
      </trkpt>
      <trkpt lat="48.08072" lon="3.41072">
        <ele>129</ele>
        <time>2014-04-13T10:16:45Z</time>
      </trkpt>
      <trkpt lat="48.08062" lon="3.41082">
        <ele>125</ele>
        <time>2014-04-13T10:16:55Z</time>
      </trkpt>
      <trkpt lat="48.08059" lon="3.41084">
        <ele>125</ele>
        <time>2014-04-13T10:16:59Z</time>
      </trkpt>
      <trkpt lat="48.08054" lon="3.41087">
        <ele>126</ele>
        <time>2014-04-13T10:17:04Z</time>
      </trkpt>
      <trkpt lat="48.08041" lon="3.41097">
        <ele>128</ele>
        <time>2014-04-13T10:17:15Z</time>
      </trkpt>
      <trkpt lat="48.08036" lon="3.411">
        <ele>128</ele>
        <time>2014-04-13T10:17:18Z</time>
      </trkpt>
      <trkpt lat="48.0803" lon="3.41103">
        <ele>130</ele>
        <time>2014-04-13T10:17:22Z</time>
      </trkpt>
      <trkpt lat="48.0801" lon="3.41112">
        <ele>126</ele>
        <time>2014-04-13T10:17:39Z</time>
      </trkpt>
      <trkpt lat="48.08005" lon="3.41115">
        <ele>125</ele>
        <time>2014-04-13T10:17:43Z</time>
      </trkpt>
      <trkpt lat="48.07981" lon="3.41135">
        <ele>128</ele>
        <time>2014-04-13T10:18:01Z</time>
      </trkpt>
      <trkpt lat="48.07979" lon="3.41137">
        <ele>126</ele>
        <time>2014-04-13T10:18:03Z</time>
      </trkpt>
      <trkpt lat="48.07975" lon="3.41143">
        <ele>125</ele>
        <time>2014-04-13T10:18:07Z</time>
      </trkpt>
      <trkpt lat="48.07973" lon="3.41144">
        <ele>125</ele>
        <time>2014-04-13T10:18:08Z</time>
      </trkpt>
      <trkpt lat="48.07971" lon="3.41147">
        <ele>124</ele>
        <time>2014-04-13T10:18:10Z</time>
      </trkpt>
      <trkpt lat="48.0796" lon="3.4116">
        <ele>121</ele>
        <time>2014-04-13T10:18:21Z</time>
      </trkpt>
      <trkpt lat="48.07952" lon="3.4117">
        <ele>130</ele>
        <time>2014-04-13T10:18:27Z</time>
      </trkpt>
      <trkpt lat="48.07951" lon="3.41172">
        <ele>129</ele>
        <time>2014-04-13T10:18:28Z</time>
      </trkpt>
      <trkpt lat="48.07945" lon="3.4118">
        <ele>126</ele>
        <time>2014-04-13T10:18:33Z</time>
      </trkpt>
      <trkpt lat="48.07943" lon="3.41183">
        <ele>127</ele>
        <time>2014-04-13T10:18:35Z</time>
      </trkpt>
      <trkpt lat="48.07926" lon="3.4121">
        <ele>129</ele>
        <time>2014-04-13T10:18:55Z</time>
      </trkpt>
      <trkpt lat="48.07921" lon="3.41215">
        <ele>128</ele>
        <time>2014-04-13T10:19:00Z</time>
      </trkpt>
      <trkpt lat="48.07911" lon="3.41229">
        <ele>125</ele>
        <time>2014-04-13T10:19:13Z</time>
      </trkpt>
      <trkpt lat="48.07908" lon="3.41235">
        <ele>124</ele>
        <time>2014-04-13T10:19:20Z</time>
      </trkpt>
      <trkpt lat="48.07904" lon="3.41242">
        <ele>130</ele>
        <time>2014-04-13T10:19:28Z</time>
      </trkpt>
      <trkpt lat="48.07899" lon="3.41246">
        <ele>121</ele>
        <time>2014-04-13T10:19:38Z</time>
      </trkpt>
      <trkpt lat="48.07896" lon="3.41253">
        <ele>130</ele>
        <time>2014-04-13T10:19:45Z</time>
      </trkpt>
      <trkpt lat="48.07891" lon="3.4126">
        <ele>130</ele>
        <time>2014-04-13T10:19:47Z</time>
      </trkpt>
      <trkpt lat="48.07888" lon="3.41266">
        <ele>123</ele>
        <time>2014-04-13T10:19:53Z</time>
      </trkpt>
      <trkpt lat="48.07879" lon="3.41278">
        <ele>122</ele>
        <time>2014-04-13T10:20:05Z</time>
      </trkpt>
      <trkpt lat="48.07875" lon="3.41285">
        <ele>130</ele>
        <time>2014-04-13T10:20:08Z</time>
      </trkpt>
      <trkpt lat="48.07861" lon="3.41306">
        <ele>135</ele>
        <time>2014-04-13T10:20:14Z</time>
      </trkpt>
      <trkpt lat="48.07855" lon="3.41313">
        <ele>134</ele>
        <time>2014-04-13T10:20:16Z</time>
      </trkpt>
      <trkpt lat="48.0784" lon="3.41334">
        <ele>139</ele>
        <time>2014-04-13T10:20:24Z</time>
      </trkpt>
      <trkpt lat="48.07837" lon="3.4134">
        <ele>136</ele>
        <time>2014-04-13T10:20:27Z</time>
      </trkpt>
      <trkpt lat="48.07832" lon="3.41345">
        <ele>130</ele>
        <time>2014-04-13T10:20:31Z</time>
      </trkpt>
      <trkpt lat="48.07828" lon="3.41351">
        <ele>133</ele>
        <time>2014-04-13T10:20:35Z</time>
      </trkpt>
      <trkpt lat="48.07816" lon="3.41374">
        <ele>138</ele>
        <time>2014-04-13T10:20:45Z</time>
      </trkpt>
      <trkpt lat="48.07811" lon="3.4138">
        <ele>136</ele>
        <time>2014-04-13T10:20:50Z</time>
      </trkpt>
      <trkpt lat="48.07806" lon="3.41385">
        <ele>136</ele>
        <time>2014-04-13T10:20:55Z</time>
      </trkpt>
      <trkpt lat="48.07802" lon="3.41393">
        <ele>133</ele>
        <time>2014-04-13T10:21:00Z</time>
      </trkpt>
      <trkpt lat="48.07799" lon="3.414">
        <ele>131</ele>
        <time>2014-04-13T10:21:04Z</time>
      </trkpt>
      <trkpt lat="48.07795" lon="3.41408">
        <ele>134</ele>
        <time>2014-04-13T10:21:08Z</time>
      </trkpt>
      <trkpt lat="48.07784" lon="3.4143">
        <ele>130</ele>
        <time>2014-04-13T10:21:20Z</time>
      </trkpt>
      <trkpt lat="48.07781" lon="3.41436">
        <ele>130</ele>
        <time>2014-04-13T10:21:24Z</time>
      </trkpt>
      <trkpt lat="48.07772" lon="3.41453">
        <ele>136</ele>
        <time>2014-04-13T10:21:34Z</time>
      </trkpt>
      <trkpt lat="48.07768" lon="3.41459">
        <ele>134</ele>
        <time>2014-04-13T10:21:38Z</time>
      </trkpt>
      <trkpt lat="48.07763" lon="3.41464">
        <ele>132</ele>
        <time>2014-04-13T10:21:43Z</time>
      </trkpt>
      <trkpt lat="48.07759" lon="3.4147">
        <ele>133</ele>
        <time>2014-04-13T10:21:48Z</time>
      </trkpt>
      <trkpt lat="48.07745" lon="3.41491">
        <ele>132</ele>
        <time>2014-04-13T10:22:02Z</time>
      </trkpt>
      <trkpt lat="48.07742" lon="3.41498">
        <ele>134</ele>
        <time>2014-04-13T10:22:05Z</time>
      </trkpt>
      <trkpt lat="48.07739" lon="3.41504">
        <ele>137</ele>
        <time>2014-04-13T10:22:09Z</time>
      </trkpt>
      <trkpt lat="48.07735" lon="3.4151">
        <ele>136</ele>
        <time>2014-04-13T10:22:13Z</time>
      </trkpt>
      <trkpt lat="48.07709" lon="3.4155">
        <ele>142</ele>
        <time>2014-04-13T10:22:39Z</time>
      </trkpt>
      <trkpt lat="48.07705" lon="3.41557">
        <ele>142</ele>
        <time>2014-04-13T10:22:43Z</time>
      </trkpt>
      <trkpt lat="48.077" lon="3.41568">
        <ele>138</ele>
        <time>2014-04-13T10:22:49Z</time>
      </trkpt>
      <trkpt lat="48.07696" lon="3.41579">
        <ele>137</ele>
        <time>2014-04-13T10:22:57Z</time>
      </trkpt>
      <trkpt lat="48.07692" lon="3.41585">
        <ele>135</ele>
        <time>2014-04-13T10:23:01Z</time>
      </trkpt>
      <trkpt lat="48.07689" lon="3.41591">
        <ele>131</ele>
        <time>2014-04-13T10:23:05Z</time>
      </trkpt>
      <trkpt lat="48.07685" lon="3.41597">
        <ele>135</ele>
        <time>2014-04-13T10:23:10Z</time>
      </trkpt>
      <trkpt lat="48.07647" lon="3.4166">
        <ele>140</ele>
        <time>2014-04-13T10:23:54Z</time>
      </trkpt>
      <trkpt lat="48.07644" lon="3.41666">
        <ele>140</ele>
        <time>2014-04-13T10:23:57Z</time>
      </trkpt>
      <trkpt lat="48.07641" lon="3.41674">
        <ele>140</ele>
        <time>2014-04-13T10:24:00Z</time>
      </trkpt>
      <trkpt lat="48.07637" lon="3.41685">
        <ele>141</ele>
        <time>2014-04-13T10:24:06Z</time>
      </trkpt>
      <trkpt lat="48.07635" lon="3.41693">
        <ele>139</ele>
        <time>2014-04-13T10:24:10Z</time>
      </trkpt>
      <trkpt lat="48.07632" lon="3.41708">
        <ele>136</ele>
        <time>2014-04-13T10:24:19Z</time>
      </trkpt>
      <trkpt lat="48.0763" lon="3.41717">
        <ele>132</ele>
        <time>2014-04-13T10:24:23Z</time>
      </trkpt>
      <trkpt lat="48.07628" lon="3.41725">
        <ele>130</ele>
        <time>2014-04-13T10:24:28Z</time>
      </trkpt>
      <trkpt lat="48.07624" lon="3.41732">
        <ele>137</ele>
        <time>2014-04-13T10:24:33Z</time>
      </trkpt>
      <trkpt lat="48.07622" lon="3.41738">
        <ele>137</ele>
        <time>2014-04-13T10:24:38Z</time>
      </trkpt>
      <trkpt lat="48.07616" lon="3.41751">
        <ele>142</ele>
        <time>2014-04-13T10:24:45Z</time>
      </trkpt>
      <trkpt lat="48.07605" lon="3.41778">
        <ele>134</ele>
        <time>2014-04-13T10:24:59Z</time>
      </trkpt>
      <trkpt lat="48.07604" lon="3.41782">
        <ele>138</ele>
        <time>2014-04-13T10:25:02Z</time>
      </trkpt>
      <trkpt lat="48.07601" lon="3.41791">
        <ele>139</ele>
        <time>2014-04-13T10:25:07Z</time>
      </trkpt>
      <trkpt lat="48.076" lon="3.41791">
        <ele>139</ele>
        <time>2014-04-13T10:25:08Z</time>
      </trkpt>
      <trkpt lat="48.07595" lon="3.41789">
        <ele>133</ele>
        <time>2014-04-13T10:25:13Z</time>
      </trkpt>
      <trkpt lat="48.07588" lon="3.41782">
        <ele>130</ele>
        <time>2014-04-13T10:25:20Z</time>
      </trkpt>
      <trkpt lat="48.0758" lon="3.41781">
        <ele>136</ele>
        <time>2014-04-13T10:25:25Z</time>
      </trkpt>
      <trkpt lat="48.07575" lon="3.41777">
        <ele>135</ele>
        <time>2014-04-13T10:25:30Z</time>
      </trkpt>
      <trkpt lat="48.07568" lon="3.41776">
        <ele>135</ele>
        <time>2014-04-13T10:25:35Z</time>
      </trkpt>
      <trkpt lat="48.07553" lon="3.41775">
        <ele>138</ele>
        <time>2014-04-13T10:25:47Z</time>
      </trkpt>
      <trkpt lat="48.07549" lon="3.41774">
        <ele>137</ele>
        <time>2014-04-13T10:25:50Z</time>
      </trkpt>
      <trkpt lat="48.07539" lon="3.41775">
        <ele>139</ele>
        <time>2014-04-13T10:25:59Z</time>
      </trkpt>
      <trkpt lat="48.07533" lon="3.41774">
        <ele>142</ele>
        <time>2014-04-13T10:26:05Z</time>
      </trkpt>
      <trkpt lat="48.07527" lon="3.41768">
        <ele>137</ele>
        <time>2014-04-13T10:26:09Z</time>
      </trkpt>
      <trkpt lat="48.07518" lon="3.41758">
        <ele>131</ele>
        <time>2014-04-13T10:26:22Z</time>
      </trkpt>
      <trkpt lat="48.07516" lon="3.41751">
        <ele>134</ele>
        <time>2014-04-13T10:26:27Z</time>
      </trkpt>
      <trkpt lat="48.07511" lon="3.41746">
        <ele>133</ele>
        <time>2014-04-13T10:26:31Z</time>
      </trkpt>
      <trkpt lat="48.07508" lon="3.41739">
        <ele>132</ele>
        <time>2014-04-13T10:26:36Z</time>
      </trkpt>
      <trkpt lat="48.07504" lon="3.41734">
        <ele>132</ele>
        <time>2014-04-13T10:26:40Z</time>
      </trkpt>
      <trkpt lat="48.07496" lon="3.41724">
        <ele>129</ele>
        <time>2014-04-13T10:26:46Z</time>
      </trkpt>
      <trkpt lat="48.07491" lon="3.41715">
        <ele>125</ele>
        <time>2014-04-13T10:26:52Z</time>
      </trkpt>
      <trkpt lat="48.07484" lon="3.41716">
        <ele>131</ele>
        <time>2014-04-13T10:26:59Z</time>
      </trkpt>
      <trkpt lat="48.07479" lon="3.41721">
        <ele>136</ele>
        <time>2014-04-13T10:27:03Z</time>
      </trkpt>
      <trkpt lat="48.07474" lon="3.41723">
        <ele>148</ele>
        <time>2014-04-13T10:27:10Z</time>
      </trkpt>
      <trkpt lat="48.07468" lon="3.41731">
        <ele>163</ele>
        <time>2014-04-13T10:27:20Z</time>
      </trkpt>
      <trkpt lat="48.07467" lon="3.4174">
        <ele>162</ele>
        <time>2014-04-13T10:27:25Z</time>
      </trkpt>
      <trkpt lat="48.07466" lon="3.41747">
        <ele>166</ele>
        <time>2014-04-13T10:27:33Z</time>
      </trkpt>
      <trkpt lat="48.07463" lon="3.41754">
        <ele>159</ele>
        <time>2014-04-13T10:27:37Z</time>
      </trkpt>
      <trkpt lat="48.07458" lon="3.41755">
        <ele>154</ele>
        <time>2014-04-13T10:27:57Z</time>
      </trkpt>
      <trkpt lat="48.07456" lon="3.41762">
        <ele>157</ele>
        <time>2014-04-13T10:28:08Z</time>
      </trkpt>
      <trkpt lat="48.07454" lon="3.41775">
        <ele>166</ele>
        <time>2014-04-13T10:28:17Z</time>
      </trkpt>
      <trkpt lat="48.07449" lon="3.41789">
        <ele>163</ele>
        <time>2014-04-13T10:28:48Z</time>
      </trkpt>
      <trkpt lat="48.07449" lon="3.41798">
        <ele>169</ele>
        <time>2014-04-13T10:28:52Z</time>
      </trkpt>
      <trkpt lat="48.07447" lon="3.41805">
        <ele>175</ele>
        <time>2014-04-13T10:28:59Z</time>
      </trkpt>
      <trkpt lat="48.07441" lon="3.41807">
        <ele>162</ele>
        <time>2014-04-13T10:29:13Z</time>
      </trkpt>
      <trkpt lat="48.07432" lon="3.41803">
        <ele>158</ele>
        <time>2014-04-13T10:29:22Z</time>
      </trkpt>
      <trkpt lat="48.07426" lon="3.41807">
        <ele>163</ele>
        <time>2014-04-13T10:29:25Z</time>
      </trkpt>
      <trkpt lat="48.07417" lon="3.41817">
        <ele>160</ele>
        <time>2014-04-13T10:29:28Z</time>
      </trkpt>
      <trkpt lat="48.07413" lon="3.4182">
        <ele>164</ele>
        <time>2014-04-13T10:29:35Z</time>
      </trkpt>
      <trkpt lat="48.074" lon="3.41831">
        <ele>164</ele>
        <time>2014-04-13T10:29:40Z</time>
      </trkpt>
      <trkpt lat="48.07396" lon="3.41836">
        <ele>166</ele>
        <time>2014-04-13T10:29:42Z</time>
      </trkpt>
      <trkpt lat="48.07391" lon="3.4184">
        <ele>175</ele>
        <time>2014-04-13T10:29:46Z</time>
      </trkpt>
      <trkpt lat="48.07386" lon="3.41847">
        <ele>180</ele>
        <time>2014-04-13T10:29:49Z</time>
      </trkpt>
      <trkpt lat="48.0738" lon="3.41853">
        <ele>181</ele>
        <time>2014-04-13T10:29:51Z</time>
      </trkpt>
      <trkpt lat="48.07375" lon="3.41857">
        <ele>185</ele>
        <time>2014-04-13T10:30:02Z</time>
      </trkpt>
      <trkpt lat="48.07369" lon="3.4186">
        <ele>184</ele>
        <time>2014-04-13T10:30:04Z</time>
      </trkpt>
      <trkpt lat="48.07325" lon="3.41883">
        <ele>184</ele>
        <time>2014-04-13T10:30:35Z</time>
      </trkpt>
      <trkpt lat="48.0732" lon="3.41886">
        <ele>182</ele>
        <time>2014-04-13T10:30:37Z</time>
      </trkpt>
      <trkpt lat="48.07313" lon="3.41889">
        <ele>183</ele>
        <time>2014-04-13T10:30:41Z</time>
      </trkpt>
      <trkpt lat="48.07308" lon="3.41892">
        <ele>181</ele>
        <time>2014-04-13T10:30:44Z</time>
      </trkpt>
      <trkpt lat="48.07302" lon="3.41895">
        <ele>180</ele>
        <time>2014-04-13T10:30:49Z</time>
      </trkpt>
      <trkpt lat="48.07284" lon="3.41904">
        <ele>177</ele>
        <time>2014-04-13T10:31:03Z</time>
      </trkpt>
      <trkpt lat="48.07279" lon="3.41909">
        <ele>180</ele>
        <time>2014-04-13T10:31:08Z</time>
      </trkpt>
      <trkpt lat="48.07278" lon="3.41909">
        <ele>181</ele>
        <time>2014-04-13T10:31:09Z</time>
      </trkpt>
      <trkpt lat="48.07274" lon="3.4191">
        <ele>175</ele>
        <time>2014-04-13T10:31:11Z</time>
      </trkpt>
      <trkpt lat="48.07269" lon="3.41914">
        <ele>170</ele>
        <time>2014-04-13T10:31:14Z</time>
      </trkpt>
      <trkpt lat="48.07265" lon="3.41916">
        <ele>172</ele>
        <time>2014-04-13T10:31:18Z</time>
      </trkpt>
      <trkpt lat="48.07259" lon="3.41918">
        <ele>180</ele>
        <time>2014-04-13T10:31:23Z</time>
      </trkpt>
      <trkpt lat="48.07253" lon="3.41918">
        <ele>182</ele>
        <time>2014-04-13T10:31:26Z</time>
      </trkpt>
      <trkpt lat="48.07248" lon="3.41921">
        <ele>181</ele>
        <time>2014-04-13T10:31:30Z</time>
      </trkpt>
      <trkpt lat="48.0723" lon="3.41928">
        <ele>182</ele>
        <time>2014-04-13T10:31:43Z</time>
      </trkpt>
      <trkpt lat="48.07225" lon="3.41928">
        <ele>181</ele>
        <time>2014-04-13T10:31:48Z</time>
      </trkpt>
      <trkpt lat="48.0722" lon="3.41931">
        <ele>181</ele>
        <time>2014-04-13T10:31:51Z</time>
      </trkpt>
      <trkpt lat="48.07203" lon="3.41942">
        <ele>177</ele>
        <time>2014-04-13T10:32:05Z</time>
      </trkpt>
      <trkpt lat="48.07197" lon="3.41945">
        <ele>180</ele>
        <time>2014-04-13T10:32:08Z</time>
      </trkpt>
      <trkpt lat="48.07192" lon="3.41945">
        <ele>182</ele>
        <time>2014-04-13T10:32:14Z</time>
      </trkpt>
      <trkpt lat="48.07187" lon="3.41949">
        <ele>180</ele>
        <time>2014-04-13T10:32:17Z</time>
      </trkpt>
      <trkpt lat="48.07174" lon="3.41957">
        <ele>180</ele>
        <time>2014-04-13T10:32:26Z</time>
      </trkpt>
      <trkpt lat="48.07171" lon="3.41959">
        <ele>183</ele>
        <time>2014-04-13T10:32:28Z</time>
      </trkpt>
      <trkpt lat="48.07168" lon="3.4196">
        <ele>186</ele>
        <time>2014-04-13T10:32:30Z</time>
      </trkpt>
      <trkpt lat="48.07149" lon="3.41965">
        <ele>189</ele>
        <time>2014-04-13T10:32:46Z</time>
      </trkpt>
      <trkpt lat="48.07145" lon="3.41967">
        <ele>185</ele>
        <time>2014-04-13T10:32:48Z</time>
      </trkpt>
      <trkpt lat="48.07142" lon="3.41969">
        <ele>182</ele>
        <time>2014-04-13T10:32:50Z</time>
      </trkpt>
      <trkpt lat="48.07138" lon="3.41971">
        <ele>183</ele>
        <time>2014-04-13T10:32:53Z</time>
      </trkpt>
      <trkpt lat="48.07132" lon="3.41974">
        <ele>186</ele>
        <time>2014-04-13T10:32:58Z</time>
      </trkpt>
      <trkpt lat="48.07129" lon="3.41975">
        <ele>184</ele>
        <time>2014-04-13T10:33:00Z</time>
      </trkpt>
      <trkpt lat="48.07123" lon="3.41976">
        <ele>183</ele>
        <time>2014-04-13T10:33:05Z</time>
      </trkpt>
      <trkpt lat="48.07114" lon="3.41979">
        <ele>182</ele>
        <time>2014-04-13T10:33:12Z</time>
      </trkpt>
      <trkpt lat="48.07109" lon="3.41983">
        <ele>183</ele>
        <time>2014-04-13T10:33:15Z</time>
      </trkpt>
      <trkpt lat="48.07102" lon="3.41986">
        <ele>183</ele>
        <time>2014-04-13T10:33:21Z</time>
      </trkpt>
      <trkpt lat="48.07084" lon="3.41998">
        <ele>181</ele>
        <time>2014-04-13T10:33:34Z</time>
      </trkpt>
      <trkpt lat="48.07079" lon="3.42001">
        <ele>180</ele>
        <time>2014-04-13T10:33:38Z</time>
      </trkpt>
      <trkpt lat="48.0707" lon="3.42006">
        <ele>184</ele>
        <time>2014-04-13T10:33:45Z</time>
      </trkpt>
      <trkpt lat="48.07065" lon="3.42009">
        <ele>181</ele>
        <time>2014-04-13T10:33:49Z</time>
      </trkpt>
      <trkpt lat="48.07059" lon="3.4201">
        <ele>184</ele>
        <time>2014-04-13T10:33:54Z</time>
      </trkpt>
      <trkpt lat="48.07053" lon="3.42009">
        <ele>189</ele>
        <time>2014-04-13T10:33:57Z</time>
      </trkpt>
      <trkpt lat="48.07051" lon="3.42009">
        <ele>189</ele>
        <time>2014-04-13T10:33:58Z</time>
      </trkpt>
      <trkpt lat="48.07048" lon="3.42009">
        <ele>185</ele>
        <time>2014-04-13T10:34:00Z</time>
      </trkpt>
      <trkpt lat="48.07038" lon="3.42006">
        <ele>183</ele>
        <time>2014-04-13T10:34:07Z</time>
      </trkpt>
      <trkpt lat="48.07031" lon="3.42003">
        <ele>182</ele>
        <time>2014-04-13T10:34:13Z</time>
      </trkpt>
      <trkpt lat="48.07026" lon="3.42">
        <ele>182</ele>
        <time>2014-04-13T10:34:18Z</time>
      </trkpt>
      <trkpt lat="48.07013" lon="3.41991">
        <ele>189</ele>
        <time>2014-04-13T10:34:26Z</time>
      </trkpt>
      <trkpt lat="48.0701" lon="3.41989">
        <ele>191</ele>
        <time>2014-04-13T10:34:28Z</time>
      </trkpt>
      <trkpt lat="48.07006" lon="3.41986">
        <ele>193</ele>
        <time>2014-04-13T10:34:31Z</time>
      </trkpt>
      <trkpt lat="48.06995" lon="3.41981">
        <ele>186</ele>
        <time>2014-04-13T10:34:38Z</time>
      </trkpt>
      <trkpt lat="48.06992" lon="3.4198">
        <ele>185</ele>
        <time>2014-04-13T10:34:40Z</time>
      </trkpt>
      <trkpt lat="48.06989" lon="3.41978">
        <ele>190</ele>
        <time>2014-04-13T10:34:43Z</time>
      </trkpt>
      <trkpt lat="48.06979" lon="3.41974">
        <ele>190</ele>
        <time>2014-04-13T10:34:49Z</time>
      </trkpt>
      <trkpt lat="48.06977" lon="3.41972">
        <ele>189</ele>
        <time>2014-04-13T10:34:51Z</time>
      </trkpt>
      <trkpt lat="48.06974" lon="3.41971">
        <ele>190</ele>
        <time>2014-04-13T10:34:53Z</time>
      </trkpt>
      <trkpt lat="48.06969" lon="3.41967">
        <ele>190</ele>
        <time>2014-04-13T10:34:57Z</time>
      </trkpt>
      <trkpt lat="48.06967" lon="3.41964">
        <ele>195</ele>
        <time>2014-04-13T10:34:59Z</time>
      </trkpt>
      <trkpt lat="48.06964" lon="3.41963">
        <ele>192</ele>
        <time>2014-04-13T10:35:01Z</time>
      </trkpt>
      <trkpt lat="48.06962" lon="3.41962">
        <ele>195</ele>
        <time>2014-04-13T10:35:03Z</time>
      </trkpt>
      <trkpt lat="48.06952" lon="3.41959">
        <ele>193</ele>
        <time>2014-04-13T10:35:09Z</time>
      </trkpt>
      <trkpt lat="48.06949" lon="3.41957">
        <ele>188</ele>
        <time>2014-04-13T10:35:11Z</time>
      </trkpt>
      <trkpt lat="48.06936" lon="3.41949">
        <ele>194</ele>
        <time>2014-04-13T10:35:21Z</time>
      </trkpt>
      <trkpt lat="48.06933" lon="3.41947">
        <ele>190</ele>
        <time>2014-04-13T10:35:23Z</time>
      </trkpt>
      <trkpt lat="48.06931" lon="3.41946">
        <ele>189</ele>
        <time>2014-04-13T10:35:25Z</time>
      </trkpt>
      <trkpt lat="48.06928" lon="3.41944">
        <ele>192</ele>
        <time>2014-04-13T10:35:27Z</time>
      </trkpt>
      <trkpt lat="48.06926" lon="3.41943">
        <ele>198</ele>
        <time>2014-04-13T10:35:29Z</time>
      </trkpt>
      <trkpt lat="48.06922" lon="3.41942">
        <ele>192</ele>
        <time>2014-04-13T10:35:32Z</time>
      </trkpt>
      <trkpt lat="48.06918" lon="3.41939">
        <ele>195</ele>
        <time>2014-04-13T10:35:36Z</time>
      </trkpt>
      <trkpt lat="48.06911" lon="3.41934">
        <ele>194</ele>
        <time>2014-04-13T10:35:41Z</time>
      </trkpt>
      <trkpt lat="48.06906" lon="3.41932">
        <ele>196</ele>
        <time>2014-04-13T10:35:45Z</time>
      </trkpt>
      <trkpt lat="48.06902" lon="3.4193">
        <ele>197</ele>
        <time>2014-04-13T10:35:47Z</time>
      </trkpt>
      <trkpt lat="48.06899" lon="3.41929">
        <ele>196</ele>
        <time>2014-04-13T10:35:49Z</time>
      </trkpt>
      <trkpt lat="48.06897" lon="3.41926">
        <ele>195</ele>
        <time>2014-04-13T10:35:52Z</time>
      </trkpt>
      <trkpt lat="48.06893" lon="3.41923">
        <ele>200</ele>
        <time>2014-04-13T10:35:55Z</time>
      </trkpt>
      <trkpt lat="48.06887" lon="3.41919">
        <ele>199</ele>
        <time>2014-04-13T10:36:00Z</time>
      </trkpt>
      <trkpt lat="48.06877" lon="3.41912">
        <ele>199</ele>
        <time>2014-04-13T10:36:07Z</time>
      </trkpt>
      <trkpt lat="48.06875" lon="3.4191">
        <ele>201</ele>
        <time>2014-04-13T10:36:09Z</time>
      </trkpt>
      <trkpt lat="48.06873" lon="3.41909">
        <ele>196</ele>
        <time>2014-04-13T10:36:11Z</time>
      </trkpt>
      <trkpt lat="48.06869" lon="3.41907">
        <ele>199</ele>
        <time>2014-04-13T10:36:14Z</time>
      </trkpt>
      <trkpt lat="48.0686" lon="3.41903">
        <ele>198</ele>
        <time>2014-04-13T10:36:20Z</time>
      </trkpt>
      <trkpt lat="48.06855" lon="3.41899">
        <ele>197</ele>
        <time>2014-04-13T10:36:24Z</time>
      </trkpt>
      <trkpt lat="48.06852" lon="3.41898">
        <ele>198</ele>
        <time>2014-04-13T10:36:26Z</time>
      </trkpt>
      <trkpt lat="48.0684" lon="3.41896">
        <ele>201</ele>
        <time>2014-04-13T10:36:34Z</time>
      </trkpt>
      <trkpt lat="48.06838" lon="3.41898">
        <ele>200</ele>
        <time>2014-04-13T10:36:36Z</time>
      </trkpt>
      <trkpt lat="48.06835" lon="3.41905">
        <ele>199</ele>
        <time>2014-04-13T10:36:41Z</time>
      </trkpt>
      <trkpt lat="48.06831" lon="3.41919">
        <ele>206</ele>
        <time>2014-04-13T10:36:47Z</time>
      </trkpt>
      <trkpt lat="48.06831" lon="3.41923">
        <ele>208</ele>
        <time>2014-04-13T10:36:49Z</time>
      </trkpt>
      <trkpt lat="48.06829" lon="3.41928">
        <ele>209</ele>
        <time>2014-04-13T10:36:51Z</time>
      </trkpt>
      <trkpt lat="48.06828" lon="3.41933">
        <ele>206</ele>
        <time>2014-04-13T10:36:53Z</time>
      </trkpt>
      <trkpt lat="48.06827" lon="3.41936">
        <ele>208</ele>
        <time>2014-04-13T10:36:55Z</time>
      </trkpt>
      <trkpt lat="48.06826" lon="3.4194">
        <ele>206</ele>
        <time>2014-04-13T10:36:57Z</time>
      </trkpt>
      <trkpt lat="48.06825" lon="3.41944">
        <ele>205</ele>
        <time>2014-04-13T10:36:59Z</time>
      </trkpt>
      <trkpt lat="48.06818" lon="3.41964">
        <ele>205</ele>
        <time>2014-04-13T10:37:09Z</time>
      </trkpt>
      <trkpt lat="48.06818" lon="3.41967">
        <ele>207</ele>
        <time>2014-04-13T10:37:11Z</time>
      </trkpt>
      <trkpt lat="48.06816" lon="3.41974">
        <ele>206</ele>
        <time>2014-04-13T10:37:15Z</time>
      </trkpt>
      <trkpt lat="48.06814" lon="3.41978">
        <ele>207</ele>
        <time>2014-04-13T10:37:17Z</time>
      </trkpt>
      <trkpt lat="48.06808" lon="3.41991">
        <ele>209</ele>
        <time>2014-04-13T10:37:23Z</time>
      </trkpt>
      <trkpt lat="48.06806" lon="3.41995">
        <ele>206</ele>
        <time>2014-04-13T10:37:25Z</time>
      </trkpt>
      <trkpt lat="48.06801" lon="3.42003">
        <ele>209</ele>
        <time>2014-04-13T10:37:30Z</time>
      </trkpt>
      <trkpt lat="48.06793" lon="3.42014">
        <ele>207</ele>
        <time>2014-04-13T10:37:37Z</time>
      </trkpt>
      <trkpt lat="48.06791" lon="3.42016">
        <ele>207</ele>
        <time>2014-04-13T10:37:39Z</time>
      </trkpt>
      <trkpt lat="48.06782" lon="3.42027">
        <ele>199</ele>
        <time>2014-04-13T10:37:48Z</time>
      </trkpt>
      <trkpt lat="48.06777" lon="3.4203">
        <ele>198</ele>
        <time>2014-04-13T10:37:54Z</time>
      </trkpt>
      <trkpt lat="48.06762" lon="3.42037">
        <ele>201</ele>
        <time>2014-04-13T10:38:13Z</time>
      </trkpt>
      <trkpt lat="48.06757" lon="3.42035">
        <ele>199</ele>
        <time>2014-04-13T10:38:17Z</time>
      </trkpt>
      <trkpt lat="48.06752" lon="3.42035">
        <ele>201</ele>
        <time>2014-04-13T10:38:20Z</time>
      </trkpt>
      <trkpt lat="48.06748" lon="3.42034">
        <ele>200</ele>
        <time>2014-04-13T10:38:23Z</time>
      </trkpt>
      <trkpt lat="48.06744" lon="3.42033">
        <ele>197</ele>
        <time>2014-04-13T10:38:25Z</time>
      </trkpt>
      <trkpt lat="48.06742" lon="3.42031">
        <ele>195</ele>
        <time>2014-04-13T10:38:27Z</time>
      </trkpt>
      <trkpt lat="48.06738" lon="3.4203">
        <ele>196</ele>
        <time>2014-04-13T10:38:30Z</time>
      </trkpt>
      <trkpt lat="48.06736" lon="3.42029">
        <ele>195</ele>
        <time>2014-04-13T10:38:32Z</time>
      </trkpt>
      <trkpt lat="48.06734" lon="3.4203">
        <ele>196</ele>
        <time>2014-04-13T10:38:34Z</time>
      </trkpt>
      <trkpt lat="48.06723" lon="3.42031">
        <ele>194</ele>
        <time>2014-04-13T10:38:42Z</time>
      </trkpt>
      <trkpt lat="48.06717" lon="3.42032">
        <ele>191</ele>
        <time>2014-04-13T10:38:46Z</time>
      </trkpt>
      <trkpt lat="48.06714" lon="3.42032">
        <ele>195</ele>
        <time>2014-04-13T10:38:50Z</time>
      </trkpt>
      <trkpt lat="48.06705" lon="3.42036">
        <ele>191</ele>
        <time>2014-04-13T10:38:57Z</time>
      </trkpt>
      <trkpt lat="48.06702" lon="3.42038">
        <ele>191</ele>
        <time>2014-04-13T10:38:59Z</time>
      </trkpt>
      <trkpt lat="48.06699" lon="3.4204">
        <ele>194</ele>
        <time>2014-04-13T10:39:01Z</time>
      </trkpt>
      <trkpt lat="48.06693" lon="3.42043">
        <ele>191</ele>
        <time>2014-04-13T10:39:05Z</time>
      </trkpt>
      <trkpt lat="48.0669" lon="3.42045">
        <ele>191</ele>
        <time>2014-04-13T10:39:08Z</time>
      </trkpt>
      <trkpt lat="48.06683" lon="3.42047">
        <ele>192</ele>
        <time>2014-04-13T10:39:15Z</time>
      </trkpt>
      <trkpt lat="48.06675" lon="3.42052">
        <ele>192</ele>
        <time>2014-04-13T10:39:25Z</time>
      </trkpt>
      <trkpt lat="48.06672" lon="3.42059">
        <ele>195</ele>
        <time>2014-04-13T10:39:27Z</time>
      </trkpt>
      <trkpt lat="48.06669" lon="3.42065">
        <ele>201</ele>
        <time>2014-04-13T10:39:30Z</time>
      </trkpt>
      <trkpt lat="48.06665" lon="3.42069">
        <ele>203</ele>
        <time>2014-04-13T10:39:33Z</time>
      </trkpt>
      <trkpt lat="48.06663" lon="3.42071">
        <ele>203</ele>
        <time>2014-04-13T10:39:34Z</time>
      </trkpt>
      <trkpt lat="48.06661" lon="3.42075">
        <ele>202</ele>
        <time>2014-04-13T10:39:36Z</time>
      </trkpt>
      <trkpt lat="48.06658" lon="3.42078">
        <ele>201</ele>
        <time>2014-04-13T10:39:38Z</time>
      </trkpt>
      <trkpt lat="48.06656" lon="3.42082">
        <ele>203</ele>
        <time>2014-04-13T10:39:40Z</time>
      </trkpt>
      <trkpt lat="48.06649" lon="3.42095">
        <ele>208</ele>
        <time>2014-04-13T10:39:48Z</time>
      </trkpt>
      <trkpt lat="48.06647" lon="3.42099">
        <ele>209</ele>
        <time>2014-04-13T10:39:51Z</time>
      </trkpt>
      <trkpt lat="48.06641" lon="3.42114">
        <ele>202</ele>
        <time>2014-04-13T10:39:59Z</time>
      </trkpt>
      <trkpt lat="48.06639" lon="3.42118">
        <ele>202</ele>
        <time>2014-04-13T10:40:01Z</time>
      </trkpt>
      <trkpt lat="48.06638" lon="3.42122">
        <ele>202</ele>
        <time>2014-04-13T10:40:03Z</time>
      </trkpt>
      <trkpt lat="48.06636" lon="3.42124">
        <ele>203</ele>
        <time>2014-04-13T10:40:05Z</time>
      </trkpt>
      <trkpt lat="48.06634" lon="3.42128">
        <ele>202</ele>
        <time>2014-04-13T10:40:07Z</time>
      </trkpt>
      <trkpt lat="48.06628" lon="3.4214">
        <ele>205</ele>
        <time>2014-04-13T10:40:15Z</time>
      </trkpt>
      <trkpt lat="48.06626" lon="3.42143">
        <ele>207</ele>
        <time>2014-04-13T10:40:18Z</time>
      </trkpt>
      <trkpt lat="48.06618" lon="3.42154">
        <ele>203</ele>
        <time>2014-04-13T10:40:26Z</time>
      </trkpt>
      <trkpt lat="48.06617" lon="3.42157">
        <ele>203</ele>
        <time>2014-04-13T10:40:28Z</time>
      </trkpt>
      <trkpt lat="48.06615" lon="3.42159">
        <ele>204</ele>
        <time>2014-04-13T10:40:30Z</time>
      </trkpt>
      <trkpt lat="48.06611" lon="3.42165">
        <ele>207</ele>
        <time>2014-04-13T10:40:34Z</time>
      </trkpt>
      <trkpt lat="48.06609" lon="3.42167">
        <ele>205</ele>
        <time>2014-04-13T10:40:36Z</time>
      </trkpt>
      <trkpt lat="48.0658" lon="3.42192">
        <ele>204</ele>
        <time>2014-04-13T10:40:59Z</time>
      </trkpt>
      <trkpt lat="48.06575" lon="3.42195">
        <ele>206</ele>
        <time>2014-04-13T10:41:03Z</time>
      </trkpt>
      <trkpt lat="48.06563" lon="3.42201">
        <ele>206</ele>
        <time>2014-04-13T10:41:11Z</time>
      </trkpt>
      <trkpt lat="48.06556" lon="3.42204">
        <ele>206</ele>
        <time>2014-04-13T10:41:17Z</time>
      </trkpt>
      <trkpt lat="48.06553" lon="3.42205">
        <ele>207</ele>
        <time>2014-04-13T10:41:20Z</time>
      </trkpt>
      <trkpt lat="48.06551" lon="3.42206">
        <ele>203</ele>
        <time>2014-04-13T10:41:22Z</time>
      </trkpt>
      <trkpt lat="48.06547" lon="3.42209">
        <ele>207</ele>
        <time>2014-04-13T10:41:32Z</time>
      </trkpt>
      <trkpt lat="48.06544" lon="3.42209">
        <ele>203</ele>
        <time>2014-04-13T10:41:56Z</time>
      </trkpt>
      <trkpt lat="48.0654" lon="3.42213">
        <ele>203</ele>
        <time>2014-04-13T10:42:01Z</time>
      </trkpt>
      <trkpt lat="48.06534" lon="3.42216">
        <ele>209</ele>
        <time>2014-04-13T10:42:07Z</time>
      </trkpt>
      <trkpt lat="48.06515" lon="3.42225">
        <ele>209</ele>
        <time>2014-04-13T10:42:25Z</time>
      </trkpt>
      <trkpt lat="48.06512" lon="3.42227">
        <ele>211</ele>
        <time>2014-04-13T10:42:28Z</time>
      </trkpt>
      <trkpt lat="48.06505" lon="3.42232">
        <ele>206</ele>
        <time>2014-04-13T10:42:33Z</time>
      </trkpt>
      <trkpt lat="48.065" lon="3.42236">
        <ele>203</ele>
        <time>2014-04-13T10:42:38Z</time>
      </trkpt>
      <trkpt lat="48.06485" lon="3.42247">
        <ele>207</ele>
        <time>2014-04-13T10:42:50Z</time>
      </trkpt>
      <trkpt lat="48.06479" lon="3.42251">
        <ele>209</ele>
        <time>2014-04-13T10:42:55Z</time>
      </trkpt>
      <trkpt lat="48.06462" lon="3.42261">
        <ele>206</ele>
        <time>2014-04-13T10:43:08Z</time>
      </trkpt>
      <trkpt lat="48.06457" lon="3.42262">
        <ele>204</ele>
        <time>2014-04-13T10:43:13Z</time>
      </trkpt>
      <trkpt lat="48.06451" lon="3.42266">
        <ele>201</ele>
        <time>2014-04-13T10:43:17Z</time>
      </trkpt>
      <trkpt lat="48.06433" lon="3.4228">
        <ele>208</ele>
        <time>2014-04-13T10:43:32Z</time>
      </trkpt>
      <trkpt lat="48.06429" lon="3.42284">
        <ele>206</ele>
        <time>2014-04-13T10:43:35Z</time>
      </trkpt>
      <trkpt lat="48.06408" lon="3.42303">
        <ele>208</ele>
        <time>2014-04-13T10:43:50Z</time>
      </trkpt>
      <trkpt lat="48.06406" lon="3.42305">
        <ele>207</ele>
        <time>2014-04-13T10:43:52Z</time>
      </trkpt>
      <trkpt lat="48.06368" lon="3.42329">
        <ele>201</ele>
        <time>2014-04-13T10:44:23Z</time>
      </trkpt>
      <trkpt lat="48.06365" lon="3.4233">
        <ele>205</ele>
        <time>2014-04-13T10:44:25Z</time>
      </trkpt>
      <trkpt lat="48.06363" lon="3.42332">
        <ele>201</ele>
        <time>2014-04-13T10:44:27Z</time>
      </trkpt>
      <trkpt lat="48.06355" lon="3.42335">
        <ele>203</ele>
        <time>2014-04-13T10:44:33Z</time>
      </trkpt>
      <trkpt lat="48.06345" lon="3.4234">
        <ele>203</ele>
        <time>2014-04-13T10:44:41Z</time>
      </trkpt>
      <trkpt lat="48.0634" lon="3.42344">
        <ele>205</ele>
        <time>2014-04-13T10:44:45Z</time>
      </trkpt>
      <trkpt lat="48.06337" lon="3.42346">
        <ele>205</ele>
        <time>2014-04-13T10:44:47Z</time>
      </trkpt>
      <trkpt lat="48.06334" lon="3.42349">
        <ele>206</ele>
        <time>2014-04-13T10:44:49Z</time>
      </trkpt>
      <trkpt lat="48.06326" lon="3.42362">
        <ele>209</ele>
        <time>2014-04-13T10:44:57Z</time>
      </trkpt>
      <trkpt lat="48.06325" lon="3.42367">
        <ele>208</ele>
        <time>2014-04-13T10:44:59Z</time>
      </trkpt>
      <trkpt lat="48.06323" lon="3.4237">
        <ele>205</ele>
        <time>2014-04-13T10:45:01Z</time>
      </trkpt>
      <trkpt lat="48.06321" lon="3.42376">
        <ele>207</ele>
        <time>2014-04-13T10:45:04Z</time>
      </trkpt>
      <trkpt lat="48.06319" lon="3.4238">
        <ele>206</ele>
        <time>2014-04-13T10:45:06Z</time>
      </trkpt>
      <trkpt lat="48.06316" lon="3.42388">
        <ele>207</ele>
        <time>2014-04-13T10:45:10Z</time>
      </trkpt>
      <trkpt lat="48.06314" lon="3.42393">
        <ele>209</ele>
        <time>2014-04-13T10:45:12Z</time>
      </trkpt>
      <trkpt lat="48.0631" lon="3.42406">
        <ele>208</ele>
        <time>2014-04-13T10:45:18Z</time>
      </trkpt>
      <trkpt lat="48.06308" lon="3.4241">
        <ele>207</ele>
        <time>2014-04-13T10:45:20Z</time>
      </trkpt>
      <trkpt lat="48.06301" lon="3.42441">
        <ele>204</ele>
        <time>2014-04-13T10:45:35Z</time>
      </trkpt>
      <trkpt lat="48.063" lon="3.42446">
        <ele>201</ele>
        <time>2014-04-13T10:45:37Z</time>
      </trkpt>
      <trkpt lat="48.063" lon="3.42451">
        <ele>207</ele>
        <time>2014-04-13T10:45:39Z</time>
      </trkpt>
      <trkpt lat="48.06299" lon="3.42466">
        <ele>202</ele>
        <time>2014-04-13T10:45:46Z</time>
      </trkpt>
      <trkpt lat="48.06299" lon="3.42471">
        <ele>206</ele>
        <time>2014-04-13T10:45:48Z</time>
      </trkpt>
      <trkpt lat="48.063" lon="3.42517">
        <ele>205</ele>
        <time>2014-04-13T10:46:09Z</time>
      </trkpt>
      <trkpt lat="48.063" lon="3.4252">
        <ele>207</ele>
        <time>2014-04-13T10:46:11Z</time>
      </trkpt>
      <trkpt lat="48.06301" lon="3.42526">
        <ele>206</ele>
        <time>2014-04-13T10:46:14Z</time>
      </trkpt>
      <trkpt lat="48.06301" lon="3.42529">
        <ele>206</ele>
        <time>2014-04-13T10:46:16Z</time>
      </trkpt>
      <trkpt lat="48.06301" lon="3.42534">
        <ele>208</ele>
        <time>2014-04-13T10:46:18Z</time>
      </trkpt>
      <trkpt lat="48.06301" lon="3.42539">
        <ele>208</ele>
        <time>2014-04-13T10:46:21Z</time>
      </trkpt>
      <trkpt lat="48.06301" lon="3.42544">
        <ele>210</ele>
        <time>2014-04-13T10:46:24Z</time>
      </trkpt>
      <trkpt lat="48.06302" lon="3.42548">
        <ele>207</ele>
        <time>2014-04-13T10:46:26Z</time>
      </trkpt>
      <trkpt lat="48.06302" lon="3.42558">
        <ele>209</ele>
        <time>2014-04-13T10:46:30Z</time>
      </trkpt>
      <trkpt lat="48.06302" lon="3.42574">
        <ele>207</ele>
        <time>2014-04-13T10:46:38Z</time>
      </trkpt>
      <trkpt lat="48.06302" lon="3.42579">
        <ele>208</ele>
        <time>2014-04-13T10:46:40Z</time>
      </trkpt>
      <trkpt lat="48.06302" lon="3.42583">
        <ele>211</ele>
        <time>2014-04-13T10:46:42Z</time>
      </trkpt>
      <trkpt lat="48.06301" lon="3.42588">
        <ele>209</ele>
        <time>2014-04-13T10:46:45Z</time>
      </trkpt>
      <trkpt lat="48.06301" lon="3.42603">
        <ele>212</ele>
        <time>2014-04-13T10:46:52Z</time>
      </trkpt>
      <trkpt lat="48.06301" lon="3.42613">
        <ele>217</ele>
        <time>2014-04-13T10:46:57Z</time>
      </trkpt>
      <trkpt lat="48.06299" lon="3.42629">
        <ele>213</ele>
        <time>2014-04-13T10:47:04Z</time>
      </trkpt>
      <trkpt lat="48.06299" lon="3.42634">
        <ele>208</ele>
        <time>2014-04-13T10:47:06Z</time>
      </trkpt>
      <trkpt lat="48.06298" lon="3.42638">
        <ele>211</ele>
        <time>2014-04-13T10:47:08Z</time>
      </trkpt>
      <trkpt lat="48.06297" lon="3.42645">
        <ele>212</ele>
        <time>2014-04-13T10:47:12Z</time>
      </trkpt>
      <trkpt lat="48.06296" lon="3.42651">
        <ele>211</ele>
        <time>2014-04-13T10:47:15Z</time>
      </trkpt>
      <trkpt lat="48.06295" lon="3.42654">
        <ele>211</ele>
        <time>2014-04-13T10:47:17Z</time>
      </trkpt>
      <trkpt lat="48.06294" lon="3.4266">
        <ele>211</ele>
        <time>2014-04-13T10:47:20Z</time>
      </trkpt>
      <trkpt lat="48.06293" lon="3.42664">
        <ele>211</ele>
        <time>2014-04-13T10:47:22Z</time>
      </trkpt>
      <trkpt lat="48.06292" lon="3.42668">
        <ele>212</ele>
        <time>2014-04-13T10:47:24Z</time>
      </trkpt>
      <trkpt lat="48.0629" lon="3.42674">
        <ele>211</ele>
        <time>2014-04-13T10:47:27Z</time>
      </trkpt>
      <trkpt lat="48.06289" lon="3.42682">
        <ele>209</ele>
        <time>2014-04-13T10:47:31Z</time>
      </trkpt>
      <trkpt lat="48.06289" lon="3.42685">
        <ele>209</ele>
        <time>2014-04-13T10:47:33Z</time>
      </trkpt>
      <trkpt lat="48.0629" lon="3.42689">
        <ele>210</ele>
        <time>2014-04-13T10:47:35Z</time>
      </trkpt>
      <trkpt lat="48.06291" lon="3.42692">
        <ele>211</ele>
        <time>2014-04-13T10:47:37Z</time>
      </trkpt>
      <trkpt lat="48.06293" lon="3.42695">
        <ele>215</ele>
        <time>2014-04-13T10:47:39Z</time>
      </trkpt>
      <trkpt lat="48.06295" lon="3.42696">
        <ele>215</ele>
        <time>2014-04-13T10:47:41Z</time>
      </trkpt>
      <trkpt lat="48.06304" lon="3.427">
        <ele>221</ele>
        <time>2014-04-13T10:47:46Z</time>
      </trkpt>
      <trkpt lat="48.06333" lon="3.42711">
        <ele>208</ele>
        <time>2014-04-13T10:48:05Z</time>
      </trkpt>
      <trkpt lat="48.06336" lon="3.42713">
        <ele>209</ele>
        <time>2014-04-13T10:48:08Z</time>
      </trkpt>
      <trkpt lat="48.06338" lon="3.42714">
        <ele>209</ele>
        <time>2014-04-13T10:48:11Z</time>
      </trkpt>
      <trkpt lat="48.06359" lon="3.42722">
        <ele>211</ele>
        <time>2014-04-13T10:48:25Z</time>
      </trkpt>
      <trkpt lat="48.06362" lon="3.42723">
        <ele>209</ele>
        <time>2014-04-13T10:48:27Z</time>
      </trkpt>
      <trkpt lat="48.06365" lon="3.42724">
        <ele>208</ele>
        <time>2014-04-13T10:48:29Z</time>
      </trkpt>
      <trkpt lat="48.06375" lon="3.42728">
        <ele>207</ele>
        <time>2014-04-13T10:48:36Z</time>
      </trkpt>
      <trkpt lat="48.06378" lon="3.42729">
        <ele>210</ele>
        <time>2014-04-13T10:48:39Z</time>
      </trkpt>
      <trkpt lat="48.06381" lon="3.4273">
        <ele>211</ele>
        <time>2014-04-13T10:48:41Z</time>
      </trkpt>
      <trkpt lat="48.06392" lon="3.42734">
        <ele>212</ele>
        <time>2014-04-13T10:48:49Z</time>
      </trkpt>
      <trkpt lat="48.06395" lon="3.42735">
        <ele>213</ele>
        <time>2014-04-13T10:48:51Z</time>
      </trkpt>
      <trkpt lat="48.06398" lon="3.42738">
        <ele>212</ele>
        <time>2014-04-13T10:48:53Z</time>
      </trkpt>
      <trkpt lat="48.06404" lon="3.42742">
        <ele>211</ele>
        <time>2014-04-13T10:48:58Z</time>
      </trkpt>
      <trkpt lat="48.06407" lon="3.42743">
        <ele>211</ele>
        <time>2014-04-13T10:49:00Z</time>
      </trkpt>
      <trkpt lat="48.06417" lon="3.42746">
        <ele>210</ele>
        <time>2014-04-13T10:49:07Z</time>
      </trkpt>
      <trkpt lat="48.06424" lon="3.4275">
        <ele>203</ele>
        <time>2014-04-13T10:49:12Z</time>
      </trkpt>
      <trkpt lat="48.06428" lon="3.42754">
        <ele>207</ele>
        <time>2014-04-13T10:49:16Z</time>
      </trkpt>
      <trkpt lat="48.06437" lon="3.42763">
        <ele>208</ele>
        <time>2014-04-13T10:49:35Z</time>
      </trkpt>
      <trkpt lat="48.06441" lon="3.42766">
        <ele>207</ele>
        <time>2014-04-13T10:49:38Z</time>
      </trkpt>
      <trkpt lat="48.06447" lon="3.42769">
        <ele>205</ele>
        <time>2014-04-13T10:49:42Z</time>
      </trkpt>
      <trkpt lat="48.06456" lon="3.42776">
        <ele>212</ele>
        <time>2014-04-13T10:49:49Z</time>
      </trkpt>
      <trkpt lat="48.06459" lon="3.42776">
        <ele>214</ele>
        <time>2014-04-13T10:49:51Z</time>
      </trkpt>
      <trkpt lat="48.06462" lon="3.42777">
        <ele>214</ele>
        <time>2014-04-13T10:49:53Z</time>
      </trkpt>
      <trkpt lat="48.06466" lon="3.4278">
        <ele>211</ele>
        <time>2014-04-13T10:49:56Z</time>
      </trkpt>
      <trkpt lat="48.06469" lon="3.42781">
        <ele>210</ele>
        <time>2014-04-13T10:49:58Z</time>
      </trkpt>
      <trkpt lat="48.06473" lon="3.42784">
        <ele>208</ele>
        <time>2014-04-13T10:50:01Z</time>
      </trkpt>
      <trkpt lat="48.06482" lon="3.4279">
        <ele>208</ele>
        <time>2014-04-13T10:50:08Z</time>
      </trkpt>
      <trkpt lat="48.06486" lon="3.42793">
        <ele>208</ele>
        <time>2014-04-13T10:50:11Z</time>
      </trkpt>
      <trkpt lat="48.06488" lon="3.42794">
        <ele>207</ele>
        <time>2014-04-13T10:50:13Z</time>
      </trkpt>
      <trkpt lat="48.0649" lon="3.42795">
        <ele>206</ele>
        <time>2014-04-13T10:50:15Z</time>
      </trkpt>
      <trkpt lat="48.06493" lon="3.42796">
        <ele>205</ele>
        <time>2014-04-13T10:50:17Z</time>
      </trkpt>
      <trkpt lat="48.06495" lon="3.42797">
        <ele>204</ele>
        <time>2014-04-13T10:50:19Z</time>
      </trkpt>
      <trkpt lat="48.06504" lon="3.42802">
        <ele>205</ele>
        <time>2014-04-13T10:50:25Z</time>
      </trkpt>
      <trkpt lat="48.06509" lon="3.42806">
        <ele>204</ele>
        <time>2014-04-13T10:50:29Z</time>
      </trkpt>
      <trkpt lat="48.06512" lon="3.42807">
        <ele>203</ele>
        <time>2014-04-13T10:50:31Z</time>
      </trkpt>
      <trkpt lat="48.06522" lon="3.42815">
        <ele>203</ele>
        <time>2014-04-13T10:50:39Z</time>
      </trkpt>
      <trkpt lat="48.06526" lon="3.42819">
        <ele>203</ele>
        <time>2014-04-13T10:50:42Z</time>
      </trkpt>
      <trkpt lat="48.06529" lon="3.42822">
        <ele>209</ele>
        <time>2014-04-13T10:50:44Z</time>
      </trkpt>
      <trkpt lat="48.06533" lon="3.42824">
        <ele>210</ele>
        <time>2014-04-13T10:50:48Z</time>
      </trkpt>
      <trkpt lat="48.06536" lon="3.42825">
        <ele>208</ele>
        <time>2014-04-13T10:50:50Z</time>
      </trkpt>
      <trkpt lat="48.06554" lon="3.42835">
        <ele>204</ele>
        <time>2014-04-13T10:51:04Z</time>
      </trkpt>
      <trkpt lat="48.06558" lon="3.42838">
        <ele>204</ele>
        <time>2014-04-13T10:51:07Z</time>
      </trkpt>
      <trkpt lat="48.06564" lon="3.42841">
        <ele>202</ele>
        <time>2014-04-13T10:51:12Z</time>
      </trkpt>
      <trkpt lat="48.06572" lon="3.42847">
        <ele>205</ele>
        <time>2014-04-13T10:51:17Z</time>
      </trkpt>
      <trkpt lat="48.06574" lon="3.42849">
        <ele>204</ele>
        <time>2014-04-13T10:51:19Z</time>
      </trkpt>
      <trkpt lat="48.06593" lon="3.42862">
        <ele>201</ele>
        <time>2014-04-13T10:51:33Z</time>
      </trkpt>
      <trkpt lat="48.06599" lon="3.42866">
        <ele>203</ele>
        <time>2014-04-13T10:51:37Z</time>
      </trkpt>
      <trkpt lat="48.06602" lon="3.42868">
        <ele>204</ele>
        <time>2014-04-13T10:51:39Z</time>
      </trkpt>
      <trkpt lat="48.06609" lon="3.42872">
        <ele>204</ele>
        <time>2014-04-13T10:51:44Z</time>
      </trkpt>
      <trkpt lat="48.0662" lon="3.4288">
        <ele>205</ele>
        <time>2014-04-13T10:51:52Z</time>
      </trkpt>
      <trkpt lat="48.06626" lon="3.42883">
        <ele>205</ele>
        <time>2014-04-13T10:51:56Z</time>
      </trkpt>
      <trkpt lat="48.0663" lon="3.42886">
        <ele>204</ele>
        <time>2014-04-13T10:51:59Z</time>
      </trkpt>
      <trkpt lat="48.06634" lon="3.4289">
        <ele>205</ele>
        <time>2014-04-13T10:52:02Z</time>
      </trkpt>
      <trkpt lat="48.06637" lon="3.42892">
        <ele>202</ele>
        <time>2014-04-13T10:52:04Z</time>
      </trkpt>
      <trkpt lat="48.06647" lon="3.42897">
        <ele>202</ele>
        <time>2014-04-13T10:52:10Z</time>
      </trkpt>
      <trkpt lat="48.0665" lon="3.42899">
        <ele>200</ele>
        <time>2014-04-13T10:52:12Z</time>
      </trkpt>
      <trkpt lat="48.0666" lon="3.42903">
        <ele>200</ele>
        <time>2014-04-13T10:52:19Z</time>
      </trkpt>
      <trkpt lat="48.06664" lon="3.4291">
        <ele>206</ele>
        <time>2014-04-13T10:52:23Z</time>
      </trkpt>
      <trkpt lat="48.06666" lon="3.42912">
        <ele>206</ele>
        <time>2014-04-13T10:52:25Z</time>
      </trkpt>
      <trkpt lat="48.06664" lon="3.4292">
        <ele>205</ele>
        <time>2014-04-13T10:52:29Z</time>
      </trkpt>
      <trkpt lat="48.06663" lon="3.42923">
        <ele>202</ele>
        <time>2014-04-13T10:52:31Z</time>
      </trkpt>
      <trkpt lat="48.06661" lon="3.42925">
        <ele>202</ele>
        <time>2014-04-13T10:52:33Z</time>
      </trkpt>
      <trkpt lat="48.06652" lon="3.42933">
        <ele>199</ele>
        <time>2014-04-13T10:52:39Z</time>
      </trkpt>
      <trkpt lat="48.0665" lon="3.42935">
        <ele>201</ele>
        <time>2014-04-13T10:52:41Z</time>
      </trkpt>
      <trkpt lat="48.06637" lon="3.42947">
        <ele>198</ele>
        <time>2014-04-13T10:52:53Z</time>
      </trkpt>
      <trkpt lat="48.06632" lon="3.42952">
        <ele>201</ele>
        <time>2014-04-13T10:52:56Z</time>
      </trkpt>
      <trkpt lat="48.06629" lon="3.42959">
        <ele>198</ele>
        <time>2014-04-13T10:53:00Z</time>
      </trkpt>
      <trkpt lat="48.06616" lon="3.42982">
        <ele>195</ele>
        <time>2014-04-13T10:53:14Z</time>
      </trkpt>
      <trkpt lat="48.06612" lon="3.42987">
        <ele>195</ele>
        <time>2014-04-13T10:53:17Z</time>
      </trkpt>
      <trkpt lat="48.06608" lon="3.42992">
        <ele>191</ele>
        <time>2014-04-13T10:53:21Z</time>
      </trkpt>
      <trkpt lat="48.06605" lon="3.42999">
        <ele>191</ele>
        <time>2014-04-13T10:53:25Z</time>
      </trkpt>
      <trkpt lat="48.06593" lon="3.43019">
        <ele>188</ele>
        <time>2014-04-13T10:53:37Z</time>
      </trkpt>
      <trkpt lat="48.06589" lon="3.43025">
        <ele>193</ele>
        <time>2014-04-13T10:53:43Z</time>
      </trkpt>
      <trkpt lat="48.06573" lon="3.43044">
        <ele>176</ele>
        <time>2014-04-13T10:54:03Z</time>
      </trkpt>
      <trkpt lat="48.06569" lon="3.43048">
        <ele>182</ele>
        <time>2014-04-13T10:54:08Z</time>
      </trkpt>
      <trkpt lat="48.06552" lon="3.43066">
        <ele>179</ele>
        <time>2014-04-13T10:54:23Z</time>
      </trkpt>
      <trkpt lat="48.0655" lon="3.43069">
        <ele>176</ele>
        <time>2014-04-13T10:54:24Z</time>
      </trkpt>
      <trkpt lat="48.06546" lon="3.43082">
        <ele>171</ele>
        <time>2014-04-13T10:54:33Z</time>
      </trkpt>
      <trkpt lat="48.06544" lon="3.43093">
        <ele>176</ele>
        <time>2014-04-13T10:54:37Z</time>
      </trkpt>
      <trkpt lat="48.06541" lon="3.43103">
        <ele>177</ele>
        <time>2014-04-13T10:54:39Z</time>
      </trkpt>
      <trkpt lat="48.06535" lon="3.43124">
        <ele>183</ele>
        <time>2014-04-13T10:54:45Z</time>
      </trkpt>
      <trkpt lat="48.06529" lon="3.43147">
        <ele>186</ele>
        <time>2014-04-13T10:55:00Z</time>
      </trkpt>
      <trkpt lat="48.06528" lon="3.43148">
        <ele>194</ele>
        <time>2014-04-13T10:55:01Z</time>
      </trkpt>
      <trkpt lat="48.06523" lon="3.43166">
        <ele>194</ele>
        <time>2014-04-13T10:55:10Z</time>
      </trkpt>
      <trkpt lat="48.06517" lon="3.43184">
        <ele>192</ele>
        <time>2014-04-13T10:55:19Z</time>
      </trkpt>
      <trkpt lat="48.06515" lon="3.43187">
        <ele>198</ele>
        <time>2014-04-13T10:55:21Z</time>
      </trkpt>
      <trkpt lat="48.06513" lon="3.43194">
        <ele>197</ele>
        <time>2014-04-13T10:55:25Z</time>
      </trkpt>
      <trkpt lat="48.0651" lon="3.43202">
        <ele>200</ele>
        <time>2014-04-13T10:55:30Z</time>
      </trkpt>
      <trkpt lat="48.06507" lon="3.43207">
        <ele>200</ele>
        <time>2014-04-13T10:55:33Z</time>
      </trkpt>
      <trkpt lat="48.06506" lon="3.43211">
        <ele>199</ele>
        <time>2014-04-13T10:55:35Z</time>
      </trkpt>
      <trkpt lat="48.06505" lon="3.43214">
        <ele>199</ele>
        <time>2014-04-13T10:55:37Z</time>
      </trkpt>
      <trkpt lat="48.06488" lon="3.43267">
        <ele>204</ele>
        <time>2014-04-13T10:56:05Z</time>
      </trkpt>
      <trkpt lat="48.06487" lon="3.43271">
        <ele>203</ele>
        <time>2014-04-13T10:56:07Z</time>
      </trkpt>
      <trkpt lat="48.06486" lon="3.43274">
        <ele>203</ele>
        <time>2014-04-13T10:56:09Z</time>
      </trkpt>
      <trkpt lat="48.06484" lon="3.43284">
        <ele>202</ele>
        <time>2014-04-13T10:56:14Z</time>
      </trkpt>
      <trkpt lat="48.0648" lon="3.43299">
        <ele>204</ele>
        <time>2014-04-13T10:56:22Z</time>
      </trkpt>
      <trkpt lat="48.06479" lon="3.43303">
        <ele>205</ele>
        <time>2014-04-13T10:56:24Z</time>
      </trkpt>
      <trkpt lat="48.06477" lon="3.43307">
        <ele>204</ele>
        <time>2014-04-13T10:56:27Z</time>
      </trkpt>
      <trkpt lat="48.06475" lon="3.43312">
        <ele>203</ele>
        <time>2014-04-13T10:56:30Z</time>
      </trkpt>
      <trkpt lat="48.06466" lon="3.4334">
        <ele>207</ele>
        <time>2014-04-13T10:56:45Z</time>
      </trkpt>
      <trkpt lat="48.06465" lon="3.43343">
        <ele>208</ele>
        <time>2014-04-13T10:56:47Z</time>
      </trkpt>
      <trkpt lat="48.06463" lon="3.43349">
        <ele>207</ele>
        <time>2014-04-13T10:56:50Z</time>
      </trkpt>
      <trkpt lat="48.06456" lon="3.43365">
        <ele>211</ele>
        <time>2014-04-13T10:56:59Z</time>
      </trkpt>
      <trkpt lat="48.06455" lon="3.43368">
        <ele>211</ele>
        <time>2014-04-13T10:57:01Z</time>
      </trkpt>
      <trkpt lat="48.06453" lon="3.43373">
        <ele>213</ele>
        <time>2014-04-13T10:57:03Z</time>
      </trkpt>
      <trkpt lat="48.0645" lon="3.43386">
        <ele>207</ele>
        <time>2014-04-13T10:57:09Z</time>
      </trkpt>
      <trkpt lat="48.06445" lon="3.43396">
        <ele>212</ele>
        <time>2014-04-13T10:57:15Z</time>
      </trkpt>
      <trkpt lat="48.06435" lon="3.43421">
        <ele>210</ele>
        <time>2014-04-13T10:57:27Z</time>
      </trkpt>
      <trkpt lat="48.06431" lon="3.4343">
        <ele>215</ele>
        <time>2014-04-13T10:57:32Z</time>
      </trkpt>
      <trkpt lat="48.06419" lon="3.43449">
        <ele>210</ele>
        <time>2014-04-13T10:57:45Z</time>
      </trkpt>
      <trkpt lat="48.06414" lon="3.43455">
        <ele>208</ele>
        <time>2014-04-13T10:57:49Z</time>
      </trkpt>
      <trkpt lat="48.06404" lon="3.43469">
        <ele>212</ele>
        <time>2014-04-13T10:58:03Z</time>
      </trkpt>
      <trkpt lat="48.06401" lon="3.43475">
        <ele>210</ele>
        <time>2014-04-13T10:58:07Z</time>
      </trkpt>
      <trkpt lat="48.06377" lon="3.43518">
        <ele>203</ele>
        <time>2014-04-13T10:58:38Z</time>
      </trkpt>
      <trkpt lat="48.06375" lon="3.43525">
        <ele>200</ele>
        <time>2014-04-13T10:58:43Z</time>
      </trkpt>
      <trkpt lat="48.0637" lon="3.43532">
        <ele>201</ele>
        <time>2014-04-13T10:58:48Z</time>
      </trkpt>
      <trkpt lat="48.06359" lon="3.43554">
        <ele>207</ele>
        <time>2014-04-13T10:59:01Z</time>
      </trkpt>
      <trkpt lat="48.06352" lon="3.43563">
        <ele>204</ele>
        <time>2014-04-13T10:59:08Z</time>
      </trkpt>
      <trkpt lat="48.06348" lon="3.4357">
        <ele>207</ele>
        <time>2014-04-13T10:59:10Z</time>
      </trkpt>
      <trkpt lat="48.06341" lon="3.43582">
        <ele>214</ele>
        <time>2014-04-13T10:59:14Z</time>
      </trkpt>
      <trkpt lat="48.06334" lon="3.43586">
        <ele>213</ele>
        <time>2014-04-13T10:59:16Z</time>
      </trkpt>
      <trkpt lat="48.06331" lon="3.43587">
        <ele>214</ele>
        <time>2014-04-13T10:59:17Z</time>
      </trkpt>
      <trkpt lat="48.06327" lon="3.43589">
        <ele>212</ele>
        <time>2014-04-13T10:59:19Z</time>
      </trkpt>
      <trkpt lat="48.06319" lon="3.4359">
        <ele>212</ele>
        <time>2014-04-13T10:59:24Z</time>
      </trkpt>
      <trkpt lat="48.06317" lon="3.43589">
        <ele>211</ele>
        <time>2014-04-13T10:59:26Z</time>
      </trkpt>
      <trkpt lat="48.06305" lon="3.43587">
        <ele>212</ele>
        <time>2014-04-13T10:59:34Z</time>
      </trkpt>
      <trkpt lat="48.06286" lon="3.43581">
        <ele>212</ele>
        <time>2014-04-13T10:59:48Z</time>
      </trkpt>
      <trkpt lat="48.06283" lon="3.43579">
        <ele>212</ele>
        <time>2014-04-13T10:59:50Z</time>
      </trkpt>
      <trkpt lat="48.06273" lon="3.43574">
        <ele>215</ele>
        <time>2014-04-13T10:59:56Z</time>
      </trkpt>
      <trkpt lat="48.06265" lon="3.43568">
        <ele>219</ele>
        <time>2014-04-13T11:00:01Z</time>
      </trkpt>
      <trkpt lat="48.06256" lon="3.4356">
        <ele>218</ele>
        <time>2014-04-13T11:00:08Z</time>
      </trkpt>
      <trkpt lat="48.06247" lon="3.43551">
        <ele>214</ele>
        <time>2014-04-13T11:00:16Z</time>
      </trkpt>
      <trkpt lat="48.06241" lon="3.43544">
        <ele>216</ele>
        <time>2014-04-13T11:00:21Z</time>
      </trkpt>
      <trkpt lat="48.06237" lon="3.4354">
        <ele>214</ele>
        <time>2014-04-13T11:00:25Z</time>
      </trkpt>
      <trkpt lat="48.06235" lon="3.43538">
        <ele>211</ele>
        <time>2014-04-13T11:00:27Z</time>
      </trkpt>
      <trkpt lat="48.06232" lon="3.43535">
        <ele>209</ele>
        <time>2014-04-13T11:00:30Z</time>
      </trkpt>
      <trkpt lat="48.06229" lon="3.43534">
        <ele>214</ele>
        <time>2014-04-13T11:00:33Z</time>
      </trkpt>
      <trkpt lat="48.06226" lon="3.43534">
        <ele>214</ele>
        <time>2014-04-13T11:00:34Z</time>
      </trkpt>
      <trkpt lat="48.06222" lon="3.43536">
        <ele>211</ele>
        <time>2014-04-13T11:00:36Z</time>
      </trkpt>
      <trkpt lat="48.06219" lon="3.4354">
        <ele>210</ele>
        <time>2014-04-13T11:00:39Z</time>
      </trkpt>
      <trkpt lat="48.06217" lon="3.43543">
        <ele>214</ele>
        <time>2014-04-13T11:00:41Z</time>
      </trkpt>
      <trkpt lat="48.06215" lon="3.43546">
        <ele>213</ele>
        <time>2014-04-13T11:00:43Z</time>
      </trkpt>
      <trkpt lat="48.06195" lon="3.43567">
        <ele>220</ele>
        <time>2014-04-13T11:01:00Z</time>
      </trkpt>
      <trkpt lat="48.0619" lon="3.43569">
        <ele>214</ele>
        <time>2014-04-13T11:01:03Z</time>
      </trkpt>
      <trkpt lat="48.06184" lon="3.43573">
        <ele>212</ele>
        <time>2014-04-13T11:01:07Z</time>
      </trkpt>
      <trkpt lat="48.06166" lon="3.43586">
        <ele>213</ele>
        <time>2014-04-13T11:01:20Z</time>
      </trkpt>
      <trkpt lat="48.06161" lon="3.43591">
        <ele>213</ele>
        <time>2014-04-13T11:01:24Z</time>
      </trkpt>
      <trkpt lat="48.06155" lon="3.43594">
        <ele>211</ele>
        <time>2014-04-13T11:01:29Z</time>
      </trkpt>
      <trkpt lat="48.06148" lon="3.43596">
        <ele>214</ele>
        <time>2014-04-13T11:01:34Z</time>
      </trkpt>
      <trkpt lat="48.06142" lon="3.43593">
        <ele>213</ele>
        <time>2014-04-13T11:01:41Z</time>
      </trkpt>
      <trkpt lat="48.06139" lon="3.43595">
        <ele>213</ele>
        <time>2014-04-13T11:01:45Z</time>
      </trkpt>
      <trkpt lat="48.06136" lon="3.43598">
        <ele>216</ele>
        <time>2014-04-13T11:01:47Z</time>
      </trkpt>
      <trkpt lat="48.06134" lon="3.43601">
        <ele>216</ele>
        <time>2014-04-13T11:01:48Z</time>
      </trkpt>
      <trkpt lat="48.0613" lon="3.4361">
        <ele>217</ele>
        <time>2014-04-13T11:01:53Z</time>
      </trkpt>
      <trkpt lat="48.06128" lon="3.43618">
        <ele>215</ele>
        <time>2014-04-13T11:01:58Z</time>
      </trkpt>
      <trkpt lat="48.06124" lon="3.43625">
        <ele>214</ele>
        <time>2014-04-13T11:02:02Z</time>
      </trkpt>
      <trkpt lat="48.06122" lon="3.43633">
        <ele>217</ele>
        <time>2014-04-13T11:02:06Z</time>
      </trkpt>
      <trkpt lat="48.06119" lon="3.43645">
        <ele>218</ele>
        <time>2014-04-13T11:02:15Z</time>
      </trkpt>
      <trkpt lat="48.06117" lon="3.43654">
        <ele>216</ele>
        <time>2014-04-13T11:02:19Z</time>
      </trkpt>
      <trkpt lat="48.06113" lon="3.43669">
        <ele>213</ele>
        <time>2014-04-13T11:02:27Z</time>
      </trkpt>
      <trkpt lat="48.06111" lon="3.43681">
        <ele>212</ele>
        <time>2014-04-13T11:02:34Z</time>
      </trkpt>
      <trkpt lat="48.06109" lon="3.43688">
        <ele>212</ele>
        <time>2014-04-13T11:02:38Z</time>
      </trkpt>
      <trkpt lat="48.06108" lon="3.43697">
        <ele>211</ele>
        <time>2014-04-13T11:02:42Z</time>
      </trkpt>
      <trkpt lat="48.06105" lon="3.43713">
        <ele>214</ele>
        <time>2014-04-13T11:02:50Z</time>
      </trkpt>
      <trkpt lat="48.06107" lon="3.43722">
        <ele>215</ele>
        <time>2014-04-13T11:02:54Z</time>
      </trkpt>
      <trkpt lat="48.06106" lon="3.43732">
        <ele>220</ele>
        <time>2014-04-13T11:02:58Z</time>
      </trkpt>
      <trkpt lat="48.06106" lon="3.43741">
        <ele>214</ele>
        <time>2014-04-13T11:03:02Z</time>
      </trkpt>
      <trkpt lat="48.06107" lon="3.43749">
        <ele>218</ele>
        <time>2014-04-13T11:03:05Z</time>
      </trkpt>
      <trkpt lat="48.06107" lon="3.43758">
        <ele>222</ele>
        <time>2014-04-13T11:03:14Z</time>
      </trkpt>
      <trkpt lat="48.06109" lon="3.43766">
        <ele>223</ele>
        <time>2014-04-13T11:03:19Z</time>
      </trkpt>
      <trkpt lat="48.06112" lon="3.43775">
        <ele>227</ele>
        <time>2014-04-13T11:03:23Z</time>
      </trkpt>
      <trkpt lat="48.06116" lon="3.43782">
        <ele>222</ele>
        <time>2014-04-13T11:03:26Z</time>
      </trkpt>
      <trkpt lat="48.0612" lon="3.43788">
        <ele>221</ele>
        <time>2014-04-13T11:03:29Z</time>
      </trkpt>
      <trkpt lat="48.06123" lon="3.43794">
        <ele>217</ele>
        <time>2014-04-13T11:03:32Z</time>
      </trkpt>
      <trkpt lat="48.06126" lon="3.43801">
        <ele>215</ele>
        <time>2014-04-13T11:03:36Z</time>
      </trkpt>
      <trkpt lat="48.06127" lon="3.43809">
        <ele>217</ele>
        <time>2014-04-13T11:03:40Z</time>
      </trkpt>
      <trkpt lat="48.06127" lon="3.43813">
        <ele>222</ele>
        <time>2014-04-13T11:03:42Z</time>
      </trkpt>
      <trkpt lat="48.06129" lon="3.43818">
        <ele>224</ele>
        <time>2014-04-13T11:03:45Z</time>
      </trkpt>
      <trkpt lat="48.0613" lon="3.43821">
        <ele>223</ele>
        <time>2014-04-13T11:03:47Z</time>
      </trkpt>
      <trkpt lat="48.06132" lon="3.43826">
        <ele>220</ele>
        <time>2014-04-13T11:03:50Z</time>
      </trkpt>
      <trkpt lat="48.06134" lon="3.4383">
        <ele>217</ele>
        <time>2014-04-13T11:03:52Z</time>
      </trkpt>
      <trkpt lat="48.06135" lon="3.43834">
        <ele>223</ele>
        <time>2014-04-13T11:03:54Z</time>
      </trkpt>
      <trkpt lat="48.06136" lon="3.43837">
        <ele>222</ele>
        <time>2014-04-13T11:03:56Z</time>
      </trkpt>
      <trkpt lat="48.06142" lon="3.43848">
        <ele>218</ele>
        <time>2014-04-13T11:04:02Z</time>
      </trkpt>
      <trkpt lat="48.06145" lon="3.43858">
        <ele>220</ele>
        <time>2014-04-13T11:04:07Z</time>
      </trkpt>
      <trkpt lat="48.06151" lon="3.43874">
        <ele>218</ele>
        <time>2014-04-13T11:04:15Z</time>
      </trkpt>
      <trkpt lat="48.06152" lon="3.43878">
        <ele>218</ele>
        <time>2014-04-13T11:04:18Z</time>
      </trkpt>
      <trkpt lat="48.06153" lon="3.43882">
        <ele>215</ele>
        <time>2014-04-13T11:04:19Z</time>
      </trkpt>
      <trkpt lat="48.0616" lon="3.43901">
        <ele>218</ele>
        <time>2014-04-13T11:04:29Z</time>
      </trkpt>
      <trkpt lat="48.06161" lon="3.43904">
        <ele>216</ele>
        <time>2014-04-13T11:04:31Z</time>
      </trkpt>
      <trkpt lat="48.06164" lon="3.43912">
        <ele>214</ele>
        <time>2014-04-13T11:04:35Z</time>
      </trkpt>
      <trkpt lat="48.06168" lon="3.43919">
        <ele>212</ele>
        <time>2014-04-13T11:04:39Z</time>
      </trkpt>
      <trkpt lat="48.06169" lon="3.43922">
        <ele>212</ele>
        <time>2014-04-13T11:04:41Z</time>
      </trkpt>
      <trkpt lat="48.0617" lon="3.43927">
        <ele>215</ele>
        <time>2014-04-13T11:04:43Z</time>
      </trkpt>
      <trkpt lat="48.06176" lon="3.43941">
        <ele>214</ele>
        <time>2014-04-13T11:04:50Z</time>
      </trkpt>
      <trkpt lat="48.06181" lon="3.43953">
        <ele>217</ele>
        <time>2014-04-13T11:04:56Z</time>
      </trkpt>
      <trkpt lat="48.06183" lon="3.43958">
        <ele>220</ele>
        <time>2014-04-13T11:04:58Z</time>
      </trkpt>
      <trkpt lat="48.06187" lon="3.43967">
        <ele>215</ele>
        <time>2014-04-13T11:05:03Z</time>
      </trkpt>
      <trkpt lat="48.06198" lon="3.43995">
        <ele>217</ele>
        <time>2014-04-13T11:05:18Z</time>
      </trkpt>
      <trkpt lat="48.062" lon="3.44">
        <ele>213</ele>
        <time>2014-04-13T11:05:20Z</time>
      </trkpt>
      <trkpt lat="48.06206" lon="3.44028">
        <ele>212</ele>
        <time>2014-04-13T11:05:34Z</time>
      </trkpt>
      <trkpt lat="48.06208" lon="3.44036">
        <ele>213</ele>
        <time>2014-04-13T11:05:37Z</time>
      </trkpt>
      <trkpt lat="48.0621" lon="3.44049">
        <ele>215</ele>
        <time>2014-04-13T11:05:43Z</time>
      </trkpt>
      <trkpt lat="48.06211" lon="3.44055">
        <ele>214</ele>
        <time>2014-04-13T11:05:47Z</time>
      </trkpt>
      <trkpt lat="48.06211" lon="3.44059">
        <ele>214</ele>
        <time>2014-04-13T11:05:49Z</time>
      </trkpt>
      <trkpt lat="48.06212" lon="3.44065">
        <ele>208</ele>
        <time>2014-04-13T11:05:52Z</time>
      </trkpt>
      <trkpt lat="48.06213" lon="3.4407">
        <ele>207</ele>
        <time>2014-04-13T11:05:54Z</time>
      </trkpt>
      <trkpt lat="48.06215" lon="3.44073">
        <ele>205</ele>
        <time>2014-04-13T11:05:56Z</time>
      </trkpt>
      <trkpt lat="48.06216" lon="3.44077">
        <ele>209</ele>
        <time>2014-04-13T11:05:58Z</time>
      </trkpt>
      <trkpt lat="48.06217" lon="3.44082">
        <ele>213</ele>
        <time>2014-04-13T11:06:00Z</time>
      </trkpt>
      <trkpt lat="48.06218" lon="3.44086">
        <ele>212</ele>
        <time>2014-04-13T11:06:02Z</time>
      </trkpt>
      <trkpt lat="48.0622" lon="3.44094">
        <ele>214</ele>
        <time>2014-04-13T11:06:05Z</time>
      </trkpt>
      <trkpt lat="48.06225" lon="3.44113">
        <ele>213</ele>
        <time>2014-04-13T11:06:13Z</time>
      </trkpt>
      <trkpt lat="48.06226" lon="3.44118">
        <ele>211</ele>
        <time>2014-04-13T11:06:15Z</time>
      </trkpt>
      <trkpt lat="48.06227" lon="3.44122">
        <ele>212</ele>
        <time>2014-04-13T11:06:17Z</time>
      </trkpt>
      <trkpt lat="48.06229" lon="3.44131">
        <ele>213</ele>
        <time>2014-04-13T11:06:21Z</time>
      </trkpt>
      <trkpt lat="48.06231" lon="3.44139">
        <ele>209</ele>
        <time>2014-04-13T11:06:24Z</time>
      </trkpt>
      <trkpt lat="48.06233" lon="3.44147">
        <ele>211</ele>
        <time>2014-04-13T11:06:28Z</time>
      </trkpt>
      <trkpt lat="48.06237" lon="3.44155">
        <ele>211</ele>
        <time>2014-04-13T11:06:32Z</time>
      </trkpt>
      <trkpt lat="48.06239" lon="3.44164">
        <ele>214</ele>
        <time>2014-04-13T11:06:36Z</time>
      </trkpt>
      <trkpt lat="48.06241" lon="3.44173">
        <ele>218</ele>
        <time>2014-04-13T11:06:40Z</time>
      </trkpt>
      <trkpt lat="48.06244" lon="3.44182">
        <ele>213</ele>
        <time>2014-04-13T11:06:44Z</time>
      </trkpt>
      <trkpt lat="48.06247" lon="3.44191">
        <ele>213</ele>
        <time>2014-04-13T11:06:48Z</time>
      </trkpt>
      <trkpt lat="48.06251" lon="3.44197">
        <ele>216</ele>
        <time>2014-04-13T11:06:52Z</time>
      </trkpt>
      <trkpt lat="48.06261" lon="3.44211">
        <ele>221</ele>
        <time>2014-04-13T11:06:59Z</time>
      </trkpt>
      <trkpt lat="48.06266" lon="3.44215">
        <ele>220</ele>
        <time>2014-04-13T11:07:02Z</time>
      </trkpt>
      <trkpt lat="48.06271" lon="3.44222">
        <ele>215</ele>
        <time>2014-04-13T11:07:07Z</time>
      </trkpt>
      <trkpt lat="48.06274" lon="3.44228">
        <ele>215</ele>
        <time>2014-04-13T11:07:12Z</time>
      </trkpt>
      <trkpt lat="48.06279" lon="3.44231">
        <ele>217</ele>
        <time>2014-04-13T11:07:16Z</time>
      </trkpt>
      <trkpt lat="48.06285" lon="3.44234">
        <ele>221</ele>
        <time>2014-04-13T11:07:20Z</time>
      </trkpt>
      <trkpt lat="48.0629" lon="3.44235">
        <ele>221</ele>
        <time>2014-04-13T11:07:23Z</time>
      </trkpt>
      <trkpt lat="48.06293" lon="3.44236">
        <ele>221</ele>
        <time>2014-04-13T11:07:26Z</time>
      </trkpt>
      <trkpt lat="48.0631" lon="3.44238">
        <ele>223</ele>
        <time>2014-04-13T11:07:35Z</time>
      </trkpt>
      <trkpt lat="48.06316" lon="3.44238">
        <ele>220</ele>
        <time>2014-04-13T11:07:39Z</time>
      </trkpt>
      <trkpt lat="48.06321" lon="3.4424">
        <ele>218</ele>
        <time>2014-04-13T11:07:42Z</time>
      </trkpt>
      <trkpt lat="48.06327" lon="3.44241">
        <ele>219</ele>
        <time>2014-04-13T11:07:46Z</time>
      </trkpt>
      <trkpt lat="48.06336" lon="3.44243">
        <ele>218</ele>
        <time>2014-04-13T11:07:52Z</time>
      </trkpt>
      <trkpt lat="48.06344" lon="3.44244">
        <ele>222</ele>
        <time>2014-04-13T11:07:57Z</time>
      </trkpt>
      <trkpt lat="48.06349" lon="3.44246">
        <ele>221</ele>
        <time>2014-04-13T11:08:00Z</time>
      </trkpt>
      <trkpt lat="48.06368" lon="3.44252">
        <ele>220</ele>
        <time>2014-04-13T11:08:13Z</time>
      </trkpt>
      <trkpt lat="48.06373" lon="3.44255">
        <ele>220</ele>
        <time>2014-04-13T11:08:17Z</time>
      </trkpt>
      <trkpt lat="48.06384" lon="3.44259">
        <ele>217</ele>
        <time>2014-04-13T11:08:26Z</time>
      </trkpt>
      <trkpt lat="48.06389" lon="3.4426">
        <ele>214</ele>
        <time>2014-04-13T11:08:29Z</time>
      </trkpt>
      <trkpt lat="48.06394" lon="3.44259">
        <ele>219</ele>
        <time>2014-04-13T11:08:32Z</time>
      </trkpt>
      <trkpt lat="48.06399" lon="3.44262">
        <ele>217</ele>
        <time>2014-04-13T11:08:36Z</time>
      </trkpt>
      <trkpt lat="48.06417" lon="3.44271">
        <ele>222</ele>
        <time>2014-04-13T11:08:47Z</time>
      </trkpt>
      <trkpt lat="48.06422" lon="3.44271">
        <ele>223</ele>
        <time>2014-04-13T11:08:51Z</time>
      </trkpt>
      <trkpt lat="48.06428" lon="3.44271">
        <ele>222</ele>
        <time>2014-04-13T11:08:54Z</time>
      </trkpt>
      <trkpt lat="48.06443" lon="3.44272">
        <ele>225</ele>
        <time>2014-04-13T11:09:07Z</time>
      </trkpt>
      <trkpt lat="48.06449" lon="3.44274">
        <ele>228</ele>
        <time>2014-04-13T11:09:11Z</time>
      </trkpt>
      <trkpt lat="48.06455" lon="3.44276">
        <ele>224</ele>
        <time>2014-04-13T11:09:14Z</time>
      </trkpt>
      <trkpt lat="48.06461" lon="3.44275">
        <ele>221</ele>
        <time>2014-04-13T11:09:18Z</time>
      </trkpt>
      <trkpt lat="48.06467" lon="3.44275">
        <ele>217</ele>
        <time>2014-04-13T11:09:22Z</time>
      </trkpt>
      <trkpt lat="48.06508" lon="3.4428">
        <ele>213</ele>
        <time>2014-04-13T11:09:46Z</time>
      </trkpt>
      <trkpt lat="48.06514" lon="3.44281">
        <ele>213</ele>
        <time>2014-04-13T11:09:50Z</time>
      </trkpt>
      <trkpt lat="48.06521" lon="3.44282">
        <ele>215</ele>
        <time>2014-04-13T11:09:55Z</time>
      </trkpt>
      <trkpt lat="48.06595" lon="3.44289">
        <ele>211</ele>
        <time>2014-04-13T11:10:41Z</time>
      </trkpt>
      <trkpt lat="48.06624" lon="3.44293">
        <ele>218</ele>
        <time>2014-04-13T11:11:00Z</time>
      </trkpt>
      <trkpt lat="48.06631" lon="3.44291">
        <ele>218</ele>
        <time>2014-04-13T11:11:04Z</time>
      </trkpt>
      <trkpt lat="48.06636" lon="3.44291">
        <ele>221</ele>
        <time>2014-04-13T11:11:07Z</time>
      </trkpt>
      <trkpt lat="48.06651" lon="3.44292">
        <ele>213</ele>
        <time>2014-04-13T11:11:17Z</time>
      </trkpt>
      <trkpt lat="48.06656" lon="3.44293">
        <ele>216</ele>
        <time>2014-04-13T11:11:20Z</time>
      </trkpt>
      <trkpt lat="48.06665" lon="3.44294">
        <ele>205</ele>
        <time>2014-04-13T11:11:26Z</time>
      </trkpt>
      <trkpt lat="48.06671" lon="3.44294">
        <ele>202</ele>
        <time>2014-04-13T11:11:29Z</time>
      </trkpt>
      <trkpt lat="48.06713" lon="3.44294">
        <ele>204</ele>
        <time>2014-04-13T11:11:58Z</time>
      </trkpt>
      <trkpt lat="48.06722" lon="3.44296">
        <ele>201</ele>
        <time>2014-04-13T11:12:03Z</time>
      </trkpt>
      <trkpt lat="48.06734" lon="3.443">
        <ele>200</ele>
        <time>2014-04-13T11:12:11Z</time>
      </trkpt>
      <trkpt lat="48.0674" lon="3.44303">
        <ele>202</ele>
        <time>2014-04-13T11:12:15Z</time>
      </trkpt>
      <trkpt lat="48.06746" lon="3.44305">
        <ele>202</ele>
        <time>2014-04-13T11:12:19Z</time>
      </trkpt>
      <trkpt lat="48.06765" lon="3.44313">
        <ele>206</ele>
        <time>2014-04-13T11:12:32Z</time>
      </trkpt>
      <trkpt lat="48.06771" lon="3.4432">
        <ele>208</ele>
        <time>2014-04-13T11:12:37Z</time>
      </trkpt>
      <trkpt lat="48.06774" lon="3.44328">
        <ele>208</ele>
        <time>2014-04-13T11:12:42Z</time>
      </trkpt>
      <trkpt lat="48.06778" lon="3.44333">
        <ele>207</ele>
        <time>2014-04-13T11:12:47Z</time>
      </trkpt>
      <trkpt lat="48.06782" lon="3.44339">
        <ele>206</ele>
        <time>2014-04-13T11:12:51Z</time>
      </trkpt>
      <trkpt lat="48.06787" lon="3.4435">
        <ele>213</ele>
        <time>2014-04-13T11:12:59Z</time>
      </trkpt>
      <trkpt lat="48.06791" lon="3.44358">
        <ele>210</ele>
        <time>2014-04-13T11:13:05Z</time>
      </trkpt>
      <trkpt lat="48.06802" lon="3.4438">
        <ele>202</ele>
        <time>2014-04-13T11:13:17Z</time>
      </trkpt>
      <trkpt lat="48.06816" lon="3.44398">
        <ele>203</ele>
        <time>2014-04-13T11:13:30Z</time>
      </trkpt>
      <trkpt lat="48.06822" lon="3.44399">
        <ele>203</ele>
        <time>2014-04-13T11:13:34Z</time>
      </trkpt>
      <trkpt lat="48.06826" lon="3.44404">
        <ele>205</ele>
        <time>2014-04-13T11:13:40Z</time>
      </trkpt>
      <trkpt lat="48.06832" lon="3.44405">
        <ele>206</ele>
        <time>2014-04-13T11:13:45Z</time>
      </trkpt>
      <trkpt lat="48.06838" lon="3.44408">
        <ele>213</ele>
        <time>2014-04-13T11:13:49Z</time>
      </trkpt>
      <trkpt lat="48.06852" lon="3.44414">
        <ele>207</ele>
        <time>2014-04-13T11:13:59Z</time>
      </trkpt>
      <trkpt lat="48.06856" lon="3.44412">
        <ele>205</ele>
        <time>2014-04-13T11:14:05Z</time>
      </trkpt>
      <trkpt lat="48.06862" lon="3.44411">
        <ele>207</ele>
        <time>2014-04-13T11:14:10Z</time>
      </trkpt>
      <trkpt lat="48.0687" lon="3.44412">
        <ele>199</ele>
        <time>2014-04-13T11:14:25Z</time>
      </trkpt>
      <trkpt lat="48.06876" lon="3.44419">
        <ele>200</ele>
        <time>2014-04-13T11:14:31Z</time>
      </trkpt>
      <trkpt lat="48.06879" lon="3.44425">
        <ele>201</ele>
        <time>2014-04-13T11:15:07Z</time>
      </trkpt>
      <trkpt lat="48.06883" lon="3.44429">
        <ele>200</ele>
        <time>2014-04-13T11:15:12Z</time>
      </trkpt>
      <trkpt lat="48.0689" lon="3.4443">
        <ele>196</ele>
        <time>2014-04-13T11:15:23Z</time>
      </trkpt>
      <trkpt lat="48.06897" lon="3.44434">
        <ele>202</ele>
        <time>2014-04-13T11:15:26Z</time>
      </trkpt>
      <trkpt lat="48.06903" lon="3.44439">
        <ele>202</ele>
        <time>2014-04-13T11:15:30Z</time>
      </trkpt>
      <trkpt lat="48.06912" lon="3.44444">
        <ele>202</ele>
        <time>2014-04-13T11:15:37Z</time>
      </trkpt>
      <trkpt lat="48.06917" lon="3.44445">
        <ele>201</ele>
        <time>2014-04-13T11:15:41Z</time>
      </trkpt>
      <trkpt lat="48.06923" lon="3.44447">
        <ele>198</ele>
        <time>2014-04-13T11:15:47Z</time>
      </trkpt>
      <trkpt lat="48.0693" lon="3.44451">
        <ele>202</ele>
        <time>2014-04-13T11:15:51Z</time>
      </trkpt>
      <trkpt lat="48.0696" lon="3.44468">
        <ele>199</ele>
        <time>2014-04-13T11:16:14Z</time>
      </trkpt>
      <trkpt lat="48.06962" lon="3.4447">
        <ele>199</ele>
        <time>2014-04-13T11:16:16Z</time>
      </trkpt>
      <trkpt lat="48.06966" lon="3.44472">
        <ele>200</ele>
        <time>2014-04-13T11:16:18Z</time>
      </trkpt>
      <trkpt lat="48.06984" lon="3.44483">
        <ele>199</ele>
        <time>2014-04-13T11:16:32Z</time>
      </trkpt>
      <trkpt lat="48.06989" lon="3.44487">
        <ele>201</ele>
        <time>2014-04-13T11:16:36Z</time>
      </trkpt>
      <trkpt lat="48.06992" lon="3.44488">
        <ele>203</ele>
        <time>2014-04-13T11:16:39Z</time>
      </trkpt>
      <trkpt lat="48.06997" lon="3.44489">
        <ele>201</ele>
        <time>2014-04-13T11:16:41Z</time>
      </trkpt>
      <trkpt lat="48.07003" lon="3.44492">
        <ele>200</ele>
        <time>2014-04-13T11:16:45Z</time>
      </trkpt>
      <trkpt lat="48.07007" lon="3.44494">
        <ele>200</ele>
        <time>2014-04-13T11:16:48Z</time>
      </trkpt>
      <trkpt lat="48.07009" lon="3.44495">
        <ele>202</ele>
        <time>2014-04-13T11:16:50Z</time>
      </trkpt>
      <trkpt lat="48.07015" lon="3.44498">
        <ele>201</ele>
        <time>2014-04-13T11:16:54Z</time>
      </trkpt>
      <trkpt lat="48.07051" lon="3.44517">
        <ele>197</ele>
        <time>2014-04-13T11:17:19Z</time>
      </trkpt>
      <trkpt lat="48.07064" lon="3.44528">
        <ele>198</ele>
        <time>2014-04-13T11:17:30Z</time>
      </trkpt>
      <trkpt lat="48.07069" lon="3.44533">
        <ele>194</ele>
        <time>2014-04-13T11:17:35Z</time>
      </trkpt>
      <trkpt lat="48.0707" lon="3.44534">
        <ele>194</ele>
        <time>2014-04-13T11:17:36Z</time>
      </trkpt>
      <trkpt lat="48.07072" lon="3.44535">
        <ele>196</ele>
        <time>2014-04-13T11:17:38Z</time>
      </trkpt>
      <trkpt lat="48.07075" lon="3.44536">
        <ele>195</ele>
        <time>2014-04-13T11:17:40Z</time>
      </trkpt>
      <trkpt lat="48.07077" lon="3.44539">
        <ele>196</ele>
        <time>2014-04-13T11:17:42Z</time>
      </trkpt>
      <trkpt lat="48.07079" lon="3.4454">
        <ele>196</ele>
        <time>2014-04-13T11:17:44Z</time>
      </trkpt>
      <trkpt lat="48.07092" lon="3.44548">
        <ele>196</ele>
        <time>2014-04-13T11:17:56Z</time>
      </trkpt>
      <trkpt lat="48.071" lon="3.44554">
        <ele>195</ele>
        <time>2014-04-13T11:18:01Z</time>
      </trkpt>
      <trkpt lat="48.07113" lon="3.44566">
        <ele>193</ele>
        <time>2014-04-13T11:18:12Z</time>
      </trkpt>
      <trkpt lat="48.07118" lon="3.44571">
        <ele>194</ele>
        <time>2014-04-13T11:18:18Z</time>
      </trkpt>
      <trkpt lat="48.07127" lon="3.44579">
        <ele>196</ele>
        <time>2014-04-13T11:18:25Z</time>
      </trkpt>
      <trkpt lat="48.07145" lon="3.44593">
        <ele>194</ele>
        <time>2014-04-13T11:18:36Z</time>
      </trkpt>
      <trkpt lat="48.07149" lon="3.44599">
        <ele>195</ele>
        <time>2014-04-13T11:18:39Z</time>
      </trkpt>
      <trkpt lat="48.07154" lon="3.44603">
        <ele>195</ele>
        <time>2014-04-13T11:18:43Z</time>
      </trkpt>
      <trkpt lat="48.07171" lon="3.44616">
        <ele>191</ele>
        <time>2014-04-13T11:18:55Z</time>
      </trkpt>
      <trkpt lat="48.07175" lon="3.44621">
        <ele>194</ele>
        <time>2014-04-13T11:18:58Z</time>
      </trkpt>
      <trkpt lat="48.07183" lon="3.4463">
        <ele>194</ele>
        <time>2014-04-13T11:19:05Z</time>
      </trkpt>
      <trkpt lat="48.07186" lon="3.44635">
        <ele>192</ele>
        <time>2014-04-13T11:19:08Z</time>
      </trkpt>
      <trkpt lat="48.0719" lon="3.44641">
        <ele>192</ele>
        <time>2014-04-13T11:19:12Z</time>
      </trkpt>
      <trkpt lat="48.07201" lon="3.4465">
        <ele>182</ele>
        <time>2014-04-13T11:19:28Z</time>
      </trkpt>
      <trkpt lat="48.07213" lon="3.44656">
        <ele>171</ele>
        <time>2014-04-13T11:19:53Z</time>
      </trkpt>
      <trkpt lat="48.07211" lon="3.44649">
        <ele>178</ele>
        <time>2014-04-13T11:20:06Z</time>
      </trkpt>
      <trkpt lat="48.07207" lon="3.44645">
        <ele>175</ele>
        <time>2014-04-13T11:20:17Z</time>
      </trkpt>
      <trkpt lat="48.07208" lon="3.44636">
        <ele>185</ele>
        <time>2014-04-13T11:20:26Z</time>
      </trkpt>
      <trkpt lat="48.07208" lon="3.44627">
        <ele>187</ele>
        <time>2014-04-13T11:20:32Z</time>
      </trkpt>
      <trkpt lat="48.07207" lon="3.44619">
        <ele>182</ele>
        <time>2014-04-13T11:20:35Z</time>
      </trkpt>
      <trkpt lat="48.07204" lon="3.44611">
        <ele>184</ele>
        <time>2014-04-13T11:20:39Z</time>
      </trkpt>
      <trkpt lat="48.07205" lon="3.44602">
        <ele>179</ele>
        <time>2014-04-13T11:20:44Z</time>
      </trkpt>
      <trkpt lat="48.07206" lon="3.44595">
        <ele>179</ele>
        <time>2014-04-13T11:20:48Z</time>
      </trkpt>
      <trkpt lat="48.07205" lon="3.44587">
        <ele>170</ele>
        <time>2014-04-13T11:20:53Z</time>
      </trkpt>
      <trkpt lat="48.07205" lon="3.44578">
        <ele>173</ele>
        <time>2014-04-13T11:20:57Z</time>
      </trkpt>
      <trkpt lat="48.07206" lon="3.44568">
        <ele>181</ele>
        <time>2014-04-13T11:21:02Z</time>
      </trkpt>
      <trkpt lat="48.07206" lon="3.44557">
        <ele>179</ele>
        <time>2014-04-13T11:21:09Z</time>
      </trkpt>
      <trkpt lat="48.07205" lon="3.44548">
        <ele>185</ele>
        <time>2014-04-13T11:21:14Z</time>
      </trkpt>
      <trkpt lat="48.07203" lon="3.44539">
        <ele>184</ele>
        <time>2014-04-13T11:21:19Z</time>
      </trkpt>
      <trkpt lat="48.072" lon="3.4453">
        <ele>184</ele>
        <time>2014-04-13T11:21:22Z</time>
      </trkpt>
      <trkpt lat="48.072" lon="3.44521">
        <ele>184</ele>
        <time>2014-04-13T11:21:25Z</time>
      </trkpt>
      <trkpt lat="48.07202" lon="3.44514">
        <ele>183</ele>
        <time>2014-04-13T11:21:29Z</time>
      </trkpt>
      <trkpt lat="48.07202" lon="3.44505">
        <ele>179</ele>
        <time>2014-04-13T11:21:34Z</time>
      </trkpt>
      <trkpt lat="48.07203" lon="3.44496">
        <ele>177</ele>
        <time>2014-04-13T11:21:38Z</time>
      </trkpt>
      <trkpt lat="48.07204" lon="3.44488">
        <ele>177</ele>
        <time>2014-04-13T11:21:42Z</time>
      </trkpt>
      <trkpt lat="48.07204" lon="3.44476">
        <ele>184</ele>
        <time>2014-04-13T11:21:47Z</time>
      </trkpt>
      <trkpt lat="48.07202" lon="3.44467">
        <ele>183</ele>
        <time>2014-04-13T11:21:50Z</time>
      </trkpt>
      <trkpt lat="48.07201" lon="3.44451">
        <ele>186</ele>
        <time>2014-04-13T11:21:57Z</time>
      </trkpt>
      <trkpt lat="48.07202" lon="3.44443">
        <ele>181</ele>
        <time>2014-04-13T11:22:02Z</time>
      </trkpt>
      <trkpt lat="48.07206" lon="3.4443">
        <ele>169</ele>
        <time>2014-04-13T11:22:11Z</time>
      </trkpt>
      <trkpt lat="48.07212" lon="3.44425">
        <ele>166</ele>
        <time>2014-04-13T11:22:16Z</time>
      </trkpt>
      <trkpt lat="48.0722" lon="3.44415">
        <ele>170</ele>
        <time>2014-04-13T11:22:27Z</time>
      </trkpt>
      <trkpt lat="48.07229" lon="3.44405">
        <ele>171</ele>
        <time>2014-04-13T11:22:37Z</time>
      </trkpt>
      <trkpt lat="48.07243" lon="3.44386">
        <ele>168</ele>
        <time>2014-04-13T11:22:54Z</time>
      </trkpt>
      <trkpt lat="48.07243" lon="3.44377">
        <ele>166</ele>
        <time>2014-04-13T11:23:00Z</time>
      </trkpt>
      <trkpt lat="48.07241" lon="3.44369">
        <ele>167</ele>
        <time>2014-04-13T11:23:04Z</time>
      </trkpt>
      <trkpt lat="48.07238" lon="3.4436">
        <ele>171</ele>
        <time>2014-04-13T11:23:08Z</time>
      </trkpt>
      <trkpt lat="48.0724" lon="3.4435">
        <ele>169</ele>
        <time>2014-04-13T11:23:13Z</time>
      </trkpt>
      <trkpt lat="48.07239" lon="3.44339">
        <ele>167</ele>
        <time>2014-04-13T11:23:18Z</time>
      </trkpt>
      <trkpt lat="48.0724" lon="3.44319">
        <ele>165</ele>
        <time>2014-04-13T11:23:28Z</time>
      </trkpt>
      <trkpt lat="48.0724" lon="3.44309">
        <ele>165</ele>
        <time>2014-04-13T11:23:34Z</time>
      </trkpt>
      <trkpt lat="48.07236" lon="3.443">
        <ele>169</ele>
        <time>2014-04-13T11:23:38Z</time>
      </trkpt>
      <trkpt lat="48.07236" lon="3.44293">
        <ele>162</ele>
        <time>2014-04-13T11:23:42Z</time>
      </trkpt>
      <trkpt lat="48.07234" lon="3.44283">
        <ele>164</ele>
        <time>2014-04-13T11:23:46Z</time>
      </trkpt>
      <trkpt lat="48.07234" lon="3.44274">
        <ele>164</ele>
        <time>2014-04-13T11:23:50Z</time>
      </trkpt>
      <trkpt lat="48.07233" lon="3.44262">
        <ele>159</ele>
        <time>2014-04-13T11:23:55Z</time>
      </trkpt>
      <trkpt lat="48.07233" lon="3.44247">
        <ele>160</ele>
        <time>2014-04-13T11:24:03Z</time>
      </trkpt>
      <trkpt lat="48.07234" lon="3.44239">
        <ele>155</ele>
        <time>2014-04-13T11:24:06Z</time>
      </trkpt>
      <trkpt lat="48.07236" lon="3.44211">
        <ele>152</ele>
        <time>2014-04-13T11:24:18Z</time>
      </trkpt>
      <trkpt lat="48.07236" lon="3.44202">
        <ele>154</ele>
        <time>2014-04-13T11:24:22Z</time>
      </trkpt>
      <trkpt lat="48.07235" lon="3.44187">
        <ele>154</ele>
        <time>2014-04-13T11:24:27Z</time>
      </trkpt>
      <trkpt lat="48.07236" lon="3.44176">
        <ele>157</ele>
        <time>2014-04-13T11:24:32Z</time>
      </trkpt>
      <trkpt lat="48.07238" lon="3.44168">
        <ele>157</ele>
        <time>2014-04-13T11:24:37Z</time>
      </trkpt>
      <trkpt lat="48.0724" lon="3.44157">
        <ele>157</ele>
        <time>2014-04-13T11:24:43Z</time>
      </trkpt>
      <trkpt lat="48.07246" lon="3.4413">
        <ele>149</ele>
        <time>2014-04-13T11:24:56Z</time>
      </trkpt>
      <trkpt lat="48.07249" lon="3.44123">
        <ele>154</ele>
        <time>2014-04-13T11:25:00Z</time>
      </trkpt>
      <trkpt lat="48.0725" lon="3.44116">
        <ele>153</ele>
        <time>2014-04-13T11:25:04Z</time>
      </trkpt>
      <trkpt lat="48.07254" lon="3.44102">
        <ele>142</ele>
        <time>2014-04-13T11:25:12Z</time>
      </trkpt>
      <trkpt lat="48.07262" lon="3.44079">
        <ele>141</ele>
        <time>2014-04-13T11:25:26Z</time>
      </trkpt>
      <trkpt lat="48.07264" lon="3.44072">
        <ele>135</ele>
        <time>2014-04-13T11:25:30Z</time>
      </trkpt>
      <trkpt lat="48.07268" lon="3.44065">
        <ele>137</ele>
        <time>2014-04-13T11:25:35Z</time>
      </trkpt>
      <trkpt lat="48.07271" lon="3.44059">
        <ele>140</ele>
        <time>2014-04-13T11:25:39Z</time>
      </trkpt>
      <trkpt lat="48.07276" lon="3.44053">
        <ele>136</ele>
        <time>2014-04-13T11:25:43Z</time>
      </trkpt>
      <trkpt lat="48.0728" lon="3.44044">
        <ele>135</ele>
        <time>2014-04-13T11:25:47Z</time>
      </trkpt>
      <trkpt lat="48.07284" lon="3.44036">
        <ele>141</ele>
        <time>2014-04-13T11:25:52Z</time>
      </trkpt>
      <trkpt lat="48.07289" lon="3.44033">
        <ele>145</ele>
        <time>2014-04-13T11:25:56Z</time>
      </trkpt>
      <trkpt lat="48.07292" lon="3.44027">
        <ele>150</ele>
        <time>2014-04-13T11:26:00Z</time>
      </trkpt>
      <trkpt lat="48.07296" lon="3.44022">
        <ele>142</ele>
        <time>2014-04-13T11:26:03Z</time>
      </trkpt>
      <trkpt lat="48.07301" lon="3.44016">
        <ele>137</ele>
        <time>2014-04-13T11:26:08Z</time>
      </trkpt>
      <trkpt lat="48.07312" lon="3.43995">
        <ele>143</ele>
        <time>2014-04-13T11:26:20Z</time>
      </trkpt>
      <trkpt lat="48.07314" lon="3.43987">
        <ele>143</ele>
        <time>2014-04-13T11:26:24Z</time>
      </trkpt>
      <trkpt lat="48.07314" lon="3.43978">
        <ele>142</ele>
        <time>2014-04-13T11:26:29Z</time>
      </trkpt>
      <trkpt lat="48.07312" lon="3.43969">
        <ele>146</ele>
        <time>2014-04-13T11:26:34Z</time>
      </trkpt>
      <trkpt lat="48.07311" lon="3.43956">
        <ele>143</ele>
        <time>2014-04-13T11:26:41Z</time>
      </trkpt>
      <trkpt lat="48.07314" lon="3.43949">
        <ele>144</ele>
        <time>2014-04-13T11:26:44Z</time>
      </trkpt>
      <trkpt lat="48.07314" lon="3.43939">
        <ele>143</ele>
        <time>2014-04-13T11:26:57Z</time>
      </trkpt>
      <trkpt lat="48.07313" lon="3.43931">
        <ele>145</ele>
        <time>2014-04-13T11:27:01Z</time>
      </trkpt>
      <trkpt lat="48.07315" lon="3.43922">
        <ele>144</ele>
        <time>2014-04-13T11:27:05Z</time>
      </trkpt>
      <trkpt lat="48.07315" lon="3.43913">
        <ele>142</ele>
        <time>2014-04-13T11:27:09Z</time>
      </trkpt>
      <trkpt lat="48.07318" lon="3.43894">
        <ele>141</ele>
        <time>2014-04-13T11:27:20Z</time>
      </trkpt>
      <trkpt lat="48.07319" lon="3.43884">
        <ele>134</ele>
        <time>2014-04-13T11:27:25Z</time>
      </trkpt>
      <trkpt lat="48.07322" lon="3.43855">
        <ele>138</ele>
        <time>2014-04-13T11:27:38Z</time>
      </trkpt>
      <trkpt lat="48.07322" lon="3.43843">
        <ele>136</ele>
        <time>2014-04-13T11:27:43Z</time>
      </trkpt>
      <trkpt lat="48.07321" lon="3.43834">
        <ele>133</ele>
        <time>2014-04-13T11:27:48Z</time>
      </trkpt>
      <trkpt lat="48.07322" lon="3.43827">
        <ele>134</ele>
        <time>2014-04-13T11:27:55Z</time>
      </trkpt>
      <trkpt lat="48.07327" lon="3.43822">
        <ele>141</ele>
        <time>2014-04-13T11:28:02Z</time>
      </trkpt>
      <trkpt lat="48.0733" lon="3.43822">
        <ele>143</ele>
        <time>2014-04-13T11:28:04Z</time>
      </trkpt>
      <trkpt lat="48.07333" lon="3.43824">
        <ele>143</ele>
        <time>2014-04-13T11:28:07Z</time>
      </trkpt>
      <trkpt lat="48.07338" lon="3.43828">
        <ele>141</ele>
        <time>2014-04-13T11:28:12Z</time>
      </trkpt>
      <trkpt lat="48.0734" lon="3.43831">
        <ele>141</ele>
        <time>2014-04-13T11:28:14Z</time>
      </trkpt>
      <trkpt lat="48.07342" lon="3.43832">
        <ele>140</ele>
        <time>2014-04-13T11:28:16Z</time>
      </trkpt>
      <trkpt lat="48.07347" lon="3.43837">
        <ele>139</ele>
        <time>2014-04-13T11:28:21Z</time>
      </trkpt>
      <trkpt lat="48.07354" lon="3.43845">
        <ele>143</ele>
        <time>2014-04-13T11:28:29Z</time>
      </trkpt>
      <trkpt lat="48.07357" lon="3.43849">
        <ele>144</ele>
        <time>2014-04-13T11:28:32Z</time>
      </trkpt>
      <trkpt lat="48.07362" lon="3.43853">
        <ele>144</ele>
        <time>2014-04-13T11:28:37Z</time>
      </trkpt>
      <trkpt lat="48.07364" lon="3.43854">
        <ele>144</ele>
        <time>2014-04-13T11:28:38Z</time>
      </trkpt>
      <trkpt lat="48.07366" lon="3.43855">
        <ele>142</ele>
        <time>2014-04-13T11:28:40Z</time>
      </trkpt>
      <trkpt lat="48.07376" lon="3.43858">
        <ele>140</ele>
        <time>2014-04-13T11:28:47Z</time>
      </trkpt>
      <trkpt lat="48.07378" lon="3.43859">
        <ele>140</ele>
        <time>2014-04-13T11:28:49Z</time>
      </trkpt>
      <trkpt lat="48.07384" lon="3.4386">
        <ele>135</ele>
        <time>2014-04-13T11:28:53Z</time>
      </trkpt>
      <trkpt lat="48.07393" lon="3.43863">
        <ele>140</ele>
        <time>2014-04-13T11:29:00Z</time>
      </trkpt>
      <trkpt lat="48.07396" lon="3.43864">
        <ele>138</ele>
        <time>2014-04-13T11:29:02Z</time>
      </trkpt>
      <trkpt lat="48.07399" lon="3.43863">
        <ele>139</ele>
        <time>2014-04-13T11:29:05Z</time>
      </trkpt>
      <trkpt lat="48.07402" lon="3.43863">
        <ele>139</ele>
        <time>2014-04-13T11:29:12Z</time>
      </trkpt>
      <trkpt lat="48.074" lon="3.43864">
        <ele>142</ele>
        <time>2014-04-13T11:29:17Z</time>
      </trkpt>
      <trkpt lat="48.074" lon="3.4386">
        <ele>147</ele>
        <time>2014-04-13T11:29:37Z</time>
      </trkpt>
      <trkpt lat="48.07401" lon="3.43851">
        <ele>146</ele>
        <time>2014-04-13T11:29:43Z</time>
      </trkpt>
      <trkpt lat="48.07405" lon="3.43846">
        <ele>146</ele>
        <time>2014-04-13T11:29:49Z</time>
      </trkpt>
      <trkpt lat="48.0741" lon="3.43844">
        <ele>146</ele>
        <time>2014-04-13T11:29:52Z</time>
      </trkpt>
      <trkpt lat="48.07413" lon="3.43842">
        <ele>145</ele>
        <time>2014-04-13T11:29:54Z</time>
      </trkpt>
      <trkpt lat="48.07417" lon="3.43837">
        <ele>144</ele>
        <time>2014-04-13T11:30:00Z</time>
      </trkpt>
      <trkpt lat="48.07418" lon="3.43834">
        <ele>141</ele>
        <time>2014-04-13T11:30:01Z</time>
      </trkpt>
      <trkpt lat="48.07419" lon="3.4383">
        <ele>139</ele>
        <time>2014-04-13T11:30:03Z</time>
      </trkpt>
      <trkpt lat="48.07421" lon="3.43822">
        <ele>137</ele>
        <time>2014-04-13T11:30:08Z</time>
      </trkpt>
      <trkpt lat="48.07422" lon="3.43814">
        <ele>142</ele>
        <time>2014-04-13T11:30:12Z</time>
      </trkpt>
      <trkpt lat="48.07422" lon="3.43806">
        <ele>139</ele>
        <time>2014-04-13T11:30:18Z</time>
      </trkpt>
      <trkpt lat="48.07424" lon="3.43799">
        <ele>138</ele>
        <time>2014-04-13T11:30:22Z</time>
      </trkpt>
      <trkpt lat="48.07428" lon="3.43791">
        <ele>136</ele>
        <time>2014-04-13T11:30:28Z</time>
      </trkpt>
      <trkpt lat="48.07427" lon="3.43784">
        <ele>137</ele>
        <time>2014-04-13T11:30:32Z</time>
      </trkpt>
      <trkpt lat="48.07428" lon="3.43771">
        <ele>139</ele>
        <time>2014-04-13T11:30:39Z</time>
      </trkpt>
      <trkpt lat="48.07429" lon="3.43762">
        <ele>136</ele>
        <time>2014-04-13T11:30:44Z</time>
      </trkpt>
      <trkpt lat="48.07427" lon="3.43754">
        <ele>140</ele>
        <time>2014-04-13T11:30:50Z</time>
      </trkpt>
      <trkpt lat="48.07423" lon="3.43752">
        <ele>142</ele>
        <time>2014-04-13T11:30:53Z</time>
      </trkpt>
      <trkpt lat="48.07422" lon="3.43752">
        <ele>145</ele>
        <time>2014-04-13T11:30:54Z</time>
      </trkpt>
      <trkpt lat="48.07416" lon="3.43748">
        <ele>145</ele>
        <time>2014-04-13T11:31:01Z</time>
      </trkpt>
      <trkpt lat="48.07414" lon="3.43747">
        <ele>146</ele>
        <time>2014-04-13T11:31:04Z</time>
      </trkpt>
      <trkpt lat="48.07411" lon="3.43743">
        <ele>141</ele>
        <time>2014-04-13T11:31:15Z</time>
      </trkpt>
      <trkpt lat="48.07416" lon="3.4374">
        <ele>141</ele>
        <time>2014-04-13T11:31:26Z</time>
      </trkpt>
      <trkpt lat="48.07416" lon="3.43735">
        <ele>142</ele>
        <time>2014-04-13T11:31:34Z</time>
      </trkpt>
      <trkpt lat="48.07421" lon="3.43735">
        <ele>134</ele>
        <time>2014-04-13T11:32:06Z</time>
      </trkpt>
      <trkpt lat="48.07421" lon="3.43735">
        <ele>140</ele>
        <time>2014-04-13T11:32:10Z</time>
      </trkpt>
      <trkpt lat="48.07421" lon="3.43733">
        <ele>140</ele>
        <time>2014-04-13T11:33:43Z</time>
      </trkpt>
    </trkseg>
  </trk>
</gpx>